<?xml version="1.0" encoding="UTF-8" standalone="no" ?><gpx xmlns="http://www.topografix.com/GPX/1/1" xmlns:gpxx="http://www.garmin.com/xmlschemas/GpxExtensions/v3" xmlns:wptx1="http://www.garmin.com/xmlschemas/WaypointExtension/v1" xmlns:gpxtpx="http://www.garmin.com/xmlschemas/TrackPointExtension/v1" creator="Oregon 450" version="1.1" xmlns:xsi="http://www.w3.org/2001/XMLSchema-instance" xsi:schemaLocation="http://www.topografix.com/GPX/1/1 http://www.topografix.com/GPX/1/1/gpx.xsd http://www.garmin.com/xmlschemas/GpxExtensions/v3 http://www8.garmin.com/xmlschemas/GpxExtensionsv3.xsd http://www.garmin.com/xmlschemas/WaypointExtension/v1 http://www8.garmin.com/xmlschemas/WaypointExtensionv1.xsd http://www.garmin.com/xmlschemas/TrackPointExtension/v1 http://www.garmin.com/xmlschemas/TrackPointExtensionv1.xsd"><metadata><link href="http://www.garmin.com"><text>Garmin International</text></link><time>2013-07-25T14:17:04Z</time></metadata><trk><name>25-ČRC-13 16:17:01</name><extensions><gpxx:TrackExtension><gpxx:DisplayColor>DarkRed</gpxx:DisplayColor></gpxx:TrackExtension></extensions><trkseg><trkpt lat="46.5829899721" lon="12.1936448850"><ele>2934.08</ele><time>2013-07-25T08:21:36Z</time></trkpt><trkpt lat="46.5829899721" lon="12.1936448850"><ele>2937.45</ele><time>2013-07-25T08:21:53Z</time></trkpt><trkpt lat="46.5829899721" lon="12.1936448850"><ele>2934.56</ele><time>2013-07-25T08:21:59Z</time></trkpt><trkpt lat="46.5829899721" lon="12.1936448850"><ele>2935.04</ele><time>2013-07-25T08:22:00Z</time></trkpt><trkpt lat="46.5829970967" lon="12.1936180629"><ele>2935.52</ele><time>2013-07-25T08:22:05Z</time></trkpt><trkpt lat="46.5830468014" lon="12.1935734712"><ele>2935.52</ele><time>2013-07-25T08:22:12Z</time></trkpt><trkpt lat="46.5831052233" lon="12.1935722977"><ele>2935.52</ele><time>2013-07-25T08:22:19Z</time></trkpt><trkpt lat="46.5831128508" lon="12.1935856249"><ele>2936.00</ele><time>2013-07-25T08:22:20Z</time></trkpt><trkpt lat="46.5831380803" lon="12.1935811825"><ele>2935.52</ele><time>2013-07-25T08:22:23Z</time></trkpt><trkpt lat="46.5831964184" lon="12.1935419552"><ele>2933.60</ele><time>2013-07-25T08:22:32Z</time></trkpt><trkpt lat="46.5832327120" lon="12.1934771631"><ele>2932.64</ele><time>2013-07-25T08:22:39Z</time></trkpt><trkpt lat="46.5832812432" lon="12.1934023127"><ele>2931.68</ele><time>2013-07-25T08:22:48Z</time></trkpt><trkpt lat="46.5832978394" lon="12.1933513507"><ele>2930.72</ele><time>2013-07-25T08:22:53Z</time></trkpt><trkpt lat="46.5833131783" lon="12.1933369339"><ele>2930.24</ele><time>2013-07-25T08:22:55Z</time></trkpt><trkpt lat="46.5833082329" lon="12.1932944376"><ele>2927.83</ele><time>2013-07-25T08:23:03Z</time></trkpt><trkpt lat="46.5832952410" lon="12.1932916716"><ele>2926.87</ele><time>2013-07-25T08:23:05Z</time></trkpt><trkpt lat="46.5832350589" lon="12.1932941023"><ele>2924.95</ele><time>2013-07-25T08:23:12Z</time></trkpt><trkpt lat="46.5832208935" lon="12.1932329144"><ele>2923.99</ele><time>2013-07-25T08:23:21Z</time></trkpt><trkpt lat="46.5832516551" lon="12.1931749117"><ele>2923.03</ele><time>2013-07-25T08:23:26Z</time></trkpt><trkpt lat="46.5832494758" lon="12.1931066830"><ele>2921.10</ele><time>2013-07-25T08:23:32Z</time></trkpt><trkpt lat="46.5832498949" lon="12.1930697188"><ele>2920.62</ele><time>2013-07-25T08:23:36Z</time></trkpt><trkpt lat="46.5832752082" lon="12.1929743327"><ele>2920.62</ele><time>2013-07-25T08:23:46Z</time></trkpt><trkpt lat="46.5832781419" lon="12.1929715667"><ele>2921.10</ele><time>2013-07-25T08:23:56Z</time></trkpt><trkpt lat="46.5832896251" lon="12.1929685492"><ele>2921.10</ele><time>2013-07-25T08:24:06Z</time></trkpt><trkpt lat="46.5832896251" lon="12.1929685492"><ele>2923.99</ele><time>2013-07-25T08:24:18Z</time></trkpt><trkpt lat="46.5833308641" lon="12.1930105425"><ele>2925.43</ele><time>2013-07-25T08:24:28Z</time></trkpt><trkpt lat="46.5833521541" lon="12.1930224448"><ele>2923.99</ele><time>2013-07-25T08:24:32Z</time></trkpt><trkpt lat="46.5833956562" lon="12.1929659508"><ele>2923.51</ele><time>2013-07-25T08:24:41Z</time></trkpt><trkpt lat="46.5834442712" lon="12.1928559802"><ele>2923.99</ele><time>2013-07-25T08:24:51Z</time></trkpt><trkpt lat="46.5834345482" lon="12.1927565709"><ele>2926.39</ele><time>2013-07-25T08:25:04Z</time></trkpt><trkpt lat="46.5834345482" lon="12.1927565709"><ele>2927.83</ele><time>2013-07-25T08:25:10Z</time></trkpt><trkpt lat="46.5834556706" lon="12.1928536333"><ele>2929.27</ele><time>2013-07-25T08:25:21Z</time></trkpt><trkpt lat="46.5834556706" lon="12.1928536333"><ele>2929.75</ele><time>2013-07-25T08:25:34Z</time></trkpt><trkpt lat="46.5834556706" lon="12.1928536333"><ele>2932.64</ele><time>2013-07-25T08:25:46Z</time></trkpt><trkpt lat="46.5834779665" lon="12.1930231154"><ele>2933.12</ele><time>2013-07-25T08:25:58Z</time></trkpt><trkpt lat="46.5834779665" lon="12.1930231154"><ele>2934.56</ele><time>2013-07-25T08:26:08Z</time></trkpt><trkpt lat="46.5834779665" lon="12.1930231154"><ele>2935.52</ele><time>2013-07-25T08:26:24Z</time></trkpt><trkpt lat="46.5834916290" lon="12.1930263005"><ele>2936.97</ele><time>2013-07-25T08:26:44Z</time></trkpt><trkpt lat="46.5835049562" lon="12.1930812020"><ele>2937.45</ele><time>2013-07-25T08:26:55Z</time></trkpt><trkpt lat="46.5835049562" lon="12.1930812020"><ele>2937.93</ele><time>2013-07-25T08:27:17Z</time></trkpt><trkpt lat="46.5835867636" lon="12.1930383705"><ele>2937.93</ele><time>2013-07-25T08:27:32Z</time></trkpt><trkpt lat="46.5836119093" lon="12.1931088623"><ele>2937.93</ele><time>2013-07-25T08:27:46Z</time></trkpt><trkpt lat="46.5836195368" lon="12.1930967085"><ele>2938.89</ele><time>2013-07-25T08:28:01Z</time></trkpt><trkpt lat="46.5836453531" lon="12.1930164099"><ele>2938.89</ele><time>2013-07-25T08:28:19Z</time></trkpt><trkpt lat="46.5836453531" lon="12.1930164099"><ele>2938.89</ele><time>2013-07-25T08:28:40Z</time></trkpt><trkpt lat="46.5836492088" lon="12.1930050943"><ele>2939.37</ele><time>2013-07-25T08:28:59Z</time></trkpt><trkpt lat="46.5836704988" lon="12.1929843072"><ele>2940.33</ele><time>2013-07-25T08:29:12Z</time></trkpt><trkpt lat="46.5836704988" lon="12.1929843072"><ele>2939.85</ele><time>2013-07-25T08:29:32Z</time></trkpt><trkpt lat="46.5836982429" lon="12.1929605026"><ele>2939.37</ele><time>2013-07-25T08:29:47Z</time></trkpt><trkpt lat="46.5836982429" lon="12.1929605026"><ele>2939.37</ele><time>2013-07-25T08:30:06Z</time></trkpt><trkpt lat="46.5836982429" lon="12.1929605026"><ele>2940.81</ele><time>2013-07-25T08:30:14Z</time></trkpt><trkpt lat="46.5837158449" lon="12.1929351892"><ele>2942.25</ele><time>2013-07-25T08:30:27Z</time></trkpt><trkpt lat="46.5837158449" lon="12.1929351892"><ele>2943.21</ele><time>2013-07-25T08:30:36Z</time></trkpt><trkpt lat="46.5837158449" lon="12.1929351892"><ele>2943.21</ele><time>2013-07-25T08:30:48Z</time></trkpt><trkpt lat="46.5837186109" lon="12.1929042600"><ele>2945.62</ele><time>2013-07-25T08:30:59Z</time></trkpt><trkpt lat="46.5837247297" lon="12.1928747557"><ele>2945.62</ele><time>2013-07-25T08:31:12Z</time></trkpt><trkpt lat="46.5837247297" lon="12.1928747557"><ele>2945.14</ele><time>2013-07-25T08:31:23Z</time></trkpt><trkpt lat="46.5837031044" lon="12.1927662101"><ele>2946.58</ele><time>2013-07-25T08:31:35Z</time></trkpt><trkpt lat="46.5837041102" lon="12.1927504521"><ele>2946.10</ele><time>2013-07-25T08:31:41Z</time></trkpt><trkpt lat="46.5836855024" lon="12.1927083749"><ele>2947.54</ele><time>2013-07-25T08:31:49Z</time></trkpt><trkpt lat="46.5836706664" lon="12.1926881745"><ele>2948.02</ele><time>2013-07-25T08:31:56Z</time></trkpt><trkpt lat="46.5836652182" lon="12.1926838160"><ele>2948.50</ele><time>2013-07-25T08:32:09Z</time></trkpt><trkpt lat="46.5836596023" lon="12.1926732548"><ele>2949.46</ele><time>2013-07-25T08:32:19Z</time></trkpt><trkpt lat="46.5836565848" lon="12.1926683094"><ele>2949.94</ele><time>2013-07-25T08:32:32Z</time></trkpt><trkpt lat="46.5836471971" lon="12.1926601790"><ele>2950.90</ele><time>2013-07-25T08:32:44Z</time></trkpt><trkpt lat="46.5836360492" lon="12.1926635318"><ele>2951.87</ele><time>2013-07-25T08:32:55Z</time></trkpt><trkpt lat="46.5836320259" lon="12.1926611010"><ele>2952.83</ele><time>2013-07-25T08:33:08Z</time></trkpt><trkpt lat="46.5836233087" lon="12.1926609334"><ele>2954.27</ele><time>2013-07-25T08:33:18Z</time></trkpt><trkpt lat="46.5836060420" lon="12.1926584188"><ele>2956.19</ele><time>2013-07-25T08:33:30Z</time></trkpt><trkpt lat="46.5835834108" lon="12.1926541440"><ele>2957.15</ele><time>2013-07-25T08:33:47Z</time></trkpt><trkpt lat="46.5835618693" lon="12.1926440019"><ele>2958.11</ele><time>2013-07-25T08:33:56Z</time></trkpt><trkpt lat="46.5835407469" lon="12.1926258132"><ele>2959.56</ele><time>2013-07-25T08:34:03Z</time></trkpt><trkpt lat="46.5835263301" lon="12.1925982367"><ele>2959.08</ele><time>2013-07-25T08:34:12Z</time></trkpt><trkpt lat="46.5834918804" lon="12.1925511304"><ele>2955.71</ele><time>2013-07-25T08:34:32Z</time></trkpt><trkpt lat="46.5834918804" lon="12.1925511304"><ele>2955.71</ele><time>2013-07-25T08:34:54Z</time></trkpt><trkpt lat="46.5834918804" lon="12.1925511304"><ele>2956.67</ele><time>2013-07-25T08:35:08Z</time></trkpt><trkpt lat="46.5834352188" lon="12.1924558282"><ele>2956.19</ele><time>2013-07-25T08:35:23Z</time></trkpt><trkpt lat="46.5834099054" lon="12.1923835762"><ele>2955.23</ele><time>2013-07-25T08:35:34Z</time></trkpt><trkpt lat="46.5834008530" lon="12.1923427563"><ele>2955.23</ele><time>2013-07-25T08:35:44Z</time></trkpt><trkpt lat="46.5833928064" lon="12.1923192032"><ele>2955.23</ele><time>2013-07-25T08:35:55Z</time></trkpt><trkpt lat="46.5833815746" lon="12.1922903694"><ele>2957.15</ele><time>2013-07-25T08:36:02Z</time></trkpt><trkpt lat="46.5833645593" lon="12.1922722645"><ele>2958.59</ele><time>2013-07-25T08:36:10Z</time></trkpt><trkpt lat="46.5833472088" lon="12.1922262479"><ele>2960.04</ele><time>2013-07-25T08:36:17Z</time></trkpt><trkpt lat="46.5833472088" lon="12.1922262479"><ele>2960.52</ele><time>2013-07-25T08:36:31Z</time></trkpt><trkpt lat="46.5833472088" lon="12.1922262479"><ele>2960.52</ele><time>2013-07-25T08:36:46Z</time></trkpt><trkpt lat="46.5833355580" lon="12.1921866015"><ele>2962.92</ele><time>2013-07-25T08:36:57Z</time></trkpt><trkpt lat="46.5833298583" lon="12.1921381541"><ele>2962.92</ele><time>2013-07-25T08:37:10Z</time></trkpt><trkpt lat="46.5833296068" lon="12.1921364777"><ele>2964.36</ele><time>2013-07-25T08:37:21Z</time></trkpt><trkpt lat="46.5833305288" lon="12.1921249945"><ele>2964.84</ele><time>2013-07-25T08:37:34Z</time></trkpt><trkpt lat="46.5833305288" lon="12.1921249945"><ele>2964.84</ele><time>2013-07-25T08:37:53Z</time></trkpt><trkpt lat="46.5833237395" lon="12.1921062190"><ele>2965.80</ele><time>2013-07-25T08:38:09Z</time></trkpt><trkpt lat="46.5833237395" lon="12.1921062190"><ele>2965.32</ele><time>2013-07-25T08:38:28Z</time></trkpt><trkpt lat="46.5833237395" lon="12.1921062190"><ele>2965.80</ele><time>2013-07-25T08:38:38Z</time></trkpt><trkpt lat="46.5833237395" lon="12.1921055485"><ele>2965.80</ele><time>2013-07-25T08:39:05Z</time></trkpt><trkpt lat="46.5833237395" lon="12.1921055485"><ele>2965.80</ele><time>2013-07-25T08:39:20Z</time></trkpt><trkpt lat="46.5833276790" lon="12.1921018604"><ele>2966.77</ele><time>2013-07-25T08:39:29Z</time></trkpt><trkpt lat="46.5833145194" lon="12.1920606215"><ele>2967.73</ele><time>2013-07-25T08:39:37Z</time></trkpt><trkpt lat="46.5833099931" lon="12.1920426842"><ele>2968.69</ele><time>2013-07-25T08:39:47Z</time></trkpt><trkpt lat="46.5833086520" lon="12.1920378227"><ele>2969.65</ele><time>2013-07-25T08:39:57Z</time></trkpt><trkpt lat="46.5833086520" lon="12.1920378227"><ele>2968.69</ele><time>2013-07-25T08:40:07Z</time></trkpt><trkpt lat="46.5833086520" lon="12.1920378227"><ele>2968.69</ele><time>2013-07-25T08:40:18Z</time></trkpt><trkpt lat="46.5833057184" lon="12.1920391638"><ele>2968.69</ele><time>2013-07-25T08:40:40Z</time></trkpt><trkpt lat="46.5833057184" lon="12.1920391638"><ele>2969.17</ele><time>2013-07-25T08:40:53Z</time></trkpt><trkpt lat="46.5832992643" lon="12.1920193825"><ele>2968.21</ele><time>2013-07-25T08:40:58Z</time></trkpt><trkpt lat="46.5832374897" lon="12.1918567736"><ele>2967.73</ele><time>2013-07-25T08:41:09Z</time></trkpt><trkpt lat="46.5832095779" lon="12.1917556878"><ele>2969.17</ele><time>2013-07-25T08:41:19Z</time></trkpt><trkpt lat="46.5832068957" lon="12.1917380020"><ele>2971.09</ele><time>2013-07-25T08:41:30Z</time></trkpt><trkpt lat="46.5832068957" lon="12.1917380020"><ele>2972.53</ele><time>2013-07-25T08:41:33Z</time></trkpt><trkpt lat="46.5832073987" lon="12.1917217411"><ele>2973.50</ele><time>2013-07-25T08:41:41Z</time></trkpt><trkpt lat="46.5832073987" lon="12.1917217411"><ele>2975.42</ele><time>2013-07-25T08:41:57Z</time></trkpt><trkpt lat="46.5832073987" lon="12.1917217411"><ele>2976.38</ele><time>2013-07-25T08:42:16Z</time></trkpt><trkpt lat="46.5832058899" lon="12.1917036362"><ele>2978.78</ele><time>2013-07-25T08:42:27Z</time></trkpt><trkpt lat="46.5832027886" lon="12.1916803345"><ele>2979.74</ele><time>2013-07-25T08:42:36Z</time></trkpt><trkpt lat="46.5831716079" lon="12.1916030534"><ele>2980.22</ele><time>2013-07-25T08:42:44Z</time></trkpt><trkpt lat="46.5831374098" lon="12.1914888918"><ele>2979.26</ele><time>2013-07-25T08:42:57Z</time></trkpt><trkpt lat="46.5831358172" lon="12.1914758161"><ele>2979.74</ele><time>2013-07-25T08:43:13Z</time></trkpt><trkpt lat="46.5831270162" lon="12.1914661769"><ele>2979.74</ele><time>2013-07-25T08:43:15Z</time></trkpt><trkpt lat="46.5830888785" lon="12.1913758200"><ele>2979.26</ele><time>2013-07-25T08:43:24Z</time></trkpt><trkpt lat="46.5830603801" lon="12.1912992094"><ele>2978.78</ele><time>2013-07-25T08:43:32Z</time></trkpt><trkpt lat="46.5830309596" lon="12.1912182402"><ele>2979.26</ele><time>2013-07-25T08:43:42Z</time></trkpt><trkpt lat="46.5829913970" lon="12.1911629196"><ele>2979.26</ele><time>2013-07-25T08:43:53Z</time></trkpt><trkpt lat="46.5829875413" lon="12.1911500115"><ele>2979.74</ele><time>2013-07-25T08:43:54Z</time></trkpt><trkpt lat="46.5829401836" lon="12.1910733171"><ele>2979.74</ele><time>2013-07-25T08:44:02Z</time></trkpt><trkpt lat="46.5828904789" lon="12.1909785178"><ele>2979.26</ele><time>2013-07-25T08:44:13Z</time></trkpt><trkpt lat="46.5828779060" lon="12.1909423079"><ele>2978.30</ele><time>2013-07-25T08:44:17Z</time></trkpt><trkpt lat="46.5828552749" lon="12.1909047570"><ele>2978.30</ele><time>2013-07-25T08:44:21Z</time></trkpt><trkpt lat="46.5828043967" lon="12.1908173338"><ele>2979.26</ele><time>2013-07-25T08:44:32Z</time></trkpt><trkpt lat="46.5827981103" lon="12.1908076108"><ele>2977.82</ele><time>2013-07-25T08:44:41Z</time></trkpt><trkpt lat="46.5827853698" lon="12.1907855663"><ele>2978.78</ele><time>2013-07-25T08:44:43Z</time></trkpt><trkpt lat="46.5827661753" lon="12.1907387953"><ele>2979.26</ele><time>2013-07-25T08:44:47Z</time></trkpt><trkpt lat="46.5827133693" lon="12.1906179283"><ele>2979.74</ele><time>2013-07-25T08:44:58Z</time></trkpt><trkpt lat="46.5826584678" lon="12.1905733366"><ele>2981.19</ele><time>2013-07-25T08:45:09Z</time></trkpt><trkpt lat="46.5826263651" lon="12.1905501187"><ele>2982.63</ele><time>2013-07-25T08:45:18Z</time></trkpt><trkpt lat="46.5826059133" lon="12.1905373782"><ele>2983.11</ele><time>2013-07-25T08:45:27Z</time></trkpt><trkpt lat="46.5825949330" lon="12.1905174293"><ele>2984.07</ele><time>2013-07-25T08:45:36Z</time></trkpt><trkpt lat="46.5825674403" lon="12.1904948819"><ele>2984.55</ele><time>2013-07-25T08:45:57Z</time></trkpt><trkpt lat="46.5825197473" lon="12.1904780343"><ele>2985.99</ele><time>2013-07-25T08:46:06Z</time></trkpt><trkpt lat="46.5825172327" lon="12.1904592589"><ele>2987.43</ele><time>2013-07-25T08:46:13Z</time></trkpt><trkpt lat="46.5825172327" lon="12.1904592589"><ele>2988.40</ele><time>2013-07-25T08:46:26Z</time></trkpt><trkpt lat="46.5825172327" lon="12.1904592589"><ele>2988.88</ele><time>2013-07-25T08:46:45Z</time></trkpt><trkpt lat="46.5825154725" lon="12.1904548164"><ele>2987.91</ele><time>2013-07-25T08:46:57Z</time></trkpt><trkpt lat="46.5825154725" lon="12.1904548164"><ele>2988.40</ele><time>2013-07-25T08:47:22Z</time></trkpt><trkpt lat="46.5825119521" lon="12.1904581692"><ele>2988.88</ele><time>2013-07-25T08:47:40Z</time></trkpt><trkpt lat="46.5824966133" lon="12.1904362086"><ele>2988.40</ele><time>2013-07-25T08:47:54Z</time></trkpt><trkpt lat="46.5824831184" lon="12.1904175170"><ele>2988.88</ele><time>2013-07-25T08:48:10Z</time></trkpt><trkpt lat="46.5824780054" lon="12.1903896052"><ele>2988.88</ele><time>2013-07-25T08:48:20Z</time></trkpt><trkpt lat="46.5824640915" lon="12.1903473604"><ele>2988.40</ele><time>2013-07-25T08:48:29Z</time></trkpt><trkpt lat="46.5824574698" lon="12.1903147548"><ele>2987.43</ele><time>2013-07-25T08:48:38Z</time></trkpt><trkpt lat="46.5824469924" lon="12.1902934648"><ele>2987.43</ele><time>2013-07-25T08:48:46Z</time></trkpt><trkpt lat="46.5824434720" lon="12.1902787965"><ele>2986.47</ele><time>2013-07-25T08:48:56Z</time></trkpt><trkpt lat="46.5824347548" lon="12.1902718395"><ele>2985.99</ele><time>2013-07-25T08:49:04Z</time></trkpt><trkpt lat="46.5824336652" lon="12.1902652178"><ele>2986.47</ele><time>2013-07-25T08:49:25Z</time></trkpt><trkpt lat="46.5824258700" lon="12.1902238112"><ele>2986.47</ele><time>2013-07-25T08:49:36Z</time></trkpt><trkpt lat="46.5824142192" lon="12.1901792195"><ele>2985.99</ele><time>2013-07-25T08:49:45Z</time></trkpt><trkpt lat="46.5823892411" lon="12.1901430935"><ele>2985.03</ele><time>2013-07-25T08:49:54Z</time></trkpt><trkpt lat="46.5823977068" lon="12.1901217196"><ele>2984.55</ele><time>2013-07-25T08:50:01Z</time></trkpt><trkpt lat="46.5824013110" lon="12.1900953166"><ele>2984.55</ele><time>2013-07-25T08:50:10Z</time></trkpt><trkpt lat="46.5824018139" lon="12.1900914609"><ele>2984.07</ele><time>2013-07-25T08:50:29Z</time></trkpt><trkpt lat="46.5824055020" lon="12.1900704224"><ele>2982.63</ele><time>2013-07-25T08:50:40Z</time></trkpt><trkpt lat="46.5824043285" lon="12.1900514793"><ele>2981.67</ele><time>2013-07-25T08:50:47Z</time></trkpt><trkpt lat="46.5824055020" lon="12.1900475398"><ele>2982.15</ele><time>2013-07-25T08:51:01Z</time></trkpt><trkpt lat="46.5824055020" lon="12.1900475398"><ele>2981.67</ele><time>2013-07-25T08:51:18Z</time></trkpt><trkpt lat="46.5824045800" lon="12.1900353022"><ele>2981.19</ele><time>2013-07-25T08:51:38Z</time></trkpt><trkpt lat="46.5824045800" lon="12.1900353022"><ele>2980.22</ele><time>2013-07-25T08:51:48Z</time></trkpt><trkpt lat="46.5824081842" lon="12.1900294349"><ele>2979.74</ele><time>2013-07-25T08:51:59Z</time></trkpt><trkpt lat="46.5824131295" lon="12.1899850108"><ele>2979.26</ele><time>2013-07-25T08:52:09Z</time></trkpt><trkpt lat="46.5824157279" lon="12.1899668220"><ele>2977.82</ele><time>2013-07-25T08:52:17Z</time></trkpt><trkpt lat="46.5824297257" lon="12.1899223980"><ele>2976.38</ele><time>2013-07-25T08:52:25Z</time></trkpt><trkpt lat="46.5824297257" lon="12.1899223980"><ele>2975.90</ele><time>2013-07-25T08:52:33Z</time></trkpt><trkpt lat="46.5824297257" lon="12.1899223980"><ele>2974.94</ele><time>2013-07-25T08:52:40Z</time></trkpt><trkpt lat="46.5824297257" lon="12.1899223980"><ele>2974.46</ele><time>2013-07-25T08:52:49Z</time></trkpt><trkpt lat="46.5824297257" lon="12.1899223980"><ele>2973.50</ele><time>2013-07-25T08:52:59Z</time></trkpt><trkpt lat="46.5824290551" lon="12.1899170335"><ele>2973.50</ele><time>2013-07-25T08:53:09Z</time></trkpt><trkpt lat="46.5824290551" lon="12.1899170335"><ele>2973.01</ele><time>2013-07-25T08:53:26Z</time></trkpt><trkpt lat="46.5824290551" lon="12.1899170335"><ele>2973.50</ele><time>2013-07-25T08:53:37Z</time></trkpt><trkpt lat="46.5824275464" lon="12.1898998506"><ele>2971.57</ele><time>2013-07-25T08:53:46Z</time></trkpt><trkpt lat="46.5824275464" lon="12.1898998506"><ele>2971.57</ele><time>2013-07-25T08:53:56Z</time></trkpt><trkpt lat="46.5824251994" lon="12.1898751240"><ele>2970.13</ele><time>2013-07-25T08:54:05Z</time></trkpt><trkpt lat="46.5824251994" lon="12.1898751240"><ele>2970.13</ele><time>2013-07-25T08:54:16Z</time></trkpt><trkpt lat="46.5824251994" lon="12.1898751240"><ele>2969.17</ele><time>2013-07-25T08:54:28Z</time></trkpt><trkpt lat="46.5824231878" lon="12.1898643114"><ele>2969.17</ele><time>2013-07-25T08:54:52Z</time></trkpt><trkpt lat="46.5824231878" lon="12.1898643114"><ele>2969.17</ele><time>2013-07-25T08:55:12Z</time></trkpt><trkpt lat="46.5824206732" lon="12.1898534987"><ele>2969.65</ele><time>2013-07-25T08:55:35Z</time></trkpt><trkpt lat="46.5824206732" lon="12.1898534987"><ele>2969.17</ele><time>2013-07-25T08:55:45Z</time></trkpt><trkpt lat="46.5824206732" lon="12.1898534987"><ele>2969.17</ele><time>2013-07-25T08:55:56Z</time></trkpt><trkpt lat="46.5824192483" lon="12.1898467932"><ele>2968.21</ele><time>2013-07-25T08:56:11Z</time></trkpt><trkpt lat="46.5824112017" lon="12.1898229886"><ele>2967.25</ele><time>2013-07-25T08:56:23Z</time></trkpt><trkpt lat="46.5824086871" lon="12.1898041293"><ele>2966.29</ele><time>2013-07-25T08:56:32Z</time></trkpt><trkpt lat="46.5824086871" lon="12.1898041293"><ele>2966.29</ele><time>2013-07-25T08:56:41Z</time></trkpt><trkpt lat="46.5824086871" lon="12.1898041293"><ele>2965.32</ele><time>2013-07-25T08:56:52Z</time></trkpt><trkpt lat="46.5824086871" lon="12.1898041293"><ele>2964.36</ele><time>2013-07-25T08:56:54Z</time></trkpt><trkpt lat="46.5824034903" lon="12.1897794865"><ele>2964.36</ele><time>2013-07-25T08:57:06Z</time></trkpt><trkpt lat="46.5823971201" lon="12.1897139400"><ele>2962.92</ele><time>2013-07-25T08:57:14Z</time></trkpt><trkpt lat="46.5823956113" lon="12.1897083241"><ele>2962.92</ele><time>2013-07-25T08:57:27Z</time></trkpt><trkpt lat="46.5823870618" lon="12.1896289475"><ele>2961.96</ele><time>2013-07-25T08:57:36Z</time></trkpt><trkpt lat="46.5823842119" lon="12.1896095015"><ele>2961.48</ele><time>2013-07-25T08:57:53Z</time></trkpt><trkpt lat="46.5823917557" lon="12.1895833500"><ele>2960.52</ele><time>2013-07-25T08:58:03Z</time></trkpt><trkpt lat="46.5823917557" lon="12.1895833500"><ele>2959.08</ele><time>2013-07-25T08:58:11Z</time></trkpt><trkpt lat="46.5823917557" lon="12.1895833500"><ele>2958.59</ele><time>2013-07-25T08:58:23Z</time></trkpt><trkpt lat="46.5823889058" lon="12.1895400994"><ele>2958.11</ele><time>2013-07-25T08:58:32Z</time></trkpt><trkpt lat="46.5823877323" lon="12.1895339806"><ele>2970.61</ele><time>2013-07-25T08:58:38Z</time></trkpt><trkpt lat="46.5823877323" lon="12.1895339806"><ele>2963.88</ele><time>2013-07-25T08:58:39Z</time></trkpt><trkpt lat="46.5823877323" lon="12.1895339806"><ele>2957.15</ele><time>2013-07-25T08:58:40Z</time></trkpt><trkpt lat="46.5823901631" lon="12.1895291191"><ele>2956.67</ele><time>2013-07-25T08:58:42Z</time></trkpt><trkpt lat="46.5824013110" lon="12.1894597169"><ele>2956.19</ele><time>2013-07-25T08:58:51Z</time></trkpt><trkpt lat="46.5823925100" lon="12.1894582920"><ele>2956.19</ele><time>2013-07-25T08:58:59Z</time></trkpt><trkpt lat="46.5823925100" lon="12.1894582920"><ele>2956.19</ele><time>2013-07-25T08:59:09Z</time></trkpt><trkpt lat="46.5823925100" lon="12.1894582920"><ele>2955.71</ele><time>2013-07-25T08:59:22Z</time></trkpt><trkpt lat="46.5823925100" lon="12.1894582920"><ele>2955.23</ele><time>2013-07-25T08:59:32Z</time></trkpt><trkpt lat="46.5823926777" lon="12.1894530114"><ele>2954.27</ele><time>2013-07-25T08:59:42Z</time></trkpt><trkpt lat="46.5823926777" lon="12.1893966850"><ele>2952.83</ele><time>2013-07-25T08:59:52Z</time></trkpt><trkpt lat="46.5823970363" lon="12.1893664263"><ele>2951.38</ele><time>2013-07-25T09:00:00Z</time></trkpt><trkpt lat="46.5824018139" lon="12.1893220861"><ele>2950.42</ele><time>2013-07-25T09:00:08Z</time></trkpt><trkpt lat="46.5824069269" lon="12.1893066633"><ele>2949.46</ele><time>2013-07-25T09:00:16Z</time></trkpt><trkpt lat="46.5824144706" lon="12.1892752312"><ele>2948.98</ele><time>2013-07-25T09:00:29Z</time></trkpt><trkpt lat="46.5824148897" lon="12.1892487444"><ele>2947.06</ele><time>2013-07-25T09:00:39Z</time></trkpt><trkpt lat="46.5824133810" lon="12.1892473195"><ele>2946.58</ele><time>2013-07-25T09:00:49Z</time></trkpt><trkpt lat="46.5824133810" lon="12.1892473195"><ele>2947.06</ele><time>2013-07-25T09:01:12Z</time></trkpt><trkpt lat="46.5824153926" lon="12.1892457269"><ele>2947.06</ele><time>2013-07-25T09:01:34Z</time></trkpt><trkpt lat="46.5824153926" lon="12.1892457269"><ele>2946.58</ele><time>2013-07-25T09:01:53Z</time></trkpt><trkpt lat="46.5824123751" lon="12.1892393567"><ele>2946.10</ele><time>2013-07-25T09:02:10Z</time></trkpt><trkpt lat="46.5824123751" lon="12.1892393567"><ele>2946.58</ele><time>2013-07-25T09:02:25Z</time></trkpt><trkpt lat="46.5824120399" lon="12.1892382670"><ele>2946.58</ele><time>2013-07-25T09:02:46Z</time></trkpt><trkpt lat="46.5824120399" lon="12.1892382670"><ele>2945.14</ele><time>2013-07-25T09:03:01Z</time></trkpt><trkpt lat="46.5824121237" lon="12.1892151330"><ele>2945.62</ele><time>2013-07-25T09:03:11Z</time></trkpt><trkpt lat="46.5824121237" lon="12.1892151330"><ele>2944.66</ele><time>2013-07-25T09:03:20Z</time></trkpt><trkpt lat="46.5824173205" lon="12.1891933400"><ele>2943.21</ele><time>2013-07-25T09:03:32Z</time></trkpt><trkpt lat="46.5824192483" lon="12.1891850419"><ele>2942.73</ele><time>2013-07-25T09:03:48Z</time></trkpt><trkpt lat="46.5824184101" lon="12.1891743131"><ele>2941.77</ele><time>2013-07-25T09:03:58Z</time></trkpt><trkpt lat="46.5824169014" lon="12.1891661827"><ele>2941.77</ele><time>2013-07-25T09:04:10Z</time></trkpt><trkpt lat="46.5824169014" lon="12.1891661827"><ele>2940.81</ele><time>2013-07-25T09:04:23Z</time></trkpt><trkpt lat="46.5824193321" lon="12.1891598124"><ele>2940.81</ele><time>2013-07-25T09:04:31Z</time></trkpt><trkpt lat="46.5824223496" lon="12.1891580522"><ele>2940.33</ele><time>2013-07-25T09:04:46Z</time></trkpt><trkpt lat="46.5824223496" lon="12.1891580522"><ele>2940.33</ele><time>2013-07-25T09:04:58Z</time></trkpt><trkpt lat="46.5824223496" lon="12.1891580522"><ele>2938.89</ele><time>2013-07-25T09:05:12Z</time></trkpt><trkpt lat="46.5824216790" lon="12.1891557053"><ele>2936.97</ele><time>2013-07-25T09:05:27Z</time></trkpt><trkpt lat="46.5824216790" lon="12.1891557053"><ele>2935.52</ele><time>2013-07-25T09:05:41Z</time></trkpt><trkpt lat="46.5824216790" lon="12.1891557053"><ele>2934.56</ele><time>2013-07-25T09:05:51Z</time></trkpt><trkpt lat="46.5824291389" lon="12.1891514305"><ele>2934.08</ele><time>2013-07-25T09:06:02Z</time></trkpt><trkpt lat="46.5824291389" lon="12.1891514305"><ele>2932.64</ele><time>2013-07-25T09:06:12Z</time></trkpt><trkpt lat="46.5824291389" lon="12.1891514305"><ele>2932.16</ele><time>2013-07-25T09:06:23Z</time></trkpt><trkpt lat="46.5824277140" lon="12.1891562920"><ele>2931.20</ele><time>2013-07-25T09:06:33Z</time></trkpt><trkpt lat="46.5824049991" lon="12.1891379356"><ele>2930.24</ele><time>2013-07-25T09:06:42Z</time></trkpt><trkpt lat="46.5824049991" lon="12.1891379356"><ele>2930.24</ele><time>2013-07-25T09:06:52Z</time></trkpt><trkpt lat="46.5824017301" lon="12.1890288871"><ele>2927.83</ele><time>2013-07-25T09:07:02Z</time></trkpt><trkpt lat="46.5824017301" lon="12.1890288871"><ele>2928.31</ele><time>2013-07-25T09:07:04Z</time></trkpt><trkpt lat="46.5823773388" lon="12.1890018135"><ele>2927.83</ele><time>2013-07-25T09:07:12Z</time></trkpt><trkpt lat="46.5823773388" lon="12.1890018135"><ele>2926.87</ele><time>2013-07-25T09:07:22Z</time></trkpt><trkpt lat="46.5823773388" lon="12.1890018135"><ele>2925.43</ele><time>2013-07-25T09:07:31Z</time></trkpt><trkpt lat="46.5823773388" lon="12.1890018135"><ele>2924.47</ele><time>2013-07-25T09:07:40Z</time></trkpt><trkpt lat="46.5823715553" lon="12.1890058368"><ele>2922.54</ele><time>2013-07-25T09:07:49Z</time></trkpt><trkpt lat="46.5823284723" lon="12.1889470797"><ele>2921.58</ele><time>2013-07-25T09:07:59Z</time></trkpt><trkpt lat="46.5822940227" lon="12.1888256259"><ele>2919.66</ele><time>2013-07-25T09:08:08Z</time></trkpt><trkpt lat="46.5823264606" lon="12.1887395438"><ele>2918.70</ele><time>2013-07-25T09:08:18Z</time></trkpt><trkpt lat="46.5823335014" lon="12.1887398791"><ele>2918.70</ele><time>2013-07-25T09:08:29Z</time></trkpt><trkpt lat="46.5823335014" lon="12.1887398791"><ele>2919.18</ele><time>2013-07-25T09:08:43Z</time></trkpt><trkpt lat="46.5823335014" lon="12.1887398791"><ele>2918.70</ele><time>2013-07-25T09:09:03Z</time></trkpt><trkpt lat="46.5823437274" lon="12.1887431480"><ele>2917.74</ele><time>2013-07-25T09:09:18Z</time></trkpt><trkpt lat="46.5823449846" lon="12.1887395438"><ele>2916.78</ele><time>2013-07-25T09:09:28Z</time></trkpt><trkpt lat="46.5823449846" lon="12.1887395438"><ele>2916.78</ele><time>2013-07-25T09:09:37Z</time></trkpt><trkpt lat="46.5823449846" lon="12.1887395438"><ele>2916.78</ele><time>2013-07-25T09:09:48Z</time></trkpt><trkpt lat="46.5823449846" lon="12.1887395438"><ele>2915.82</ele><time>2013-07-25T09:09:55Z</time></trkpt><trkpt lat="46.5823428892" lon="12.1887312457"><ele>2915.82</ele><time>2013-07-25T09:10:04Z</time></trkpt><trkpt lat="46.5823428892" lon="12.1887312457"><ele>2915.82</ele><time>2013-07-25T09:10:14Z</time></trkpt><trkpt lat="46.5823428892" lon="12.1887312457"><ele>2914.85</ele><time>2013-07-25T09:10:31Z</time></trkpt><trkpt lat="46.5823464934" lon="12.1887297370"><ele>2915.34</ele><time>2013-07-25T09:10:45Z</time></trkpt><trkpt lat="46.5823464934" lon="12.1887297370"><ele>2915.34</ele><time>2013-07-25T09:11:09Z</time></trkpt><trkpt lat="46.5823486727" lon="12.1887327544"><ele>2914.85</ele><time>2013-07-25T09:11:28Z</time></trkpt><trkpt lat="46.5823486727" lon="12.1887327544"><ele>2915.34</ele><time>2013-07-25T09:11:48Z</time></trkpt><trkpt lat="46.5823606588" lon="12.1887297370"><ele>2914.85</ele><time>2013-07-25T09:12:10Z</time></trkpt><trkpt lat="46.5823606588" lon="12.1887297370"><ele>2915.34</ele><time>2013-07-25T09:12:33Z</time></trkpt><trkpt lat="46.5823606588" lon="12.1887297370"><ele>2913.89</ele><time>2013-07-25T09:12:42Z</time></trkpt><trkpt lat="46.5823583119" lon="12.1887289826"><ele>2913.89</ele><time>2013-07-25T09:12:54Z</time></trkpt><trkpt lat="46.5823583119" lon="12.1887289826"><ele>2912.45</ele><time>2013-07-25T09:13:07Z</time></trkpt><trkpt lat="46.5823583119" lon="12.1887289826"><ele>2911.97</ele><time>2013-07-25T09:13:16Z</time></trkpt><trkpt lat="46.5823597368" lon="12.1887256298"><ele>2911.97</ele><time>2013-07-25T09:13:27Z</time></trkpt><trkpt lat="46.5823597368" lon="12.1887256298"><ele>2911.49</ele><time>2013-07-25T09:13:42Z</time></trkpt><trkpt lat="46.5823597368" lon="12.1887256298"><ele>2911.01</ele><time>2013-07-25T09:13:58Z</time></trkpt><trkpt lat="46.5823702980" lon="12.1887280606"><ele>2911.49</ele><time>2013-07-25T09:14:16Z</time></trkpt><trkpt lat="46.5823756624" lon="12.1887257136"><ele>2911.49</ele><time>2013-07-25T09:14:37Z</time></trkpt><trkpt lat="46.5823756624" lon="12.1887257136"><ele>2911.01</ele><time>2013-07-25T09:14:51Z</time></trkpt><trkpt lat="46.5823756624" lon="12.1887257136"><ele>2911.49</ele><time>2013-07-25T09:15:14Z</time></trkpt><trkpt lat="46.5823814459" lon="12.1887240373"><ele>2910.05</ele><time>2013-07-25T09:15:28Z</time></trkpt><trkpt lat="46.5823814459" lon="12.1887240373"><ele>2909.09</ele><time>2013-07-25T09:15:39Z</time></trkpt><trkpt lat="46.5823941864" lon="12.1887097880"><ele>2908.61</ele><time>2013-07-25T09:15:51Z</time></trkpt><trkpt lat="46.5823941864" lon="12.1887097880"><ele>2908.61</ele><time>2013-07-25T09:16:12Z</time></trkpt><trkpt lat="46.5824222658" lon="12.1886988916"><ele>2908.61</ele><time>2013-07-25T09:16:25Z</time></trkpt><trkpt lat="46.5824338328" lon="12.1886942815"><ele>2908.13</ele><time>2013-07-25T09:16:35Z</time></trkpt><trkpt lat="46.5824412927" lon="12.1886798646"><ele>2908.13</ele><time>2013-07-25T09:16:47Z</time></trkpt><trkpt lat="46.5824470762" lon="12.1886756737"><ele>2907.65</ele><time>2013-07-25T09:16:58Z</time></trkpt><trkpt lat="46.5824521892" lon="12.1886725724"><ele>2906.68</ele><time>2013-07-25T09:17:10Z</time></trkpt><trkpt lat="46.5824542008" lon="12.1886707284"><ele>2905.24</ele><time>2013-07-25T09:17:24Z</time></trkpt><trkpt lat="46.5824593976" lon="12.1886712313"><ele>2905.72</ele><time>2013-07-25T09:17:33Z</time></trkpt><trkpt lat="46.5824648459" lon="12.1886675432"><ele>2904.76</ele><time>2013-07-25T09:17:45Z</time></trkpt><trkpt lat="46.5824752394" lon="12.1886594128"><ele>2903.80</ele><time>2013-07-25T09:17:54Z</time></trkpt><trkpt lat="46.5824800171" lon="12.1886604186"><ele>2903.80</ele><time>2013-07-25T09:18:05Z</time></trkpt><trkpt lat="46.5824831184" lon="12.1886531264"><ele>2903.32</ele><time>2013-07-25T09:18:14Z</time></trkpt><trkpt lat="46.5824858006" lon="12.1886426490"><ele>2901.88</ele><time>2013-07-25T09:18:26Z</time></trkpt><trkpt lat="46.5825198311" lon="12.1886434872"><ele>2900.92</ele><time>2013-07-25T09:18:36Z</time></trkpt><trkpt lat="46.5825320687" lon="12.1886584908"><ele>2900.44</ele><time>2013-07-25T09:18:46Z</time></trkpt><trkpt lat="46.5825385228" lon="12.1886708122"><ele>2899.95</ele><time>2013-07-25T09:18:59Z</time></trkpt><trkpt lat="46.5825526044" lon="12.1886776015"><ele>2898.99</ele><time>2013-07-25T09:19:09Z</time></trkpt><trkpt lat="46.5825526044" lon="12.1886776015"><ele>2898.99</ele><time>2013-07-25T09:19:10Z</time></trkpt><trkpt lat="46.5825713798" lon="12.1886671241"><ele>2898.51</ele><time>2013-07-25T09:19:18Z</time></trkpt><trkpt lat="46.5825807676" lon="12.1886648610"><ele>2897.55</ele><time>2013-07-25T09:19:26Z</time></trkpt><trkpt lat="46.5825776663" lon="12.1886651125"><ele>2895.63</ele><time>2013-07-25T09:19:38Z</time></trkpt><trkpt lat="46.5825776663" lon="12.1886651125"><ele>2895.63</ele><time>2013-07-25T09:19:48Z</time></trkpt><trkpt lat="46.5825819410" lon="12.1886491030"><ele>2895.15</ele><time>2013-07-25T09:19:58Z</time></trkpt><trkpt lat="46.5825799294" lon="12.1886422299"><ele>2894.19</ele><time>2013-07-25T09:20:08Z</time></trkpt><trkpt lat="46.5825781692" lon="12.1886342671"><ele>2894.19</ele><time>2013-07-25T09:20:19Z</time></trkpt><trkpt lat="46.5825778339" lon="12.1886363626"><ele>2893.71</ele><time>2013-07-25T09:20:32Z</time></trkpt><trkpt lat="46.5825778339" lon="12.1886363626"><ele>2892.26</ele><time>2013-07-25T09:20:41Z</time></trkpt><trkpt lat="46.5825778339" lon="12.1886363626"><ele>2891.78</ele><time>2013-07-25T09:20:50Z</time></trkpt><trkpt lat="46.5825778339" lon="12.1886363626"><ele>2889.86</ele><time>2013-07-25T09:21:01Z</time></trkpt><trkpt lat="46.5825803485" lon="12.1886382904"><ele>2888.90</ele><time>2013-07-25T09:21:11Z</time></trkpt><trkpt lat="46.5825873055" lon="12.1886283159"><ele>2888.90</ele><time>2013-07-25T09:21:22Z</time></trkpt><trkpt lat="46.5826062486" lon="12.1886094566"><ele>2887.46</ele><time>2013-07-25T09:21:33Z</time></trkpt><trkpt lat="46.5826062486" lon="12.1886094566"><ele>2886.50</ele><time>2013-07-25T09:21:50Z</time></trkpt><trkpt lat="46.5826261975" lon="12.1885572374"><ele>2886.02</ele><time>2013-07-25T09:21:58Z</time></trkpt><trkpt lat="46.5826839488" lon="12.1883714944"><ele>2884.09</ele><time>2013-07-25T09:22:09Z</time></trkpt><trkpt lat="46.5826605633" lon="12.1883032657"><ele>2882.17</ele><time>2013-07-25T09:22:17Z</time></trkpt><trkpt lat="46.5826273710" lon="12.1882341150"><ele>2880.73</ele><time>2013-07-25T09:22:25Z</time></trkpt><trkpt lat="46.5825941786" lon="12.1882274933"><ele>2879.77</ele><time>2013-07-25T09:22:29Z</time></trkpt><trkpt lat="46.5825743973" lon="12.1882010065"><ele>2878.81</ele><time>2013-07-25T09:22:32Z</time></trkpt><trkpt lat="46.5825163946" lon="12.1881026030"><ele>2878.32</ele><time>2013-07-25T09:22:42Z</time></trkpt><trkpt lat="46.5824754909" lon="12.1881016809"><ele>2876.40</ele><time>2013-07-25T09:22:53Z</time></trkpt><trkpt lat="46.5824616607" lon="12.1880941372"><ele>2875.44</ele><time>2013-07-25T09:23:05Z</time></trkpt><trkpt lat="46.5824282169" lon="12.1880599391"><ele>2875.92</ele><time>2013-07-25T09:23:15Z</time></trkpt><trkpt lat="46.5824282169" lon="12.1880599391"><ele>2875.44</ele><time>2013-07-25T09:23:18Z</time></trkpt><trkpt lat="46.5824261215" lon="12.1880658064"><ele>2876.40</ele><time>2013-07-25T09:23:25Z</time></trkpt><trkpt lat="46.5824220981" lon="12.1880500484"><ele>2877.36</ele><time>2013-07-25T09:23:33Z</time></trkpt><trkpt lat="46.5824181587" lon="12.1880381461"><ele>2877.84</ele><time>2013-07-25T09:23:35Z</time></trkpt><trkpt lat="46.5824161470" lon="12.1880236454"><ele>2879.29</ele><time>2013-07-25T09:23:45Z</time></trkpt><trkpt lat="46.5824161470" lon="12.1880236454"><ele>2879.29</ele><time>2013-07-25T09:23:59Z</time></trkpt><trkpt lat="46.5824161470" lon="12.1880236454"><ele>2879.77</ele><time>2013-07-25T09:24:12Z</time></trkpt><trkpt lat="46.5824108664" lon="12.1880140062"><ele>2879.29</ele><time>2013-07-25T09:24:36Z</time></trkpt><trkpt lat="46.5824108664" lon="12.1880140062"><ele>2880.25</ele><time>2013-07-25T09:24:54Z</time></trkpt><trkpt lat="46.5823448170" lon="12.1879800595"><ele>2879.77</ele><time>2013-07-25T09:25:03Z</time></trkpt><trkpt lat="46.5823274665" lon="12.1879357193"><ele>2881.69</ele><time>2013-07-25T09:25:12Z</time></trkpt><trkpt lat="46.5823274665" lon="12.1879357193"><ele>2883.61</ele><time>2013-07-25T09:25:20Z</time></trkpt><trkpt lat="46.5823274665" lon="12.1879357193"><ele>2883.61</ele><time>2013-07-25T09:25:21Z</time></trkpt><trkpt lat="46.5822403785" lon="12.1878541633"><ele>2886.02</ele><time>2013-07-25T09:25:31Z</time></trkpt><trkpt lat="46.5821931884" lon="12.1877917182"><ele>2886.02</ele><time>2013-07-25T09:25:39Z</time></trkpt><trkpt lat="46.5821751673" lon="12.1877689194"><ele>2886.50</ele><time>2013-07-25T09:25:42Z</time></trkpt><trkpt lat="46.5821220260" lon="12.1876901295"><ele>2887.46</ele><time>2013-07-25T09:25:50Z</time></trkpt><trkpt lat="46.5820991434" lon="12.1876583621"><ele>2887.46</ele><time>2013-07-25T09:25:53Z</time></trkpt><trkpt lat="46.5820592456" lon="12.1876099147"><ele>2887.46</ele><time>2013-07-25T09:26:00Z</time></trkpt><trkpt lat="46.5819941182" lon="12.1875664126"><ele>2888.90</ele><time>2013-07-25T09:26:08Z</time></trkpt><trkpt lat="46.5819481015" lon="12.1875384171"><ele>2888.90</ele><time>2013-07-25T09:26:16Z</time></trkpt><trkpt lat="46.5819194354" lon="12.1875065658"><ele>2890.82</ele><time>2013-07-25T09:26:28Z</time></trkpt><trkpt lat="46.5818776935" lon="12.1874888800"><ele>2891.78</ele><time>2013-07-25T09:26:36Z</time></trkpt><trkpt lat="46.5818220377" lon="12.1875126008"><ele>2891.78</ele><time>2013-07-25T09:26:47Z</time></trkpt><trkpt lat="46.5817807987" lon="12.1874991897"><ele>2892.26</ele><time>2013-07-25T09:27:00Z</time></trkpt><trkpt lat="46.5817656275" lon="12.1874373313"><ele>2893.71</ele><time>2013-07-25T09:27:07Z</time></trkpt><trkpt lat="46.5817508753" lon="12.1873954218"><ele>2896.11</ele><time>2013-07-25T09:27:18Z</time></trkpt><trkpt lat="46.5817328542" lon="12.1873844415"><ele>2896.59</ele><time>2013-07-25T09:27:21Z</time></trkpt><trkpt lat="46.5816760249" lon="12.1873324737"><ele>2897.07</ele><time>2013-07-25T09:27:31Z</time></trkpt><trkpt lat="46.5816491190" lon="12.1873187274"><ele>2896.59</ele><time>2013-07-25T09:27:41Z</time></trkpt><trkpt lat="46.5816551540" lon="12.1872586291"><ele>2896.11</ele><time>2013-07-25T09:27:50Z</time></trkpt><trkpt lat="46.5816370491" lon="12.1870676894"><ele>2896.59</ele><time>2013-07-25T09:27:59Z</time></trkpt><trkpt lat="46.5816375520" lon="12.1870180685"><ele>2897.07</ele><time>2013-07-25T09:28:07Z</time></trkpt><trkpt lat="46.5816313494" lon="12.1870102733"><ele>2898.03</ele><time>2013-07-25T09:28:16Z</time></trkpt><trkpt lat="46.5815735143" lon="12.1869527735"><ele>2898.51</ele><time>2013-07-25T09:28:26Z</time></trkpt><trkpt lat="46.5815443452" lon="12.1869461518"><ele>2900.92</ele><time>2013-07-25T09:28:35Z</time></trkpt><trkpt lat="46.5815234743" lon="12.1869336627"><ele>2901.88</ele><time>2013-07-25T09:28:46Z</time></trkpt><trkpt lat="46.5814985801" lon="12.1868807729"><ele>2904.28</ele><time>2013-07-25T09:28:55Z</time></trkpt><trkpt lat="46.5814883541" lon="12.1868257038"><ele>2905.24</ele><time>2013-07-25T09:29:03Z</time></trkpt><trkpt lat="46.5814797208" lon="12.1868078504"><ele>2906.68</ele><time>2013-07-25T09:29:11Z</time></trkpt><trkpt lat="46.5814651363" lon="12.1867676172"><ele>2907.16</ele><time>2013-07-25T09:29:19Z</time></trkpt><trkpt lat="46.5814527310" lon="12.1867311560"><ele>2907.65</ele><time>2013-07-25T09:29:29Z</time></trkpt><trkpt lat="46.5814037807" lon="12.1866531204"><ele>2908.13</ele><time>2013-07-25T09:29:39Z</time></trkpt><trkpt lat="46.5813942254" lon="12.1866370272"><ele>2910.05</ele><time>2013-07-25T09:29:50Z</time></trkpt><trkpt lat="46.5813433472" lon="12.1865696367"><ele>2911.49</ele><time>2013-07-25T09:30:00Z</time></trkpt><trkpt lat="46.5812986717" lon="12.1865336783"><ele>2912.93</ele><time>2013-07-25T09:30:11Z</time></trkpt><trkpt lat="46.5812302753" lon="12.1865641885"><ele>2913.89</ele><time>2013-07-25T09:30:21Z</time></trkpt><trkpt lat="46.5812057164" lon="12.1865821257"><ele>2914.37</ele><time>2013-07-25T09:30:36Z</time></trkpt><trkpt lat="46.5812057164" lon="12.1865821257"><ele>2916.30</ele><time>2013-07-25T09:30:51Z</time></trkpt><trkpt lat="46.5812057164" lon="12.1865821257"><ele>2916.78</ele><time>2013-07-25T09:31:00Z</time></trkpt><trkpt lat="46.5811887011" lon="12.1865610871"><ele>2916.78</ele><time>2013-07-25T09:31:07Z</time></trkpt><trkpt lat="46.5811838396" lon="12.1865542978"><ele>2916.78</ele><time>2013-07-25T09:31:25Z</time></trkpt><trkpt lat="46.5811389964" lon="12.1864540502"><ele>2916.78</ele><time>2013-07-25T09:31:36Z</time></trkpt><trkpt lat="46.5811200533" lon="12.1864100453"><ele>2918.22</ele><time>2013-07-25T09:31:42Z</time></trkpt><trkpt lat="46.5810968354" lon="12.1863640286"><ele>2920.14</ele><time>2013-07-25T09:31:51Z</time></trkpt><trkpt lat="46.5810541715" lon="12.1862877533"><ele>2920.62</ele><time>2013-07-25T09:32:01Z</time></trkpt><trkpt lat="46.5810191352" lon="12.1862398926"><ele>2922.54</ele><time>2013-07-25T09:32:11Z</time></trkpt><trkpt lat="46.5810191352" lon="12.1862398926"><ele>2924.95</ele><time>2013-07-25T09:32:22Z</time></trkpt><trkpt lat="46.5809600428" lon="12.1862111427"><ele>2925.43</ele><time>2013-07-25T09:32:31Z</time></trkpt><trkpt lat="46.5809600428" lon="12.1862111427"><ele>2924.95</ele><time>2013-07-25T09:32:43Z</time></trkpt><trkpt lat="46.5809835959" lon="12.1861152537"><ele>2925.43</ele><time>2013-07-25T09:32:52Z</time></trkpt><trkpt lat="46.5809928160" lon="12.1860829834"><ele>2925.91</ele><time>2013-07-25T09:32:54Z</time></trkpt><trkpt lat="46.5810053051" lon="12.1860444266"><ele>2927.35</ele><time>2013-07-25T09:33:03Z</time></trkpt><trkpt lat="46.5810303669" lon="12.1860331111"><ele>2928.31</ele><time>2013-07-25T09:33:12Z</time></trkpt><trkpt lat="46.5810638946" lon="12.1860519703"><ele>2930.24</ele><time>2013-07-25T09:33:21Z</time></trkpt><trkpt lat="46.5810918901" lon="12.1860434208"><ele>2930.72</ele><time>2013-07-25T09:33:30Z</time></trkpt><trkpt lat="46.5811030380" lon="12.1860463545"><ele>2932.64</ele><time>2013-07-25T09:33:38Z</time></trkpt><trkpt lat="46.5811165329" lon="12.1860544849"><ele>2933.60</ele><time>2013-07-25T09:33:50Z</time></trkpt><trkpt lat="46.5811283514" lon="12.1860664710"><ele>2935.04</ele><time>2013-07-25T09:33:59Z</time></trkpt><trkpt lat="46.5811540000" lon="12.1860716678"><ele>2936.00</ele><time>2013-07-25T09:34:08Z</time></trkpt><trkpt lat="46.5811833367" lon="12.1860699914"><ele>2936.48</ele><time>2013-07-25T09:34:15Z</time></trkpt><trkpt lat="46.5811833367" lon="12.1860699914"><ele>2936.97</ele><time>2013-07-25T09:34:37Z</time></trkpt><trkpt lat="46.5812291019" lon="12.1860676445"><ele>2937.45</ele><time>2013-07-25T09:34:49Z</time></trkpt><trkpt lat="46.5812718496" lon="12.1860536467"><ele>2939.37</ele><time>2013-07-25T09:34:58Z</time></trkpt><trkpt lat="46.5813067183" lon="12.1860504616"><ele>2939.85</ele><time>2013-07-25T09:35:08Z</time></trkpt><trkpt lat="46.5813100711" lon="12.1860498749"><ele>2939.85</ele><time>2013-07-25T09:35:20Z</time></trkpt><trkpt lat="46.5813608654" lon="12.1860352065"><ele>2939.37</ele><time>2013-07-25T09:35:30Z</time></trkpt><trkpt lat="46.5813608654" lon="12.1860352065"><ele>2939.37</ele><time>2013-07-25T09:35:44Z</time></trkpt><trkpt lat="46.5813648887" lon="12.1860360447"><ele>2942.73</ele><time>2013-07-25T09:35:51Z</time></trkpt><trkpt lat="46.5813666489" lon="12.1860430855"><ele>2939.37</ele><time>2013-07-25T09:35:52Z</time></trkpt><trkpt lat="46.5813648049" lon="12.1860505454"><ele>2938.41</ele><time>2013-07-25T09:36:04Z</time></trkpt><trkpt lat="46.5813648049" lon="12.1860505454"><ele>2938.41</ele><time>2013-07-25T09:36:27Z</time></trkpt><trkpt lat="46.5813662298" lon="12.1860506292"><ele>2942.73</ele><time>2013-07-25T09:36:47Z</time></trkpt><trkpt lat="46.5813662298" lon="12.1860506292"><ele>2938.89</ele><time>2013-07-25T09:36:48Z</time></trkpt><trkpt lat="46.5813662298" lon="12.1860506292"><ele>2938.41</ele><time>2013-07-25T09:36:58Z</time></trkpt><trkpt lat="46.5813662298" lon="12.1860506292"><ele>2943.21</ele><time>2013-07-25T09:37:01Z</time></trkpt><trkpt lat="46.5813662298" lon="12.1860506292"><ele>2938.89</ele><time>2013-07-25T09:37:02Z</time></trkpt><trkpt lat="46.5813662298" lon="12.1860506292"><ele>2934.56</ele><time>2013-07-25T09:37:04Z</time></trkpt><trkpt lat="46.5813662298" lon="12.1860506292"><ele>2930.72</ele><time>2013-07-25T09:37:05Z</time></trkpt><trkpt lat="46.5813662298" lon="12.1860506292"><ele>2940.81</ele><time>2013-07-25T09:37:06Z</time></trkpt><trkpt lat="46.5813662298" lon="12.1860506292"><ele>2938.89</ele><time>2013-07-25T09:37:07Z</time></trkpt><trkpt lat="46.5813708398" lon="12.1860554907"><ele>2938.89</ele><time>2013-07-25T09:37:16Z</time></trkpt><trkpt lat="46.5813708398" lon="12.1860554907"><ele>2935.04</ele><time>2013-07-25T09:37:18Z</time></trkpt><trkpt lat="46.5813708398" lon="12.1860554907"><ele>2936.48</ele><time>2013-07-25T09:37:19Z</time></trkpt><trkpt lat="46.5813708398" lon="12.1860554907"><ele>2936.48</ele><time>2013-07-25T09:37:28Z</time></trkpt><trkpt lat="46.5813708398" lon="12.1860554907"><ele>2938.89</ele><time>2013-07-25T09:37:30Z</time></trkpt><trkpt lat="46.5813708398" lon="12.1860554907"><ele>2937.45</ele><time>2013-07-25T09:37:32Z</time></trkpt><trkpt lat="46.5813714266" lon="12.1860542335"><ele>2937.93</ele><time>2013-07-25T09:37:54Z</time></trkpt><trkpt lat="46.5813714266" lon="12.1860542335"><ele>2938.41</ele><time>2013-07-25T09:38:18Z</time></trkpt><trkpt lat="46.5813715942" lon="12.1860456001"><ele>2937.93</ele><time>2013-07-25T09:38:36Z</time></trkpt><trkpt lat="46.5813715942" lon="12.1860456001"><ele>2938.41</ele><time>2013-07-25T09:38:54Z</time></trkpt><trkpt lat="46.5813731030" lon="12.1860436723"><ele>2937.45</ele><time>2013-07-25T09:39:15Z</time></trkpt><trkpt lat="46.5813731030" lon="12.1860436723"><ele>2937.45</ele><time>2013-07-25T09:39:37Z</time></trkpt><trkpt lat="46.5813751984" lon="12.1860424988"><ele>2936.97</ele><time>2013-07-25T09:40:03Z</time></trkpt><trkpt lat="46.5813751984" lon="12.1860424988"><ele>2937.45</ele><time>2013-07-25T09:40:27Z</time></trkpt><trkpt lat="46.5813758690" lon="12.1860424988"><ele>2936.48</ele><time>2013-07-25T09:40:47Z</time></trkpt><trkpt lat="46.5813758690" lon="12.1860424988"><ele>2936.97</ele><time>2013-07-25T09:41:12Z</time></trkpt><trkpt lat="46.5813764557" lon="12.1860425826"><ele>2937.45</ele><time>2013-07-25T09:41:37Z</time></trkpt><trkpt lat="46.5813766234" lon="12.1860616934"><ele>2938.41</ele><time>2013-07-25T09:41:53Z</time></trkpt><trkpt lat="46.5813767072" lon="12.1860547364"><ele>2937.93</ele><time>2013-07-25T09:42:11Z</time></trkpt><trkpt lat="46.5813767072" lon="12.1860547364"><ele>2938.41</ele><time>2013-07-25T09:42:31Z</time></trkpt><trkpt lat="46.5813769586" lon="12.1860522218"><ele>2938.41</ele><time>2013-07-25T09:42:51Z</time></trkpt><trkpt lat="46.5813701693" lon="12.1860187780"><ele>2936.97</ele><time>2013-07-25T09:43:02Z</time></trkpt><trkpt lat="46.5814071335" lon="12.1859747730"><ele>2935.04</ele><time>2013-07-25T09:43:13Z</time></trkpt><trkpt lat="46.5814146772" lon="12.1859770361"><ele>2935.04</ele><time>2013-07-25T09:43:14Z</time></trkpt><trkpt lat="46.5814334527" lon="12.1859769523"><ele>2934.08</ele><time>2013-07-25T09:43:16Z</time></trkpt><trkpt lat="46.5814628731" lon="12.1859507170"><ele>2935.04</ele><time>2013-07-25T09:43:20Z</time></trkpt><trkpt lat="46.5814772900" lon="12.1859133337"><ele>2935.52</ele><time>2013-07-25T09:43:28Z</time></trkpt><trkpt lat="46.5814863425" lon="12.1858932171"><ele>2934.56</ele><time>2013-07-25T09:43:38Z</time></trkpt><trkpt lat="46.5815218817" lon="12.1858719271"><ele>2933.12</ele><time>2013-07-25T09:43:48Z</time></trkpt><trkpt lat="46.5815249830" lon="12.1858695801"><ele>2932.64</ele><time>2013-07-25T09:43:49Z</time></trkpt><trkpt lat="46.5815745201" lon="12.1858223062"><ele>2931.20</ele><time>2013-07-25T09:43:58Z</time></trkpt><trkpt lat="46.5816393122" lon="12.1858112421"><ele>2929.75</ele><time>2013-07-25T09:44:07Z</time></trkpt><trkpt lat="46.5816585906" lon="12.1858010162"><ele>2929.27</ele><time>2013-07-25T09:44:09Z</time></trkpt><trkpt lat="46.5817104746" lon="12.1857647225"><ele>2927.35</ele><time>2013-07-25T09:44:19Z</time></trkpt><trkpt lat="46.5817389730" lon="12.1857334580"><ele>2925.91</ele><time>2013-07-25T09:44:28Z</time></trkpt><trkpt lat="46.5817828104" lon="12.1857135091"><ele>2923.51</ele><time>2013-07-25T09:44:37Z</time></trkpt><trkpt lat="46.5817920305" lon="12.1856888663"><ele>2923.51</ele><time>2013-07-25T09:44:39Z</time></trkpt><trkpt lat="46.5817982331" lon="12.1856323723"><ele>2923.03</ele><time>2013-07-25T09:44:51Z</time></trkpt><trkpt lat="46.5818500333" lon="12.1856491361"><ele>2921.10</ele><time>2013-07-25T09:45:04Z</time></trkpt><trkpt lat="46.5818902664" lon="12.1856044605"><ele>2919.18</ele><time>2013-07-25T09:45:12Z</time></trkpt><trkpt lat="46.5819458384" lon="12.1855851822"><ele>2916.30</ele><time>2013-07-25T09:45:23Z</time></trkpt><trkpt lat="46.5819786955" lon="12.1856321208"><ele>2915.34</ele><time>2013-07-25T09:45:32Z</time></trkpt><trkpt lat="46.5819962136" lon="12.1856363956"><ele>2912.93</ele><time>2013-07-25T09:45:43Z</time></trkpt><trkpt lat="46.5820392966" lon="12.1856182907"><ele>2910.53</ele><time>2013-07-25T09:45:52Z</time></trkpt><trkpt lat="46.5820474271" lon="12.1855896246"><ele>2910.53</ele><time>2013-07-25T09:45:56Z</time></trkpt><trkpt lat="46.5820634365" lon="12.1855654847"><ele>2909.09</ele><time>2013-07-25T09:45:59Z</time></trkpt><trkpt lat="46.5821031667" lon="12.1854950767"><ele>2906.68</ele><time>2013-07-25T09:46:10Z</time></trkpt><trkpt lat="46.5821394604" lon="12.1854647342"><ele>2904.76</ele><time>2013-07-25T09:46:19Z</time></trkpt><trkpt lat="46.5821748320" lon="12.1854949091"><ele>2902.84</ele><time>2013-07-25T09:46:29Z</time></trkpt><trkpt lat="46.5822136402" lon="12.1854238305"><ele>2899.95</ele><time>2013-07-25T09:46:38Z</time></trkpt><trkpt lat="46.5822455753" lon="12.1854557656"><ele>2898.51</ele><time>2013-07-25T09:46:46Z</time></trkpt><trkpt lat="46.5822713077" lon="12.1854625549"><ele>2896.59</ele><time>2013-07-25T09:46:57Z</time></trkpt><trkpt lat="46.5823115408" lon="12.1853601281"><ele>2893.23</ele><time>2013-07-25T09:47:07Z</time></trkpt><trkpt lat="46.5823710524" lon="12.1853136085"><ele>2890.82</ele><time>2013-07-25T09:47:18Z</time></trkpt><trkpt lat="46.5824085195" lon="12.1852433681"><ele>2888.42</ele><time>2013-07-25T09:47:29Z</time></trkpt><trkpt lat="46.5824440587" lon="12.1852178033"><ele>2886.98</ele><time>2013-07-25T09:47:38Z</time></trkpt><trkpt lat="46.5824836213" lon="12.1851793304"><ele>2884.57</ele><time>2013-07-25T09:47:46Z</time></trkpt><trkpt lat="46.5824999660" lon="12.1851201542"><ele>2884.09</ele><time>2013-07-25T09:47:56Z</time></trkpt><trkpt lat="46.5824999660" lon="12.1851201542"><ele>2883.13</ele><time>2013-07-25T09:48:15Z</time></trkpt><trkpt lat="46.5825066715" lon="12.1851048153"><ele>2883.13</ele><time>2013-07-25T09:48:34Z</time></trkpt><trkpt lat="46.5824988764" lon="12.1851015463"><ele>2882.65</ele><time>2013-07-25T09:48:44Z</time></trkpt><trkpt lat="46.5824920870" lon="12.1851125266"><ele>2881.69</ele><time>2013-07-25T09:48:53Z</time></trkpt><trkpt lat="46.5824821126" lon="12.1851189807"><ele>2880.25</ele><time>2013-07-25T09:49:02Z</time></trkpt><trkpt lat="46.5824828669" lon="12.1851144545"><ele>2879.77</ele><time>2013-07-25T09:49:13Z</time></trkpt><trkpt lat="46.5824858006" lon="12.1851002891"><ele>2879.29</ele><time>2013-07-25T09:49:25Z</time></trkpt><trkpt lat="46.5824610740" lon="12.1850966848"><ele>2877.84</ele><time>2013-07-25T09:49:36Z</time></trkpt><trkpt lat="46.5824557934" lon="12.1850907337"><ele>2877.36</ele><time>2013-07-25T09:49:43Z</time></trkpt><trkpt lat="46.5824373532" lon="12.1850956790"><ele>2875.44</ele><time>2013-07-25T09:49:53Z</time></trkpt><trkpt lat="46.5824298095" lon="12.1850985289"><ele>2873.52</ele><time>2013-07-25T09:50:05Z</time></trkpt><trkpt lat="46.5823813621" lon="12.1851244289"><ele>2870.63</ele><time>2013-07-25T09:50:13Z</time></trkpt><trkpt lat="46.5823138878" lon="12.1851235069"><ele>2869.67</ele><time>2013-07-25T09:50:21Z</time></trkpt><trkpt lat="46.5822875686" lon="12.1851237584"><ele>2868.23</ele><time>2013-07-25T09:50:30Z</time></trkpt><trkpt lat="46.5822544601" lon="12.1851275302"><ele>2866.31</ele><time>2013-07-25T09:50:40Z</time></trkpt><trkpt lat="46.5822316613" lon="12.1851043124"><ele>2864.39</ele><time>2013-07-25T09:50:51Z</time></trkpt><trkpt lat="46.5822223574" lon="12.1850776579"><ele>2862.94</ele><time>2013-07-25T09:51:02Z</time></trkpt><trkpt lat="46.5821953677" lon="12.1850674320"><ele>2861.50</ele><time>2013-07-25T09:51:13Z</time></trkpt><trkpt lat="46.5821811184" lon="12.1850486565"><ele>2860.54</ele><time>2013-07-25T09:51:24Z</time></trkpt><trkpt lat="46.5821684618" lon="12.1850375086"><ele>2858.62</ele><time>2013-07-25T09:51:35Z</time></trkpt><trkpt lat="46.5821700543" lon="12.1850316413"><ele>2857.18</ele><time>2013-07-25T09:51:47Z</time></trkpt><trkpt lat="46.5821817890" lon="12.1850154642"><ele>2855.25</ele><time>2013-07-25T09:51:56Z</time></trkpt><trkpt lat="46.5821851417" lon="12.1849634964"><ele>2854.29</ele><time>2013-07-25T09:52:06Z</time></trkpt><trkpt lat="46.5821506921" lon="12.1849067509"><ele>2853.33</ele><time>2013-07-25T09:52:15Z</time></trkpt><trkpt lat="46.5821514465" lon="12.1848816890"><ele>2852.85</ele><time>2013-07-25T09:52:25Z</time></trkpt><trkpt lat="46.5821592417" lon="12.1848669369"><ele>2851.89</ele><time>2013-07-25T09:52:33Z</time></trkpt><trkpt lat="46.5821741614" lon="12.1848500054"><ele>2851.41</ele><time>2013-07-25T09:52:45Z</time></trkpt><trkpt lat="46.5821780171" lon="12.1848418750"><ele>2851.41</ele><time>2013-07-25T09:52:47Z</time></trkpt><trkpt lat="46.5822280571" lon="12.1847534459"><ele>2850.45</ele><time>2013-07-25T09:52:58Z</time></trkpt><trkpt lat="46.5822369419" lon="12.1847599000"><ele>2849.97</ele><time>2013-07-25T09:53:06Z</time></trkpt><trkpt lat="46.5822426416" lon="12.1847410407"><ele>2849.00</ele><time>2013-07-25T09:53:20Z</time></trkpt><trkpt lat="46.5822426416" lon="12.1847410407"><ele>2848.52</ele><time>2013-07-25T09:53:35Z</time></trkpt><trkpt lat="46.5822470002" lon="12.1847423818"><ele>2848.04</ele><time>2013-07-25T09:53:44Z</time></trkpt><trkpt lat="46.5822684579" lon="12.1847619954"><ele>2847.08</ele><time>2013-07-25T09:53:54Z</time></trkpt><trkpt lat="46.5822799411" lon="12.1847699583"><ele>2847.08</ele><time>2013-07-25T09:54:04Z</time></trkpt><trkpt lat="46.5822948609" lon="12.1847650968"><ele>2846.12</ele><time>2013-07-25T09:54:11Z</time></trkpt><trkpt lat="46.5823348425" lon="12.1847438905"><ele>2845.16</ele><time>2013-07-25T09:54:20Z</time></trkpt><trkpt lat="46.5823391173" lon="12.1847269591"><ele>2842.76</ele><time>2013-07-25T09:54:29Z</time></trkpt><trkpt lat="46.5823403746" lon="12.1847221814"><ele>2842.76</ele><time>2013-07-25T09:54:30Z</time></trkpt><trkpt lat="46.5823464934" lon="12.1847205888"><ele>2842.76</ele><time>2013-07-25T09:54:39Z</time></trkpt><trkpt lat="46.5823562164" lon="12.1847124584"><ele>2841.79</ele><time>2013-07-25T09:54:48Z</time></trkpt><trkpt lat="46.5823678672" lon="12.1846951917"><ele>2839.87</ele><time>2013-07-25T09:54:59Z</time></trkpt><trkpt lat="46.5823747404" lon="12.1847106144"><ele>2838.91</ele><time>2013-07-25T09:55:06Z</time></trkpt><trkpt lat="46.5823795181" lon="12.1847024839"><ele>2838.43</ele><time>2013-07-25T09:55:15Z</time></trkpt><trkpt lat="46.5823894925" lon="12.1846678667"><ele>2836.03</ele><time>2013-07-25T09:55:24Z</time></trkpt><trkpt lat="46.5823931806" lon="12.1846573055"><ele>2835.06</ele><time>2013-07-25T09:55:31Z</time></trkpt><trkpt lat="46.5824097767" lon="12.1846449003"><ele>2833.62</ele><time>2013-07-25T09:55:39Z</time></trkpt><trkpt lat="46.5824461542" lon="12.1846028231"><ele>2832.66</ele><time>2013-07-25T09:55:48Z</time></trkpt><trkpt lat="46.5824628342" lon="12.1845842991"><ele>2831.22</ele><time>2013-07-25T09:55:55Z</time></trkpt><trkpt lat="46.5824659355" lon="12.1845728997"><ele>2830.74</ele><time>2013-07-25T09:56:03Z</time></trkpt><trkpt lat="46.5824886505" lon="12.1845146455"><ele>2830.26</ele><time>2013-07-25T09:56:11Z</time></trkpt><trkpt lat="46.5824925900" lon="12.1844561398"><ele>2828.34</ele><time>2013-07-25T09:56:23Z</time></trkpt><trkpt lat="46.5825024806" lon="12.1844190080"><ele>2826.89</ele><time>2013-07-25T09:56:34Z</time></trkpt><trkpt lat="46.5825072583" lon="12.1843615081"><ele>2827.37</ele><time>2013-07-25T09:56:42Z</time></trkpt><trkpt lat="46.5825313982" lon="12.1843323391"><ele>2826.41</ele><time>2013-07-25T09:56:51Z</time></trkpt><trkpt lat="46.5825496707" lon="12.1843175869"><ele>2824.97</ele><time>2013-07-25T09:57:00Z</time></trkpt><trkpt lat="46.5825821925" lon="12.1842920221"><ele>2824.01</ele><time>2013-07-25T09:57:08Z</time></trkpt><trkpt lat="46.5825991239" lon="12.1842595842"><ele>2822.57</ele><time>2013-07-25T09:57:18Z</time></trkpt><trkpt lat="46.5826044884" lon="12.1841913555"><ele>2821.61</ele><time>2013-07-25T09:57:29Z</time></trkpt><trkpt lat="46.5826885588" lon="12.1841595042"><ele>2822.09</ele><time>2013-07-25T09:57:38Z</time></trkpt><trkpt lat="46.5826980304" lon="12.1841584984"><ele>2822.09</ele><time>2013-07-25T09:57:39Z</time></trkpt><trkpt lat="46.5827732999" lon="12.1840939578"><ele>2822.57</ele><time>2013-07-25T09:57:50Z</time></trkpt><trkpt lat="46.5828052349" lon="12.1840175986"><ele>2823.05</ele><time>2013-07-25T09:58:02Z</time></trkpt><trkpt lat="46.5828256030" lon="12.1840073727"><ele>2822.57</ele><time>2013-07-25T09:58:19Z</time></trkpt><trkpt lat="46.5828613099" lon="12.1840149164"><ele>2821.13</ele><time>2013-07-25T09:58:27Z</time></trkpt><trkpt lat="46.5828648303" lon="12.1840268187"><ele>2821.13</ele><time>2013-07-25T09:58:42Z</time></trkpt><trkpt lat="46.5829122718" lon="12.1840166766"><ele>2819.68</ele><time>2013-07-25T09:58:55Z</time></trkpt><trkpt lat="46.5829527564" lon="12.1840052772"><ele>2818.72</ele><time>2013-07-25T09:59:04Z</time></trkpt><trkpt lat="46.5829810873" lon="12.1839810535"><ele>2816.80</ele><time>2013-07-25T09:59:13Z</time></trkpt><trkpt lat="46.5829975158" lon="12.1839469392"><ele>2815.36</ele><time>2013-07-25T09:59:23Z</time></trkpt><trkpt lat="46.5830008686" lon="12.1839435864"><ele>2814.40</ele><time>2013-07-25T09:59:25Z</time></trkpt><trkpt lat="46.5830033831" lon="12.1839310136"><ele>2813.92</ele><time>2013-07-25T09:59:33Z</time></trkpt><trkpt lat="46.5830191411" lon="12.1839000005"><ele>2811.99</ele><time>2013-07-25T09:59:43Z</time></trkpt><trkpt lat="46.5830405988" lon="12.1838803031"><ele>2811.51</ele><time>2013-07-25T09:59:55Z</time></trkpt><trkpt lat="46.5830472205" lon="12.1838686522"><ele>2810.07</ele><time>2013-07-25T10:00:06Z</time></trkpt><trkpt lat="46.5830680914" lon="12.1838575043"><ele>2809.11</ele><time>2013-07-25T10:00:15Z</time></trkpt><trkpt lat="46.5831182152" lon="12.1838320233"><ele>2807.67</ele><time>2013-07-25T10:00:26Z</time></trkpt><trkpt lat="46.5831388347" lon="12.1838317718"><ele>2807.19</ele><time>2013-07-25T10:00:32Z</time></trkpt><trkpt lat="46.5831468813" lon="12.1838182770"><ele>2806.71</ele><time>2013-07-25T10:00:41Z</time></trkpt><trkpt lat="46.5831468813" lon="12.1838182770"><ele>2806.71</ele><time>2013-07-25T10:01:02Z</time></trkpt><trkpt lat="46.5831658244" lon="12.1837910358"><ele>2806.23</ele><time>2013-07-25T10:01:17Z</time></trkpt><trkpt lat="46.5832022857" lon="12.1837803908"><ele>2806.23</ele><time>2013-07-25T10:01:28Z</time></trkpt><trkpt lat="46.5832179599" lon="12.1837734338"><ele>2805.75</ele><time>2013-07-25T10:01:39Z</time></trkpt><trkpt lat="46.5832459554" lon="12.1837497130"><ele>2804.30</ele><time>2013-07-25T10:01:51Z</time></trkpt><trkpt lat="46.5832438599" lon="12.1837493777"><ele>2804.78</ele><time>2013-07-25T10:02:05Z</time></trkpt><trkpt lat="46.5832450334" lon="12.1837447677"><ele>2804.78</ele><time>2013-07-25T10:02:18Z</time></trkpt><trkpt lat="46.5832466260" lon="12.1837525629"><ele>2803.34</ele><time>2013-07-25T10:02:25Z</time></trkpt><trkpt lat="46.5832466260" lon="12.1837525629"><ele>2804.30</ele><time>2013-07-25T10:02:33Z</time></trkpt><trkpt lat="46.5832458716" lon="12.1837581787"><ele>2804.30</ele><time>2013-07-25T10:02:43Z</time></trkpt><trkpt lat="46.5832783096" lon="12.1837357990"><ele>2803.82</ele><time>2013-07-25T10:02:54Z</time></trkpt><trkpt lat="46.5832897089" lon="12.1837061271"><ele>2803.82</ele><time>2013-07-25T10:03:01Z</time></trkpt><trkpt lat="46.5833038744" lon="12.1836896148"><ele>2802.86</ele><time>2013-07-25T10:03:12Z</time></trkpt><trkpt lat="46.5833375696" lon="12.1836930513"><ele>2803.82</ele><time>2013-07-25T10:03:19Z</time></trkpt><trkpt lat="46.5833374020" lon="12.1836932190"><ele>2803.34</ele><time>2013-07-25T10:03:30Z</time></trkpt><trkpt lat="46.5833721031" lon="12.1836152673"><ele>2803.34</ele><time>2013-07-25T10:03:38Z</time></trkpt><trkpt lat="46.5834116656" lon="12.1835415065"><ele>2803.34</ele><time>2013-07-25T10:03:49Z</time></trkpt><trkpt lat="46.5834424272" lon="12.1835153550"><ele>2804.30</ele><time>2013-07-25T10:03:56Z</time></trkpt><trkpt lat="46.5834836662" lon="12.1834571846"><ele>2805.75</ele><time>2013-07-25T10:04:05Z</time></trkpt><trkpt lat="46.5834992565" lon="12.1834633034"><ele>2807.67</ele><time>2013-07-25T10:04:16Z</time></trkpt><trkpt lat="46.5835385676" lon="12.1834527422"><ele>2809.11</ele><time>2013-07-25T10:04:26Z</time></trkpt><trkpt lat="46.5835595224" lon="12.1834431030"><ele>2810.07</ele><time>2013-07-25T10:04:37Z</time></trkpt><trkpt lat="46.5835684910" lon="12.1834410913"><ele>2810.55</ele><time>2013-07-25T10:04:53Z</time></trkpt><trkpt lat="46.5835882723" lon="12.1834395826"><ele>2810.55</ele><time>2013-07-25T10:04:55Z</time></trkpt><trkpt lat="46.5836829040" lon="12.1834055521"><ele>2810.07</ele><time>2013-07-25T10:05:05Z</time></trkpt><trkpt lat="46.5837471932" lon="12.1834150236"><ele>2811.03</ele><time>2013-07-25T10:05:14Z</time></trkpt><trkpt lat="46.5837597661" lon="12.1834499761"><ele>2812.96</ele><time>2013-07-25T10:05:18Z</time></trkpt><trkpt lat="46.5838114824" lon="12.1834190469"><ele>2813.44</ele><time>2013-07-25T10:05:27Z</time></trkpt><trkpt lat="46.5838643722" lon="12.1834052168"><ele>2811.99</ele><time>2013-07-25T10:05:36Z</time></trkpt><trkpt lat="46.5838745981" lon="12.1834076475"><ele>2811.51</ele><time>2013-07-25T10:05:45Z</time></trkpt><trkpt lat="46.5838772804" lon="12.1833917219"><ele>2811.51</ele><time>2013-07-25T10:05:54Z</time></trkpt><trkpt lat="46.5838848241" lon="12.1833820827"><ele>2811.03</ele><time>2013-07-25T10:05:57Z</time></trkpt><trkpt lat="46.5838865843" lon="12.1833522432"><ele>2810.55</ele><time>2013-07-25T10:06:08Z</time></trkpt><trkpt lat="46.5838865843" lon="12.1833522432"><ele>2810.55</ele><time>2013-07-25T10:06:33Z</time></trkpt><trkpt lat="46.5838866681" lon="12.1833690908"><ele>2811.03</ele><time>2013-07-25T10:06:53Z</time></trkpt><trkpt lat="46.5838866681" lon="12.1833690908"><ele>2811.03</ele><time>2013-07-25T10:07:05Z</time></trkpt><trkpt lat="46.5839392226" lon="12.1833861060"><ele>2811.03</ele><time>2013-07-25T10:07:11Z</time></trkpt><trkpt lat="46.5839662962" lon="12.1833504830"><ele>2811.03</ele><time>2013-07-25T10:07:15Z</time></trkpt><trkpt lat="46.5839979798" lon="12.1833592001"><ele>2810.07</ele><time>2013-07-25T10:07:24Z</time></trkpt><trkpt lat="46.5840226226" lon="12.1833381616"><ele>2808.15</ele><time>2013-07-25T10:07:33Z</time></trkpt><trkpt lat="46.5840434935" lon="12.1833405085"><ele>2807.19</ele><time>2013-07-25T10:07:40Z</time></trkpt><trkpt lat="46.5840434935" lon="12.1833405085"><ele>2805.75</ele><time>2013-07-25T10:07:50Z</time></trkpt><trkpt lat="46.5840434935" lon="12.1833405085"><ele>2804.78</ele><time>2013-07-25T10:08:00Z</time></trkpt><trkpt lat="46.5840434935" lon="12.1833405085"><ele>2802.86</ele><time>2013-07-25T10:08:10Z</time></trkpt><trkpt lat="46.5840491094" lon="12.1833410114"><ele>2801.90</ele><time>2013-07-25T10:08:18Z</time></trkpt><trkpt lat="46.5841468424" lon="12.1832827572"><ele>2800.46</ele><time>2013-07-25T10:08:26Z</time></trkpt><trkpt lat="46.5841650311" lon="12.1832982637"><ele>2799.02</ele><time>2013-07-25T10:08:35Z</time></trkpt><trkpt lat="46.5841917694" lon="12.1832474694"><ele>2798.05</ele><time>2013-07-25T10:08:44Z</time></trkpt><trkpt lat="46.5842138138" lon="12.1832462121"><ele>2796.61</ele><time>2013-07-25T10:08:53Z</time></trkpt><trkpt lat="46.5842138138" lon="12.1832462121"><ele>2795.65</ele><time>2013-07-25T10:08:56Z</time></trkpt><trkpt lat="46.5842601657" lon="12.1832563542"><ele>2794.21</ele><time>2013-07-25T10:09:04Z</time></trkpt><trkpt lat="46.5842601657" lon="12.1832563542"><ele>2792.77</ele><time>2013-07-25T10:09:14Z</time></trkpt><trkpt lat="46.5842601657" lon="12.1832563542"><ele>2791.33</ele><time>2013-07-25T10:09:23Z</time></trkpt><trkpt lat="46.5842601657" lon="12.1832563542"><ele>2790.84</ele><time>2013-07-25T10:09:32Z</time></trkpt><trkpt lat="46.5842874907" lon="12.1832157020"><ele>2789.40</ele><time>2013-07-25T10:09:43Z</time></trkpt><trkpt lat="46.5842983034" lon="12.1832140256"><ele>2788.92</ele><time>2013-07-25T10:09:52Z</time></trkpt><trkpt lat="46.5843284782" lon="12.1832082421"><ele>2787.96</ele><time>2013-07-25T10:10:01Z</time></trkpt><trkpt lat="46.5843563061" lon="12.1831850242"><ele>2786.04</ele><time>2013-07-25T10:10:13Z</time></trkpt><trkpt lat="46.5843563061" lon="12.1831850242"><ele>2783.63</ele><time>2013-07-25T10:10:23Z</time></trkpt><trkpt lat="46.5844335034" lon="12.1831198130"><ele>2783.15</ele><time>2013-07-25T10:10:31Z</time></trkpt><trkpt lat="46.5844479203" lon="12.1831071563"><ele>2780.75</ele><time>2013-07-25T10:10:41Z</time></trkpt><trkpt lat="46.5844479203" lon="12.1831071563"><ele>2781.23</ele><time>2013-07-25T10:10:54Z</time></trkpt><trkpt lat="46.5844479203" lon="12.1831071563"><ele>2780.75</ele><time>2013-07-25T10:11:03Z</time></trkpt><trkpt lat="46.5844487585" lon="12.1831056476"><ele>2781.71</ele><time>2013-07-25T10:11:25Z</time></trkpt><trkpt lat="46.5844801068" lon="12.1830494888"><ele>2781.23</ele><time>2013-07-25T10:11:38Z</time></trkpt><trkpt lat="46.5845090244" lon="12.1830359939"><ele>2779.31</ele><time>2013-07-25T10:11:49Z</time></trkpt><trkpt lat="46.5845227707" lon="12.1830359101"><ele>2777.87</ele><time>2013-07-25T10:11:59Z</time></trkpt><trkpt lat="46.5845449828" lon="12.1829874627"><ele>2776.91</ele><time>2013-07-25T10:12:05Z</time></trkpt><trkpt lat="46.5845845453" lon="12.1829553600"><ele>2777.39</ele><time>2013-07-25T10:12:13Z</time></trkpt><trkpt lat="46.5846638381" lon="12.1828966029"><ele>2777.87</ele><time>2013-07-25T10:12:25Z</time></trkpt><trkpt lat="46.5846689511" lon="12.1828595549"><ele>2778.35</ele><time>2013-07-25T10:12:34Z</time></trkpt><trkpt lat="46.5846578032" lon="12.1828445513"><ele>2779.79</ele><time>2013-07-25T10:12:44Z</time></trkpt><trkpt lat="46.5846578032" lon="12.1828445513"><ele>2780.27</ele><time>2013-07-25T10:12:57Z</time></trkpt><trkpt lat="46.5846502595" lon="12.1828406118"><ele>2780.75</ele><time>2013-07-25T10:13:05Z</time></trkpt><trkpt lat="46.5846502595" lon="12.1828406118"><ele>2782.19</ele><time>2013-07-25T10:13:15Z</time></trkpt><trkpt lat="46.5846502595" lon="12.1828406118"><ele>2784.12</ele><time>2013-07-25T10:13:26Z</time></trkpt><trkpt lat="46.5846502595" lon="12.1828406118"><ele>2784.60</ele><time>2013-07-25T10:13:36Z</time></trkpt><trkpt lat="46.5846460685" lon="12.1828378458"><ele>2786.04</ele><time>2013-07-25T10:13:48Z</time></trkpt><trkpt lat="46.5846460685" lon="12.1828378458"><ele>2787.00</ele><time>2013-07-25T10:14:03Z</time></trkpt><trkpt lat="46.5846460685" lon="12.1828378458"><ele>2788.92</ele><time>2013-07-25T10:14:15Z</time></trkpt><trkpt lat="46.5846331604" lon="12.1828234289"><ele>2790.84</ele><time>2013-07-25T10:14:28Z</time></trkpt><trkpt lat="46.5846331604" lon="12.1828234289"><ele>2792.29</ele><time>2013-07-25T10:14:38Z</time></trkpt><trkpt lat="46.5846331604" lon="12.1828234289"><ele>2793.73</ele><time>2013-07-25T10:14:49Z</time></trkpt><trkpt lat="46.5846115351" lon="12.1828011330"><ele>2794.69</ele><time>2013-07-25T10:15:05Z</time></trkpt><trkpt lat="46.5846115351" lon="12.1828011330"><ele>2796.13</ele><time>2013-07-25T10:15:15Z</time></trkpt><trkpt lat="46.5846115351" lon="12.1828011330"><ele>2796.61</ele><time>2013-07-25T10:15:25Z</time></trkpt><trkpt lat="46.5846115351" lon="12.1828011330"><ele>2797.09</ele><time>2013-07-25T10:15:36Z</time></trkpt><trkpt lat="46.5846040752" lon="12.1827928349"><ele>2798.54</ele><time>2013-07-25T10:15:46Z</time></trkpt><trkpt lat="46.5845951065" lon="12.1827742271"><ele>2799.50</ele><time>2013-07-25T10:15:55Z</time></trkpt><trkpt lat="46.5845504310" lon="12.1826869715"><ele>2800.46</ele><time>2013-07-25T10:16:03Z</time></trkpt><trkpt lat="46.5844696295" lon="12.1825409587"><ele>2801.42</ele><time>2013-07-25T10:16:15Z</time></trkpt><trkpt lat="46.5844807774" lon="12.1824813634"><ele>2802.38</ele><time>2013-07-25T10:16:24Z</time></trkpt><trkpt lat="46.5844807774" lon="12.1824813634"><ele>2803.34</ele><time>2013-07-25T10:16:35Z</time></trkpt><trkpt lat="46.5844666958" lon="12.1824537870"><ele>2805.26</ele><time>2013-07-25T10:16:46Z</time></trkpt><trkpt lat="46.5844666958" lon="12.1824537870"><ele>2805.75</ele><time>2013-07-25T10:16:55Z</time></trkpt><trkpt lat="46.5845833719" lon="12.1822484303"><ele>2807.19</ele><time>2013-07-25T10:17:07Z</time></trkpt><trkpt lat="46.5845985431" lon="12.1822263859"><ele>2807.67</ele><time>2013-07-25T10:17:17Z</time></trkpt><trkpt lat="46.5846706275" lon="12.1821757592"><ele>2806.71</ele><time>2013-07-25T10:17:28Z</time></trkpt><trkpt lat="46.5846645925" lon="12.1821154095"><ele>2805.75</ele><time>2013-07-25T10:17:37Z</time></trkpt><trkpt lat="46.5846576355" lon="12.1820423193"><ele>2804.78</ele><time>2013-07-25T10:17:48Z</time></trkpt><trkpt lat="46.5846396144" lon="12.1820423193"><ele>2803.34</ele><time>2013-07-25T10:17:56Z</time></trkpt><trkpt lat="46.5845789295" lon="12.1819998231"><ele>2804.30</ele><time>2013-07-25T10:18:06Z</time></trkpt><trkpt lat="46.5845153108" lon="12.1819426585"><ele>2805.26</ele><time>2013-07-25T10:18:14Z</time></trkpt><trkpt lat="46.5844796039" lon="12.1818609349"><ele>2805.75</ele><time>2013-07-25T10:18:22Z</time></trkpt><trkpt lat="46.5844768379" lon="12.1818306763"><ele>2805.26</ele><time>2013-07-25T10:18:24Z</time></trkpt><trkpt lat="46.5844760835" lon="12.1817589272"><ele>2805.26</ele><time>2013-07-25T10:18:29Z</time></trkpt><trkpt lat="46.5844680369" lon="12.1817326080"><ele>2805.26</ele><time>2013-07-25T10:18:31Z</time></trkpt><trkpt lat="46.5844823699" lon="12.1816500463"><ele>2806.23</ele><time>2013-07-25T10:18:40Z</time></trkpt><trkpt lat="46.5844823699" lon="12.1816500463"><ele>2805.75</ele><time>2013-07-25T10:18:59Z</time></trkpt><trkpt lat="46.5845127124" lon="12.1815284248"><ele>2807.19</ele><time>2013-07-25T10:19:09Z</time></trkpt><trkpt lat="46.5845282190" lon="12.1814537421"><ele>2808.63</ele><time>2013-07-25T10:19:20Z</time></trkpt><trkpt lat="46.5845265426" lon="12.1814157721"><ele>2810.07</ele><time>2013-07-25T10:19:29Z</time></trkpt><trkpt lat="46.5845015645" lon="12.1813541651"><ele>2811.03</ele><time>2013-07-25T10:19:38Z</time></trkpt><trkpt lat="46.5845125448" lon="12.1812975034"><ele>2812.96</ele><time>2013-07-25T10:19:48Z</time></trkpt><trkpt lat="46.5844930988" lon="12.1812390815"><ele>2814.40</ele><time>2013-07-25T10:19:59Z</time></trkpt><trkpt lat="46.5844917577" lon="12.1811742056"><ele>2815.84</ele><time>2013-07-25T10:20:08Z</time></trkpt><trkpt lat="46.5844921768" lon="12.1811103355"><ele>2816.80</ele><time>2013-07-25T10:20:20Z</time></trkpt><trkpt lat="46.5845082700" lon="12.1810341440"><ele>2819.20</ele><time>2013-07-25T10:20:31Z</time></trkpt><trkpt lat="46.5845130477" lon="12.1809870377"><ele>2820.16</ele><time>2013-07-25T10:20:41Z</time></trkpt><trkpt lat="46.5845205076" lon="12.1809808351"><ele>2821.61</ele><time>2013-07-25T10:20:52Z</time></trkpt><trkpt lat="46.5845314879" lon="12.1809466369"><ele>2823.53</ele><time>2013-07-25T10:21:01Z</time></trkpt><trkpt lat="46.5845318232" lon="12.1808939986"><ele>2824.49</ele><time>2013-07-25T10:21:10Z</time></trkpt><trkpt lat="46.5845307335" lon="12.1808697749"><ele>2824.97</ele><time>2013-07-25T10:21:21Z</time></trkpt><trkpt lat="46.5845252015" lon="12.1808315534"><ele>2826.41</ele><time>2013-07-25T10:21:30Z</time></trkpt><trkpt lat="46.5845371038" lon="12.1807858720"><ele>2827.37</ele><time>2013-07-25T10:21:40Z</time></trkpt><trkpt lat="46.5845497604" lon="12.1807736345"><ele>2829.30</ele><time>2013-07-25T10:21:48Z</time></trkpt><trkpt lat="46.5845392831" lon="12.1807453874"><ele>2830.26</ele><time>2013-07-25T10:21:56Z</time></trkpt><trkpt lat="46.5845369361" lon="12.1807284560"><ele>2830.74</ele><time>2013-07-25T10:22:08Z</time></trkpt><trkpt lat="46.5845272969" lon="12.1807038132"><ele>2831.70</ele><time>2013-07-25T10:22:24Z</time></trkpt><trkpt lat="46.5845497604" lon="12.1806458104"><ele>2833.14</ele><time>2013-07-25T10:22:36Z</time></trkpt><trkpt lat="46.5845883172" lon="12.1806567907"><ele>2835.55</ele><time>2013-07-25T10:22:49Z</time></trkpt><trkpt lat="46.5846254490" lon="12.1806783322"><ele>2836.51</ele><time>2013-07-25T10:23:00Z</time></trkpt><trkpt lat="46.5846293047" lon="12.1806791704"><ele>2836.99</ele><time>2013-07-25T10:23:20Z</time></trkpt><trkpt lat="46.5846577194" lon="12.1806751471"><ele>2837.95</ele><time>2013-07-25T10:23:28Z</time></trkpt><trkpt lat="46.5847002156" lon="12.1806766558"><ele>2836.51</ele><time>2013-07-25T10:23:36Z</time></trkpt><trkpt lat="46.5847620741" lon="12.1806341596"><ele>2835.06</ele><time>2013-07-25T10:23:46Z</time></trkpt><trkpt lat="46.5847944282" lon="12.1806057449"><ele>2833.62</ele><time>2013-07-25T10:23:54Z</time></trkpt><trkpt lat="46.5848254412" lon="12.1805859637"><ele>2831.70</ele><time>2013-07-25T10:24:05Z</time></trkpt><trkpt lat="46.5848715417" lon="12.1805551182"><ele>2829.30</ele><time>2013-07-25T10:24:15Z</time></trkpt><trkpt lat="46.5849341545" lon="12.1805463172"><ele>2828.34</ele><time>2013-07-25T10:24:23Z</time></trkpt><trkpt lat="46.5850022156" lon="12.1805197466"><ele>2827.85</ele><time>2013-07-25T10:24:30Z</time></trkpt><trkpt lat="46.5850809216" lon="12.1804506797"><ele>2826.41</ele><time>2013-07-25T10:24:40Z</time></trkpt><trkpt lat="46.5851305425" lon="12.1804034896"><ele>2825.93</ele><time>2013-07-25T10:24:49Z</time></trkpt><trkpt lat="46.5851343982" lon="12.1803944372"><ele>2825.45</ele><time>2013-07-25T10:24:50Z</time></trkpt><trkpt lat="46.5851480607" lon="12.1803729795"><ele>2825.45</ele><time>2013-07-25T10:24:52Z</time></trkpt><trkpt lat="46.5852269344" lon="12.1803375240"><ele>2824.49</ele><time>2013-07-25T10:25:03Z</time></trkpt><trkpt lat="46.5852655750" lon="12.1802754141"><ele>2822.57</ele><time>2013-07-25T10:25:13Z</time></trkpt><trkpt lat="46.5852831770" lon="12.1802494302"><ele>2821.61</ele><time>2013-07-25T10:25:19Z</time></trkpt><trkpt lat="46.5853131842" lon="12.1802148968"><ele>2821.13</ele><time>2013-07-25T10:25:22Z</time></trkpt><trkpt lat="46.5853685886" lon="12.1801839676"><ele>2821.61</ele><time>2013-07-25T10:25:28Z</time></trkpt><trkpt lat="46.5854099113" lon="12.1801076084"><ele>2820.65</ele><time>2013-07-25T10:25:36Z</time></trkpt><trkpt lat="46.5854268428" lon="12.1800971311"><ele>2820.16</ele><time>2013-07-25T10:25:38Z</time></trkpt><trkpt lat="46.5855089016" lon="12.1800434869"><ele>2820.65</ele><time>2013-07-25T10:25:45Z</time></trkpt><trkpt lat="46.5855685808" lon="12.1799903456"><ele>2820.16</ele><time>2013-07-25T10:25:52Z</time></trkpt><trkpt lat="46.5855876077" lon="12.1799573209"><ele>2819.20</ele><time>2013-07-25T10:25:55Z</time></trkpt><trkpt lat="46.5856420901" lon="12.1799196023"><ele>2819.20</ele><time>2013-07-25T10:26:02Z</time></trkpt><trkpt lat="46.5856627095" lon="12.1798909362"><ele>2818.72</ele><time>2013-07-25T10:26:05Z</time></trkpt><trkpt lat="46.5856927168" lon="12.1798581630"><ele>2817.76</ele><time>2013-07-25T10:26:09Z</time></trkpt><trkpt lat="46.5857313573" lon="12.1797898505"><ele>2816.80</ele><time>2013-07-25T10:26:15Z</time></trkpt><trkpt lat="46.5857482050" lon="12.1797664650"><ele>2816.32</ele><time>2013-07-25T10:26:18Z</time></trkpt><trkpt lat="46.5857891086" lon="12.1796953864"><ele>2814.40</ele><time>2013-07-25T10:26:27Z</time></trkpt><trkpt lat="46.5858376399" lon="12.1796969790"><ele>2812.96</ele><time>2013-07-25T10:26:38Z</time></trkpt><trkpt lat="46.5858246479" lon="12.1796686482"><ele>2811.99</ele><time>2013-07-25T10:26:46Z</time></trkpt><trkpt lat="46.5858100634" lon="12.1796642058"><ele>2812.47</ele><time>2013-07-25T10:26:48Z</time></trkpt><trkpt lat="46.5858110692" lon="12.1795378067"><ele>2810.55</ele><time>2013-07-25T10:26:58Z</time></trkpt><trkpt lat="46.5858223848" lon="12.1794557478"><ele>2808.15</ele><time>2013-07-25T10:27:07Z</time></trkpt><trkpt lat="46.5858516376" lon="12.1794404089"><ele>2807.19</ele><time>2013-07-25T10:27:17Z</time></trkpt><trkpt lat="46.5858761128" lon="12.1794073004"><ele>2806.71</ele><time>2013-07-25T10:27:27Z</time></trkpt><trkpt lat="46.5858767834" lon="12.1794089768"><ele>2806.71</ele><time>2013-07-25T10:27:41Z</time></trkpt><trkpt lat="46.5858922899" lon="12.1793821547"><ele>2806.71</ele><time>2013-07-25T10:27:45Z</time></trkpt><trkpt lat="46.5859098081" lon="12.1793561708"><ele>2806.71</ele><time>2013-07-25T10:27:48Z</time></trkpt><trkpt lat="46.5858651325" lon="12.1792684961"><ele>2806.23</ele><time>2013-07-25T10:27:57Z</time></trkpt><trkpt lat="46.5858510509" lon="12.1792802308"><ele>2805.75</ele><time>2013-07-25T10:27:59Z</time></trkpt><trkpt lat="46.5858475305" lon="12.1792669874"><ele>2806.71</ele><time>2013-07-25T10:28:01Z</time></trkpt><trkpt lat="46.5858848300" lon="12.1791737806"><ele>2805.75</ele><time>2013-07-25T10:28:07Z</time></trkpt><trkpt lat="46.5859331097" lon="12.1790099982"><ele>2803.34</ele><time>2013-07-25T10:28:19Z</time></trkpt><trkpt lat="46.5859522205" lon="12.1789806616"><ele>2802.86</ele><time>2013-07-25T10:28:30Z</time></trkpt><trkpt lat="46.5859842394" lon="12.1789243352"><ele>2801.90</ele><time>2013-07-25T10:28:39Z</time></trkpt><trkpt lat="46.5859829821" lon="12.1789108403"><ele>2801.42</ele><time>2013-07-25T10:28:48Z</time></trkpt><trkpt lat="46.5860028472" lon="12.1788883768"><ele>2800.94</ele><time>2013-07-25T10:28:57Z</time></trkpt><trkpt lat="46.5860234667" lon="12.1788513288"><ele>2801.42</ele><time>2013-07-25T10:29:05Z</time></trkpt><trkpt lat="46.5860518813" lon="12.1787530929"><ele>2800.46</ele><time>2013-07-25T10:29:12Z</time></trkpt><trkpt lat="46.5860710759" lon="12.1787118539"><ele>2799.50</ele><time>2013-07-25T10:29:15Z</time></trkpt><trkpt lat="46.5860892646" lon="12.1786727943"><ele>2799.98</ele><time>2013-07-25T10:29:18Z</time></trkpt><trkpt lat="46.5860924497" lon="12.1786098462"><ele>2799.02</ele><time>2013-07-25T10:29:25Z</time></trkpt><trkpt lat="46.5860763565" lon="12.1785660926"><ele>2797.57</ele><time>2013-07-25T10:29:34Z</time></trkpt><trkpt lat="46.5860506240" lon="12.1785409469"><ele>2797.09</ele><time>2013-07-25T10:29:43Z</time></trkpt><trkpt lat="46.5859793779" lon="12.1785417013"><ele>2796.61</ele><time>2013-07-25T10:29:51Z</time></trkpt><trkpt lat="46.5859656315" lon="12.1785363369"><ele>2796.61</ele><time>2013-07-25T10:29:53Z</time></trkpt><trkpt lat="46.5859508794" lon="12.1784028970"><ele>2797.09</ele><time>2013-07-25T10:30:04Z</time></trkpt><trkpt lat="46.5859669726" lon="12.1782963630"><ele>2795.17</ele><time>2013-07-25T10:30:12Z</time></trkpt><trkpt lat="46.5859701578" lon="12.1782626677"><ele>2794.21</ele><time>2013-07-25T10:30:15Z</time></trkpt><trkpt lat="46.5859492030" lon="12.1781961992"><ele>2792.29</ele><time>2013-07-25T10:30:22Z</time></trkpt><trkpt lat="46.5859305952" lon="12.1781531163"><ele>2792.29</ele><time>2013-07-25T10:30:29Z</time></trkpt><trkpt lat="46.5859239735" lon="12.1781182475"><ele>2791.33</ele><time>2013-07-25T10:30:40Z</time></trkpt><trkpt lat="46.5859381389" lon="12.1781181637"><ele>2790.84</ele><time>2013-07-25T10:30:50Z</time></trkpt><trkpt lat="46.5859381389" lon="12.1781181637"><ele>2790.84</ele><time>2013-07-25T10:31:12Z</time></trkpt><trkpt lat="46.5859394800" lon="12.1781181637"><ele>2790.84</ele><time>2013-07-25T10:31:35Z</time></trkpt><trkpt lat="46.5859394800" lon="12.1781181637"><ele>2791.33</ele><time>2013-07-25T10:31:57Z</time></trkpt><trkpt lat="46.5859423298" lon="12.1780889109"><ele>2791.81</ele><time>2013-07-25T10:32:06Z</time></trkpt><trkpt lat="46.5859450959" lon="12.1780173294"><ele>2791.33</ele><time>2013-07-25T10:32:13Z</time></trkpt><trkpt lat="46.5859378036" lon="12.1779449098"><ele>2789.40</ele><time>2013-07-25T10:32:22Z</time></trkpt><trkpt lat="46.5859552380" lon="12.1778738312"><ele>2787.00</ele><time>2013-07-25T10:32:32Z</time></trkpt><trkpt lat="46.5859953035" lon="12.1778343525"><ele>2785.56</ele><time>2013-07-25T10:32:42Z</time></trkpt><trkpt lat="46.5860134922" lon="12.1778106317"><ele>2784.60</ele><time>2013-07-25T10:32:54Z</time></trkpt><trkpt lat="46.5860356204" lon="12.1777497791"><ele>2783.15</ele><time>2013-07-25T10:33:07Z</time></trkpt><trkpt lat="46.5860523004" lon="12.1776885074"><ele>2781.71</ele><time>2013-07-25T10:33:19Z</time></trkpt><trkpt lat="46.5860695671" lon="12.1776632778"><ele>2780.27</ele><time>2013-07-25T10:33:30Z</time></trkpt><trkpt lat="46.5860756021" lon="12.1776512917"><ele>2779.31</ele><time>2013-07-25T10:33:41Z</time></trkpt><trkpt lat="46.5860929526" lon="12.1775975637"><ele>2777.87</ele><time>2013-07-25T10:33:51Z</time></trkpt><trkpt lat="46.5861036815" lon="12.1775677241"><ele>2776.42</ele><time>2013-07-25T10:34:01Z</time></trkpt><trkpt lat="46.5861212835" lon="12.1775052790"><ele>2775.46</ele><time>2013-07-25T10:34:12Z</time></trkpt><trkpt lat="46.5861089621" lon="12.1774685662"><ele>2773.06</ele><time>2013-07-25T10:34:21Z</time></trkpt><trkpt lat="46.5861158352" lon="12.1774621960"><ele>2773.54</ele><time>2013-07-25T10:34:27Z</time></trkpt><trkpt lat="46.5861495305" lon="12.1774424985"><ele>2774.50</ele><time>2013-07-25T10:34:35Z</time></trkpt><trkpt lat="46.5861495305" lon="12.1774424985"><ele>2776.42</ele><time>2013-07-25T10:34:44Z</time></trkpt><trkpt lat="46.5861584153" lon="12.1774168499"><ele>2775.94</ele><time>2013-07-25T10:34:53Z</time></trkpt><trkpt lat="46.5861680545" lon="12.1774234716"><ele>2776.42</ele><time>2013-07-25T10:35:04Z</time></trkpt><trkpt lat="46.5861671325" lon="12.1774207894"><ele>2775.94</ele><time>2013-07-25T10:35:07Z</time></trkpt><trkpt lat="46.5861249715" lon="12.1773749404"><ele>2774.50</ele><time>2013-07-25T10:35:16Z</time></trkpt><trkpt lat="46.5861102194" lon="12.1773753595"><ele>2774.50</ele><time>2013-07-25T10:35:26Z</time></trkpt><trkpt lat="46.5860518813" lon="12.1774061210"><ele>2774.50</ele><time>2013-07-25T10:35:34Z</time></trkpt><trkpt lat="46.5860343631" lon="12.1774176881"><ele>2774.50</ele><time>2013-07-25T10:35:44Z</time></trkpt><trkpt lat="46.5860343631" lon="12.1774176881"><ele>2773.54</ele><time>2013-07-25T10:35:58Z</time></trkpt><trkpt lat="46.5860343631" lon="12.1774176881"><ele>2773.54</ele><time>2013-07-25T10:36:18Z</time></trkpt><trkpt lat="46.5860357881" lon="12.1774180233"><ele>2773.54</ele><time>2013-07-25T10:36:47Z</time></trkpt><trkpt lat="46.5860205330" lon="12.1773937158"><ele>2774.98</ele><time>2013-07-25T10:37:06Z</time></trkpt><trkpt lat="46.5859947167" lon="12.1773881838"><ele>2774.98</ele><time>2013-07-25T10:37:14Z</time></trkpt><trkpt lat="46.5859647095" lon="12.1773903631"><ele>2775.46</ele><time>2013-07-25T10:37:24Z</time></trkpt><trkpt lat="46.5859647095" lon="12.1773903631"><ele>2776.42</ele><time>2013-07-25T10:37:38Z</time></trkpt><trkpt lat="46.5859647095" lon="12.1773903631"><ele>2776.42</ele><time>2013-07-25T10:37:57Z</time></trkpt><trkpt lat="46.5859580040" lon="12.1773922909"><ele>2777.87</ele><time>2013-07-25T10:38:02Z</time></trkpt><trkpt lat="46.5859361272" lon="12.1773957275"><ele>2778.35</ele><time>2013-07-25T10:38:05Z</time></trkpt><trkpt lat="46.5858912840" lon="12.1773476992"><ele>2779.31</ele><time>2013-07-25T10:38:09Z</time></trkpt><trkpt lat="46.5859246440" lon="12.1771961544"><ele>2778.35</ele><time>2013-07-25T10:38:19Z</time></trkpt><trkpt lat="46.5860052779" lon="12.1770916320"><ele>2776.42</ele><time>2013-07-25T10:38:29Z</time></trkpt><trkpt lat="46.5860262327" lon="12.1770584397"><ele>2774.50</ele><time>2013-07-25T10:38:41Z</time></trkpt><trkpt lat="46.5860547312" lon="12.1770507284"><ele>2773.54</ele><time>2013-07-25T10:38:52Z</time></trkpt><trkpt lat="46.5860547312" lon="12.1770507284"><ele>2771.62</ele><time>2013-07-25T10:39:01Z</time></trkpt><trkpt lat="46.5860545635" lon="12.1770507284"><ele>2769.70</ele><time>2013-07-25T10:39:13Z</time></trkpt><trkpt lat="46.5860547312" lon="12.1770507284"><ele>2768.73</ele><time>2013-07-25T10:39:22Z</time></trkpt><trkpt lat="46.5860598441" lon="12.1770639718"><ele>2767.29</ele><time>2013-07-25T10:39:33Z</time></trkpt><trkpt lat="46.5860598441" lon="12.1770639718"><ele>2766.81</ele><time>2013-07-25T10:39:47Z</time></trkpt><trkpt lat="46.5860595927" lon="12.1770649776"><ele>2765.85</ele><time>2013-07-25T10:39:58Z</time></trkpt><trkpt lat="46.5860644542" lon="12.1770614572"><ele>2764.41</ele><time>2013-07-25T10:40:09Z</time></trkpt><trkpt lat="46.5860781167" lon="12.1769614611"><ele>2763.45</ele><time>2013-07-25T10:40:17Z</time></trkpt><trkpt lat="46.5861163381" lon="12.1769470442"><ele>2762.00</ele><time>2013-07-25T10:40:25Z</time></trkpt><trkpt lat="46.5861187689" lon="12.1768954955"><ele>2760.56</ele><time>2013-07-25T10:40:37Z</time></trkpt><trkpt lat="46.5861244686" lon="12.1768786479"><ele>2759.60</ele><time>2013-07-25T10:40:50Z</time></trkpt><trkpt lat="46.5861251391" lon="12.1768549271"><ele>2758.64</ele><time>2013-07-25T10:41:01Z</time></trkpt><trkpt lat="46.5861229599" lon="12.1765752230"><ele>2758.64</ele><time>2013-07-25T10:41:10Z</time></trkpt><trkpt lat="46.5861083753" lon="12.1765650809"><ele>2752.87</ele><time>2013-07-25T10:42:59Z</time></trkpt><trkpt lat="46.5860595927" lon="12.1765499096"><ele>2753.35</ele><time>2013-07-25T10:43:09Z</time></trkpt><trkpt lat="46.5860197786" lon="12.1765347384"><ele>2754.80</ele><time>2013-07-25T10:43:18Z</time></trkpt><trkpt lat="46.5859413240" lon="12.1765280329"><ele>2755.28</ele><time>2013-07-25T10:43:26Z</time></trkpt><trkpt lat="46.5858501289" lon="12.1763950121"><ele>2754.31</ele><time>2013-07-25T10:43:37Z</time></trkpt><trkpt lat="46.5858501289" lon="12.1763950121"><ele>2753.83</ele><time>2013-07-25T10:43:46Z</time></trkpt><trkpt lat="46.5858557448" lon="12.1763397753"><ele>2752.39</ele><time>2013-07-25T10:43:57Z</time></trkpt><trkpt lat="46.5859025158" lon="12.1762650926"><ele>2752.87</ele><time>2013-07-25T10:44:10Z</time></trkpt><trkpt lat="46.5859103110" lon="12.1762341633"><ele>2751.43</ele><time>2013-07-25T10:44:21Z</time></trkpt><trkpt lat="46.5859150887" lon="12.1762057487"><ele>2749.51</ele><time>2013-07-25T10:44:31Z</time></trkpt><trkpt lat="46.5859142505" lon="12.1761775017"><ele>2749.03</ele><time>2013-07-25T10:44:39Z</time></trkpt><trkpt lat="46.5859147534" lon="12.1761179063"><ele>2748.07</ele><time>2013-07-25T10:44:46Z</time></trkpt><trkpt lat="46.5858984925" lon="12.1760807745"><ele>2746.14</ele><time>2013-07-25T10:44:56Z</time></trkpt><trkpt lat="46.5858945530" lon="12.1760539524"><ele>2745.66</ele><time>2013-07-25T10:45:04Z</time></trkpt><trkpt lat="46.5858361311" lon="12.1760267951"><ele>2745.18</ele><time>2013-07-25T10:45:13Z</time></trkpt><trkpt lat="46.5858210437" lon="12.1760273818"><ele>2744.70</ele><time>2013-07-25T10:45:16Z</time></trkpt><trkpt lat="46.5857887734" lon="12.1759849694"><ele>2742.78</ele><time>2013-07-25T10:45:27Z</time></trkpt><trkpt lat="46.5857936349" lon="12.1759207640"><ele>2742.30</ele><time>2013-07-25T10:45:34Z</time></trkpt><trkpt lat="46.5857964847" lon="12.1758262999"><ele>2741.82</ele><time>2013-07-25T10:45:43Z</time></trkpt><trkpt lat="46.5858150087" lon="12.1757322550"><ele>2741.82</ele><time>2013-07-25T10:45:52Z</time></trkpt><trkpt lat="46.5858123265" lon="12.1757252980"><ele>2741.34</ele><time>2013-07-25T10:45:53Z</time></trkpt><trkpt lat="46.5857720934" lon="12.1757001523"><ele>2741.34</ele><time>2013-07-25T10:46:02Z</time></trkpt><trkpt lat="46.5857773740" lon="12.1756781079"><ele>2741.34</ele><time>2013-07-25T10:46:10Z</time></trkpt><trkpt lat="46.5857769549" lon="12.1756583266"><ele>2741.34</ele><time>2013-07-25T10:46:13Z</time></trkpt><trkpt lat="46.5857929643" lon="12.1755872481"><ele>2740.86</ele><time>2013-07-25T10:46:18Z</time></trkpt><trkpt lat="46.5857743565" lon="12.1755495295"><ele>2741.82</ele><time>2013-07-25T10:46:23Z</time></trkpt><trkpt lat="46.5857660584" lon="12.1755157504"><ele>2741.82</ele><time>2013-07-25T10:46:26Z</time></trkpt><trkpt lat="46.5857241489" lon="12.1754216217"><ele>2743.26</ele><time>2013-07-25T10:46:37Z</time></trkpt><trkpt lat="46.5857283399" lon="12.1754128207"><ele>2743.74</ele><time>2013-07-25T10:46:38Z</time></trkpt><trkpt lat="46.5857228078" lon="12.1753667202"><ele>2743.26</ele><time>2013-07-25T10:46:48Z</time></trkpt><trkpt lat="46.5857199579" lon="12.1753541473"><ele>2742.30</ele><time>2013-07-25T10:47:00Z</time></trkpt><trkpt lat="46.5857170243" lon="12.1753156744"><ele>2742.30</ele><time>2013-07-25T10:47:09Z</time></trkpt><trkpt lat="46.5856967401" lon="12.1752937138"><ele>2741.82</ele><time>2013-07-25T10:47:21Z</time></trkpt><trkpt lat="46.5856947284" lon="12.1753030177"><ele>2741.34</ele><time>2013-07-25T10:47:29Z</time></trkpt><trkpt lat="46.5856947284" lon="12.1753030177"><ele>2741.34</ele><time>2013-07-25T10:47:35Z</time></trkpt><trkpt lat="46.5856424253" lon="12.1751965676"><ele>2741.82</ele><time>2013-07-25T10:47:44Z</time></trkpt><trkpt lat="46.5855994262" lon="12.1751600225"><ele>2741.34</ele><time>2013-07-25T10:47:54Z</time></trkpt><trkpt lat="46.5855887812" lon="12.1751504671"><ele>2741.82</ele><time>2013-07-25T10:48:04Z</time></trkpt><trkpt lat="46.5855843388" lon="12.1751452703"><ele>2741.34</ele><time>2013-07-25T10:48:17Z</time></trkpt><trkpt lat="46.5855861828" lon="12.1751318593"><ele>2742.30</ele><time>2013-07-25T10:48:19Z</time></trkpt><trkpt lat="46.5855742805" lon="12.1750941407"><ele>2742.30</ele><time>2013-07-25T10:48:30Z</time></trkpt><trkpt lat="46.5855742805" lon="12.1750941407"><ele>2741.82</ele><time>2013-07-25T10:48:40Z</time></trkpt><trkpt lat="46.5855843388" lon="12.1750886086"><ele>2741.34</ele><time>2013-07-25T10:48:53Z</time></trkpt><trkpt lat="46.5855764598" lon="12.1751143411"><ele>2740.38</ele><time>2013-07-25T10:49:02Z</time></trkpt><trkpt lat="46.5855764598" lon="12.1751143411"><ele>2741.34</ele><time>2013-07-25T10:49:07Z</time></trkpt><trkpt lat="46.5855611209" lon="12.1751160175"><ele>2740.38</ele><time>2013-07-25T10:49:17Z</time></trkpt><trkpt lat="46.5855365619" lon="12.1750895306"><ele>2738.45</ele><time>2013-07-25T10:49:26Z</time></trkpt><trkpt lat="46.5855264198" lon="12.1750349645"><ele>2738.93</ele><time>2013-07-25T10:49:35Z</time></trkpt><trkpt lat="46.5855180379" lon="12.1749626286"><ele>2739.89</ele><time>2013-07-25T10:49:44Z</time></trkpt><trkpt lat="46.5855068900" lon="12.1749077272"><ele>2738.45</ele><time>2013-07-25T10:49:52Z</time></trkpt><trkpt lat="46.5854964126" lon="12.1748612914"><ele>2737.01</ele><time>2013-07-25T10:50:02Z</time></trkpt><trkpt lat="46.5854959097" lon="12.1747981757"><ele>2736.53</ele><time>2013-07-25T10:50:12Z</time></trkpt><trkpt lat="46.5855065547" lon="12.1747674141"><ele>2735.09</ele><time>2013-07-25T10:50:22Z</time></trkpt><trkpt lat="46.5855103265" lon="12.1747557633"><ele>2733.65</ele><time>2013-07-25T10:50:30Z</time></trkpt><trkpt lat="46.5854966640" lon="12.1746943239"><ele>2731.72</ele><time>2013-07-25T10:50:40Z</time></trkpt><trkpt lat="46.5855051298" lon="12.1746343933"><ele>2729.80</ele><time>2013-07-25T10:50:48Z</time></trkpt><trkpt lat="46.5855244920" lon="12.1745700203"><ele>2727.88</ele><time>2013-07-25T10:50:57Z</time></trkpt><trkpt lat="46.5855394118" lon="12.1745276079"><ele>2725.96</ele><time>2013-07-25T10:51:07Z</time></trkpt><trkpt lat="46.5855489671" lon="12.1744887996"><ele>2725.48</ele><time>2013-07-25T10:51:15Z</time></trkpt><trkpt lat="46.5855579358" lon="12.1744200680"><ele>2723.55</ele><time>2013-07-25T10:51:28Z</time></trkpt><trkpt lat="46.5856009349" lon="12.1743526775"><ele>2721.15</ele><time>2013-07-25T10:51:39Z</time></trkpt><trkpt lat="46.5856014378" lon="12.1742655057"><ele>2719.23</ele><time>2013-07-25T10:51:51Z</time></trkpt><trkpt lat="46.5856534056" lon="12.1741800942"><ele>2717.78</ele><time>2013-07-25T10:52:00Z</time></trkpt><trkpt lat="46.5856725164" lon="12.1741175652"><ele>2716.82</ele><time>2013-07-25T10:52:07Z</time></trkpt><trkpt lat="46.5856720135" lon="12.1740598138"><ele>2714.42</ele><time>2013-07-25T10:52:16Z</time></trkpt><trkpt lat="46.5857233945" lon="12.1739389468"><ele>2712.98</ele><time>2013-07-25T10:52:27Z</time></trkpt><trkpt lat="46.5856980812" lon="12.1739286371"><ele>2712.02</ele><time>2013-07-25T10:52:36Z</time></trkpt><trkpt lat="46.5856961533" lon="12.1739096940"><ele>2711.54</ele><time>2013-07-25T10:52:38Z</time></trkpt><trkpt lat="46.5857052896" lon="12.1738843806"><ele>2710.57</ele><time>2013-07-25T10:52:40Z</time></trkpt><trkpt lat="46.5857211314" lon="12.1738175768"><ele>2709.61</ele><time>2013-07-25T10:52:44Z</time></trkpt><trkpt lat="46.5857939702" lon="12.1737003140"><ele>2708.65</ele><time>2013-07-25T10:52:52Z</time></trkpt><trkpt lat="46.5857964009" lon="12.1736364439"><ele>2709.13</ele><time>2013-07-25T10:52:56Z</time></trkpt><trkpt lat="46.5858440939" lon="12.1735134814"><ele>2711.54</ele><time>2013-07-25T10:53:07Z</time></trkpt><trkpt lat="46.5858492907" lon="12.1734921075"><ele>2711.54</ele><time>2013-07-25T10:53:09Z</time></trkpt><trkpt lat="46.5858700778" lon="12.1734227054"><ele>2712.50</ele><time>2013-07-25T10:53:15Z</time></trkpt><trkpt lat="46.5859233029" lon="12.1733025089"><ele>2711.54</ele><time>2013-07-25T10:53:25Z</time></trkpt><trkpt lat="46.5859279968" lon="12.1732928697"><ele>2711.54</ele><time>2013-07-25T10:53:37Z</time></trkpt><trkpt lat="46.5859328583" lon="12.1732912771"><ele>2711.06</ele><time>2013-07-25T10:53:48Z</time></trkpt><trkpt lat="46.5859413240" lon="12.1732813865"><ele>2710.09</ele><time>2013-07-25T10:53:57Z</time></trkpt><trkpt lat="46.5859413240" lon="12.1732813865"><ele>2710.09</ele><time>2013-07-25T10:53:59Z</time></trkpt><trkpt lat="46.5859241411" lon="12.1732588392"><ele>2709.61</ele><time>2013-07-25T10:54:06Z</time></trkpt><trkpt lat="46.5859136637" lon="12.1731839050"><ele>2708.65</ele><time>2013-07-25T10:54:17Z</time></trkpt><trkpt lat="46.5858922061" lon="12.1731430013"><ele>2707.21</ele><time>2013-07-25T10:54:24Z</time></trkpt><trkpt lat="46.5858878475" lon="12.1731067076"><ele>2706.73</ele><time>2013-07-25T10:54:34Z</time></trkpt><trkpt lat="46.5858818963" lon="12.1731098089"><ele>2705.77</ele><time>2013-07-25T10:54:46Z</time></trkpt><trkpt lat="46.5858671442" lon="12.1731164306"><ele>2705.29</ele><time>2013-07-25T10:54:55Z</time></trkpt><trkpt lat="46.5858691558" lon="12.1730738506"><ele>2703.85</ele><time>2013-07-25T10:55:05Z</time></trkpt><trkpt lat="46.5858401544" lon="12.1730103157"><ele>2703.36</ele><time>2013-07-25T10:55:11Z</time></trkpt><trkpt lat="46.5858230554" lon="12.1729102358"><ele>2702.40</ele><time>2013-07-25T10:55:20Z</time></trkpt><trkpt lat="46.5858129133" lon="12.1728392411"><ele>2701.44</ele><time>2013-07-25T10:55:28Z</time></trkpt><trkpt lat="46.5858044475" lon="12.1727978345"><ele>2700.00</ele><time>2013-07-25T10:55:37Z</time></trkpt><trkpt lat="46.5858200379" lon="12.1727952361"><ele>2698.08</ele><time>2013-07-25T10:55:46Z</time></trkpt><trkpt lat="46.5858200379" lon="12.1727952361"><ele>2698.08</ele><time>2013-07-25T10:55:48Z</time></trkpt><trkpt lat="46.5857972391" lon="12.1727791429"><ele>2697.12</ele><time>2013-07-25T10:55:57Z</time></trkpt><trkpt lat="46.5857933834" lon="12.1727707610"><ele>2696.64</ele><time>2013-07-25T10:56:01Z</time></trkpt><trkpt lat="46.5857667290" lon="12.1726990957"><ele>2694.23</ele><time>2013-07-25T10:56:09Z</time></trkpt><trkpt lat="46.5857886057" lon="12.1725614648"><ele>2693.27</ele><time>2013-07-25T10:56:19Z</time></trkpt><trkpt lat="46.5857962333" lon="12.1724702697"><ele>2691.35</ele><time>2013-07-25T10:56:29Z</time></trkpt><trkpt lat="46.5858223010" lon="12.1723901387"><ele>2689.43</ele><time>2013-07-25T10:56:40Z</time></trkpt><trkpt lat="46.5858583432" lon="12.1722775698"><ele>2688.94</ele><time>2013-07-25T10:56:49Z</time></trkpt><trkpt lat="46.5858642943" lon="12.1722153760"><ele>2686.54</ele><time>2013-07-25T10:56:59Z</time></trkpt><trkpt lat="46.5858563315" lon="12.1722291224"><ele>2686.06</ele><time>2013-07-25T10:57:04Z</time></trkpt><trkpt lat="46.5858455189" lon="12.1721820161"><ele>2684.62</ele><time>2013-07-25T10:57:12Z</time></trkpt><trkpt lat="46.5858403221" lon="12.1721346583"><ele>2683.18</ele><time>2013-07-25T10:57:21Z</time></trkpt><trkpt lat="46.5858394839" lon="12.1721100155"><ele>2682.22</ele><time>2013-07-25T10:57:30Z</time></trkpt><trkpt lat="46.5858211275" lon="12.1720864624"><ele>2680.29</ele><time>2013-07-25T10:57:38Z</time></trkpt><trkpt lat="46.5858005080" lon="12.1720458101"><ele>2679.33</ele><time>2013-07-25T10:57:46Z</time></trkpt><trkpt lat="46.5857839119" lon="12.1720007993"><ele>2678.37</ele><time>2013-07-25T10:57:51Z</time></trkpt><trkpt lat="46.5857778769" lon="12.1719373483"><ele>2676.93</ele><time>2013-07-25T10:58:02Z</time></trkpt><trkpt lat="46.5857809782" lon="12.1719217580"><ele>2677.41</ele><time>2013-07-25T10:58:13Z</time></trkpt><trkpt lat="46.5857744403" lon="12.1719189081"><ele>2676.93</ele><time>2013-07-25T10:58:23Z</time></trkpt><trkpt lat="46.5857753623" lon="12.1719115321"><ele>2676.93</ele><time>2013-07-25T10:58:34Z</time></trkpt><trkpt lat="46.5857753623" lon="12.1719115321"><ele>2676.93</ele><time>2013-07-25T10:58:53Z</time></trkpt><trkpt lat="46.5857765358" lon="12.1718746517"><ele>2676.93</ele><time>2013-07-25T10:59:08Z</time></trkpt><trkpt lat="46.5857765358" lon="12.1718746517"><ele>2676.93</ele><time>2013-07-25T10:59:29Z</time></trkpt><trkpt lat="46.5857765358" lon="12.1718746517"><ele>2677.41</ele><time>2013-07-25T10:59:46Z</time></trkpt><trkpt lat="46.5857914556" lon="12.1718721371"><ele>2676.45</ele><time>2013-07-25T10:59:55Z</time></trkpt><trkpt lat="46.5857914556" lon="12.1718721371"><ele>2676.45</ele><time>2013-07-25T11:00:14Z</time></trkpt><trkpt lat="46.5857934672" lon="12.1718736459"><ele>2676.45</ele><time>2013-07-25T11:00:37Z</time></trkpt><trkpt lat="46.5857934672" lon="12.1718736459"><ele>2676.45</ele><time>2013-07-25T11:00:59Z</time></trkpt><trkpt lat="46.5857960656" lon="12.1718707122"><ele>2676.45</ele><time>2013-07-25T11:01:18Z</time></trkpt><trkpt lat="46.5857960656" lon="12.1718707122"><ele>2676.45</ele><time>2013-07-25T11:01:47Z</time></trkpt><trkpt lat="46.5857980773" lon="12.1718653478"><ele>2676.93</ele><time>2013-07-25T11:02:20Z</time></trkpt><trkpt lat="46.5857989993" lon="12.1718700416"><ele>2676.45</ele><time>2013-07-25T11:02:52Z</time></trkpt><trkpt lat="46.5857989993" lon="12.1718700416"><ele>2677.41</ele><time>2013-07-25T11:03:11Z</time></trkpt><trkpt lat="46.5858118236" lon="12.1718402021"><ele>2678.37</ele><time>2013-07-25T11:03:20Z</time></trkpt><trkpt lat="46.5858118236" lon="12.1718402021"><ele>2678.37</ele><time>2013-07-25T11:03:34Z</time></trkpt><trkpt lat="46.5858118236" lon="12.1718402021"><ele>2678.37</ele><time>2013-07-25T11:03:44Z</time></trkpt><trkpt lat="46.5858015139" lon="12.1718427166"><ele>2677.89</ele><time>2013-07-25T11:03:58Z</time></trkpt><trkpt lat="46.5857941378" lon="12.1718440577"><ele>2677.41</ele><time>2013-07-25T11:04:14Z</time></trkpt><trkpt lat="46.5857471991" lon="12.1717912517"><ele>2675.49</ele><time>2013-07-25T11:04:23Z</time></trkpt><trkpt lat="46.5857167728" lon="12.1717547905"><ele>2673.56</ele><time>2013-07-25T11:04:34Z</time></trkpt><trkpt lat="46.5856771264" lon="12.1716692951"><ele>2670.68</ele><time>2013-07-25T11:04:45Z</time></trkpt><trkpt lat="46.5856595244" lon="12.1716330852"><ele>2671.16</ele><time>2013-07-25T11:04:49Z</time></trkpt><trkpt lat="46.5856472030" lon="12.1715482604"><ele>2669.24</ele><time>2013-07-25T11:04:57Z</time></trkpt><trkpt lat="46.5856373124" lon="12.1715371124"><ele>2669.24</ele><time>2013-07-25T11:05:06Z</time></trkpt><trkpt lat="46.5856500529" lon="12.1715058479"><ele>2668.76</ele><time>2013-07-25T11:05:16Z</time></trkpt><trkpt lat="46.5856270865" lon="12.1714782715"><ele>2667.80</ele><time>2013-07-25T11:05:23Z</time></trkpt><trkpt lat="46.5856010187" lon="12.1714040916"><ele>2666.35</ele><time>2013-07-25T11:05:32Z</time></trkpt><trkpt lat="46.5855453629" lon="12.1713153273"><ele>2664.43</ele><time>2013-07-25T11:05:43Z</time></trkpt><trkpt lat="46.5855345502" lon="12.1712908521"><ele>2663.47</ele><time>2013-07-25T11:05:45Z</time></trkpt><trkpt lat="46.5855072252" lon="12.1711996570"><ele>2661.55</ele><time>2013-07-25T11:05:55Z</time></trkpt><trkpt lat="46.5855200496" lon="12.1712135710"><ele>2661.07</ele><time>2013-07-25T11:06:03Z</time></trkpt><trkpt lat="46.5855303593" lon="12.1712490264"><ele>2659.62</ele><time>2013-07-25T11:06:10Z</time></trkpt><trkpt lat="46.5855114162" lon="12.1713237930"><ele>2657.70</ele><time>2013-07-25T11:06:20Z</time></trkpt><trkpt lat="46.5855305269" lon="12.1713765990"><ele>2655.78</ele><time>2013-07-25T11:06:31Z</time></trkpt><trkpt lat="46.5854950715" lon="12.1714021638"><ele>2654.34</ele><time>2013-07-25T11:06:41Z</time></trkpt><trkpt lat="46.5854306147" lon="12.1714444086"><ele>2652.42</ele><time>2013-07-25T11:06:53Z</time></trkpt><trkpt lat="46.5854094923" lon="12.1714229509"><ele>2650.97</ele><time>2013-07-25T11:06:57Z</time></trkpt><trkpt lat="46.5854161140" lon="12.1713714022"><ele>2650.01</ele><time>2013-07-25T11:07:08Z</time></trkpt><trkpt lat="46.5854058880" lon="12.1713150758"><ele>2649.05</ele><time>2013-07-25T11:07:16Z</time></trkpt><trkpt lat="46.5853838436" lon="12.1713018324"><ele>2648.09</ele><time>2013-07-25T11:07:25Z</time></trkpt><trkpt lat="46.5853695944" lon="12.1712886728"><ele>2646.65</ele><time>2013-07-25T11:07:30Z</time></trkpt><trkpt lat="46.5853669960" lon="12.1712514572"><ele>2646.17</ele><time>2013-07-25T11:07:32Z</time></trkpt><trkpt lat="46.5854337998" lon="12.1711674705"><ele>2646.65</ele><time>2013-07-25T11:07:42Z</time></trkpt><trkpt lat="46.5854280163" lon="12.1711420733"><ele>2645.69</ele><time>2013-07-25T11:07:52Z</time></trkpt><trkpt lat="46.5854181256" lon="12.1711072046"><ele>2646.17</ele><time>2013-07-25T11:08:04Z</time></trkpt><trkpt lat="46.5854337998" lon="12.1710913628"><ele>2646.17</ele><time>2013-07-25T11:08:16Z</time></trkpt><trkpt lat="46.5854545031" lon="12.1710804664"><ele>2645.21</ele><time>2013-07-25T11:08:25Z</time></trkpt><trkpt lat="46.5854545031" lon="12.1710804664"><ele>2645.21</ele><time>2013-07-25T11:08:39Z</time></trkpt><trkpt lat="46.5854545031" lon="12.1710804664"><ele>2643.76</ele><time>2013-07-25T11:08:56Z</time></trkpt><trkpt lat="46.5854600351" lon="12.1710752696"><ele>2643.28</ele><time>2013-07-25T11:09:11Z</time></trkpt><trkpt lat="46.5854600351" lon="12.1710731741"><ele>2642.32</ele><time>2013-07-25T11:09:24Z</time></trkpt><trkpt lat="46.5854609571" lon="12.1710537281"><ele>2642.32</ele><time>2013-07-25T11:09:37Z</time></trkpt><trkpt lat="46.5854586940" lon="12.1710326057"><ele>2641.36</ele><time>2013-07-25T11:09:46Z</time></trkpt><trkpt lat="46.5854596999" lon="12.1710094716"><ele>2639.44</ele><time>2013-07-25T11:09:57Z</time></trkpt><trkpt lat="46.5854602866" lon="12.1710109804"><ele>2638.48</ele><time>2013-07-25T11:10:07Z</time></trkpt><trkpt lat="46.5854602866" lon="12.1710109804"><ele>2637.99</ele><time>2013-07-25T11:10:19Z</time></trkpt><trkpt lat="46.5854602866" lon="12.1710109804"><ele>2637.03</ele><time>2013-07-25T11:10:34Z</time></trkpt><trkpt lat="46.5854434390" lon="12.1710134111"><ele>2636.55</ele><time>2013-07-25T11:10:44Z</time></trkpt><trkpt lat="46.5854455344" lon="12.1710154228"><ele>2635.11</ele><time>2013-07-25T11:10:55Z</time></trkpt><trkpt lat="46.5854432713" lon="12.1710152552"><ele>2633.67</ele><time>2013-07-25T11:11:08Z</time></trkpt><trkpt lat="46.5854335483" lon="12.1710293368"><ele>2632.23</ele><time>2013-07-25T11:11:19Z</time></trkpt><trkpt lat="46.5854218137" lon="12.1710079629"><ele>2631.75</ele><time>2013-07-25T11:11:32Z</time></trkpt><trkpt lat="46.5853752103" lon="12.1708075516"><ele>2629.82</ele><time>2013-07-25T11:11:42Z</time></trkpt><trkpt lat="46.5853600390" lon="12.1707815677"><ele>2628.86</ele><time>2013-07-25T11:11:53Z</time></trkpt><trkpt lat="46.5853452031" lon="12.1707549971"><ele>2627.90</ele><time>2013-07-25T11:12:07Z</time></trkpt><trkpt lat="46.5852903016" lon="12.1707389038"><ele>2625.02</ele><time>2013-07-25T11:12:16Z</time></trkpt><trkpt lat="46.5852676705" lon="12.1707241517"><ele>2624.06</ele><time>2013-07-25T11:12:23Z</time></trkpt><trkpt lat="46.5852421895" lon="12.1707360540"><ele>2622.61</ele><time>2013-07-25T11:12:32Z</time></trkpt><trkpt lat="46.5852110926" lon="12.1707439329"><ele>2622.61</ele><time>2013-07-25T11:12:41Z</time></trkpt><trkpt lat="46.5851729549" lon="12.1707643010"><ele>2619.73</ele><time>2013-07-25T11:12:53Z</time></trkpt><trkpt lat="46.5851450432" lon="12.1707710903"><ele>2618.29</ele><time>2013-07-25T11:13:01Z</time></trkpt><trkpt lat="46.5851080790" lon="12.1708326135"><ele>2617.33</ele><time>2013-07-25T11:13:12Z</time></trkpt><trkpt lat="46.5850747190" lon="12.1710150037"><ele>2614.44</ele><time>2013-07-25T11:13:22Z</time></trkpt><trkpt lat="46.5850039758" lon="12.1710674744"><ele>2612.04</ele><time>2013-07-25T11:13:32Z</time></trkpt><trkpt lat="46.5849661734" lon="12.1711093001"><ele>2610.12</ele><time>2013-07-25T11:13:41Z</time></trkpt><trkpt lat="46.5849624015" lon="12.1711954661"><ele>2608.67</ele><time>2013-07-25T11:13:50Z</time></trkpt><trkpt lat="46.5849458892" lon="12.1712160856"><ele>2606.75</ele><time>2013-07-25T11:13:58Z</time></trkpt><trkpt lat="46.5849309694" lon="12.1712324303"><ele>2605.31</ele><time>2013-07-25T11:14:04Z</time></trkpt><trkpt lat="46.5849235095" lon="12.1712330170"><ele>2604.35</ele><time>2013-07-25T11:14:12Z</time></trkpt><trkpt lat="46.5849168878" lon="12.1712273173"><ele>2604.35</ele><time>2013-07-25T11:14:14Z</time></trkpt><trkpt lat="46.5848651715" lon="12.1712592524"><ele>2601.95</ele><time>2013-07-25T11:14:25Z</time></trkpt><trkpt lat="46.5848561190" lon="12.1713047661"><ele>2599.54</ele><time>2013-07-25T11:14:37Z</time></trkpt><trkpt lat="46.5848355833" lon="12.1712918580"><ele>2599.06</ele><time>2013-07-25T11:14:52Z</time></trkpt><trkpt lat="46.5848322306" lon="12.1713058557"><ele>2598.58</ele><time>2013-07-25T11:15:03Z</time></trkpt><trkpt lat="46.5848329011" lon="12.1713215299"><ele>2597.62</ele><time>2013-07-25T11:15:15Z</time></trkpt><trkpt lat="46.5848244354" lon="12.1713242959"><ele>2597.14</ele><time>2013-07-25T11:15:25Z</time></trkpt><trkpt lat="46.5848002117" lon="12.1713149082"><ele>2595.22</ele><time>2013-07-25T11:15:37Z</time></trkpt><trkpt lat="46.5847880580" lon="12.1713659540"><ele>2593.77</ele><time>2013-07-25T11:15:45Z</time></trkpt><trkpt lat="46.5847666841" lon="12.1713667922"><ele>2591.85</ele><time>2013-07-25T11:15:48Z</time></trkpt><trkpt lat="46.5847525187" lon="12.1713434067"><ele>2591.85</ele><time>2013-07-25T11:15:53Z</time></trkpt><trkpt lat="46.5847256966" lon="12.1713867411"><ele>2589.45</ele><time>2013-07-25T11:16:02Z</time></trkpt><trkpt lat="46.5847083461" lon="12.1713878307"><ele>2588.01</ele><time>2013-07-25T11:16:09Z</time></trkpt><trkpt lat="46.5847039875" lon="12.1713956259"><ele>2586.56</ele><time>2013-07-25T11:16:14Z</time></trkpt><trkpt lat="46.5846692864" lon="12.1714484319"><ele>2585.12</ele><time>2013-07-25T11:16:23Z</time></trkpt><trkpt lat="46.5846297238" lon="12.1714409720"><ele>2583.68</ele><time>2013-07-25T11:16:32Z</time></trkpt><trkpt lat="46.5846248623" lon="12.1714467555"><ele>2583.68</ele><time>2013-07-25T11:16:41Z</time></trkpt><trkpt lat="46.5846188273" lon="12.1714517847"><ele>2582.72</ele><time>2013-07-25T11:16:52Z</time></trkpt><trkpt lat="46.5845899098" lon="12.1715113800"><ele>2580.80</ele><time>2013-07-25T11:17:00Z</time></trkpt><trkpt lat="46.5845778398" lon="12.1715424769"><ele>2579.35</ele><time>2013-07-25T11:17:10Z</time></trkpt><trkpt lat="46.5845667757" lon="12.1715397947"><ele>2577.91</ele><time>2013-07-25T11:17:12Z</time></trkpt><trkpt lat="46.5845506825" lon="12.1715404652"><ele>2577.91</ele><time>2013-07-25T11:17:26Z</time></trkpt><trkpt lat="46.5845506825" lon="12.1715404652"><ele>2576.47</ele><time>2013-07-25T11:17:29Z</time></trkpt><trkpt lat="46.5845403727" lon="12.1715322509"><ele>2575.51</ele><time>2013-07-25T11:17:41Z</time></trkpt><trkpt lat="46.5845326614" lon="12.1715184208"><ele>2575.03</ele><time>2013-07-25T11:17:53Z</time></trkpt><trkpt lat="46.5845164005" lon="12.1715269703"><ele>2573.11</ele><time>2013-07-25T11:17:59Z</time></trkpt><trkpt lat="46.5845101979" lon="12.1715478413"><ele>2573.59</ele><time>2013-07-25T11:18:09Z</time></trkpt><trkpt lat="46.5845023189" lon="12.1715523675"><ele>2573.11</ele><time>2013-07-25T11:18:20Z</time></trkpt><trkpt lat="46.5844866447" lon="12.1715428960"><ele>2571.66</ele><time>2013-07-25T11:18:29Z</time></trkpt><trkpt lat="46.5844821185" lon="12.1715519484"><ele>2571.18</ele><time>2013-07-25T11:18:37Z</time></trkpt><trkpt lat="46.5844820347" lon="12.1715553012"><ele>2571.66</ele><time>2013-07-25T11:18:40Z</time></trkpt><trkpt lat="46.5844641812" lon="12.1715449076"><ele>2570.70</ele><time>2013-07-25T11:18:44Z</time></trkpt><trkpt lat="46.5844762512" lon="12.1715367772"><ele>2569.26</ele><time>2013-07-25T11:18:52Z</time></trkpt><trkpt lat="46.5844785143" lon="12.1715643536"><ele>2568.78</ele><time>2013-07-25T11:18:59Z</time></trkpt><trkpt lat="46.5844635945" lon="12.1715752501"><ele>2567.34</ele><time>2013-07-25T11:19:04Z</time></trkpt><trkpt lat="46.5844539553" lon="12.1715728194"><ele>2566.86</ele><time>2013-07-25T11:19:14Z</time></trkpt><trkpt lat="46.5844443999" lon="12.1715845540"><ele>2565.42</ele><time>2013-07-25T11:19:23Z</time></trkpt><trkpt lat="46.5844270494" lon="12.1716084424"><ele>2563.97</ele><time>2013-07-25T11:19:34Z</time></trkpt><trkpt lat="46.5844004788" lon="12.1716496814"><ele>2561.57</ele><time>2013-07-25T11:19:43Z</time></trkpt><trkpt lat="46.5843848884" lon="12.1716578119"><ele>2560.61</ele><time>2013-07-25T11:19:53Z</time></trkpt><trkpt lat="46.5843271371" lon="12.1716398746"><ele>2560.13</ele><time>2013-07-25T11:20:02Z</time></trkpt><trkpt lat="46.5842988901" lon="12.1716532018"><ele>2557.73</ele><time>2013-07-25T11:20:11Z</time></trkpt><trkpt lat="46.5842763428" lon="12.1716884896"><ele>2555.80</ele><time>2013-07-25T11:20:22Z</time></trkpt><trkpt lat="46.5842597466" lon="12.1717075165"><ele>2553.88</ele><time>2013-07-25T11:20:32Z</time></trkpt><trkpt lat="46.5842506103" lon="12.1717086062"><ele>2553.88</ele><time>2013-07-25T11:20:43Z</time></trkpt><trkpt lat="46.5842306614" lon="12.1717348415"><ele>2551.96</ele><time>2013-07-25T11:20:54Z</time></trkpt><trkpt lat="46.5841777716" lon="12.1718053333"><ele>2550.03</ele><time>2013-07-25T11:21:04Z</time></trkpt><trkpt lat="46.5841486864" lon="12.1718333289"><ele>2548.59</ele><time>2013-07-25T11:21:14Z</time></trkpt><trkpt lat="46.5841297433" lon="12.1718645096"><ele>2547.15</ele><time>2013-07-25T11:21:21Z</time></trkpt><trkpt lat="46.5841265582" lon="12.1718687844"><ele>2545.71</ele><time>2013-07-25T11:21:31Z</time></trkpt><trkpt lat="46.5841242112" lon="12.1718650125"><ele>2545.71</ele><time>2013-07-25T11:21:32Z</time></trkpt><trkpt lat="46.5840792842" lon="12.1719124541"><ele>2543.79</ele><time>2013-07-25T11:21:41Z</time></trkpt><trkpt lat="46.5840652026" lon="12.1719162259"><ele>2542.34</ele><time>2013-07-25T11:21:49Z</time></trkpt><trkpt lat="46.5840510372" lon="12.1719323192"><ele>2541.38</ele><time>2013-07-25T11:21:58Z</time></trkpt><trkpt lat="46.5840289928" lon="12.1719551180"><ele>2540.42</ele><time>2013-07-25T11:22:05Z</time></trkpt><trkpt lat="46.5839618538" lon="12.1719417907"><ele>2538.98</ele><time>2013-07-25T11:22:14Z</time></trkpt><trkpt lat="46.5839191899" lon="12.1719646733"><ele>2536.58</ele><time>2013-07-25T11:22:27Z</time></trkpt><trkpt lat="46.5838830639" lon="12.1719883941"><ele>2535.61</ele><time>2013-07-25T11:22:39Z</time></trkpt><trkpt lat="46.5838550683" lon="12.1719959378"><ele>2534.17</ele><time>2013-07-25T11:22:48Z</time></trkpt><trkpt lat="46.5838020947" lon="12.1720148809"><ele>2532.25</ele><time>2013-07-25T11:22:56Z</time></trkpt><trkpt lat="46.5837858338" lon="12.1720142104"><ele>2532.25</ele><time>2013-07-25T11:23:07Z</time></trkpt><trkpt lat="46.5837885160" lon="12.1719144657"><ele>2531.29</ele><time>2013-07-25T11:23:17Z</time></trkpt><trkpt lat="46.5837865043" lon="12.1719097719"><ele>2529.37</ele><time>2013-07-25T11:23:43Z</time></trkpt><trkpt lat="46.5837129112" lon="12.1718758252"><ele>2530.33</ele><time>2013-07-25T11:28:29Z</time></trkpt><trkpt lat="46.5836836584" lon="12.1718934271"><ele>2530.33</ele><time>2013-07-25T11:28:39Z</time></trkpt><trkpt lat="46.5836842451" lon="12.1717006434"><ele>2530.33</ele><time>2013-07-25T11:28:50Z</time></trkpt><trkpt lat="46.5836710017" lon="12.1716640145"><ele>2530.81</ele><time>2013-07-25T11:28:57Z</time></trkpt><trkpt lat="46.5836223867" lon="12.1716615837"><ele>2532.73</ele><time>2013-07-25T11:29:06Z</time></trkpt><trkpt lat="46.5836007614" lon="12.1715636831"><ele>2533.69</ele><time>2013-07-25T11:29:13Z</time></trkpt><trkpt lat="46.5835885238" lon="12.1714793611"><ele>2532.73</ele><time>2013-07-25T11:29:25Z</time></trkpt><trkpt lat="46.5835706703" lon="12.1714322548"><ele>2532.73</ele><time>2013-07-25T11:29:31Z</time></trkpt><trkpt lat="46.5835389867" lon="12.1713397186"><ele>2532.25</ele><time>2013-07-25T11:29:40Z</time></trkpt><trkpt lat="46.5835109912" lon="12.1712849848"><ele>2532.73</ele><time>2013-07-25T11:29:46Z</time></trkpt><trkpt lat="46.5834881924" lon="12.1711785346"><ele>2530.81</ele><time>2013-07-25T11:29:55Z</time></trkpt><trkpt lat="46.5834881924" lon="12.1711785346"><ele>2529.37</ele><time>2013-07-25T11:30:00Z</time></trkpt><trkpt lat="46.5834881924" lon="12.1711785346"><ele>2530.33</ele><time>2013-07-25T11:30:08Z</time></trkpt><trkpt lat="46.5834881924" lon="12.1711785346"><ele>2528.89</ele><time>2013-07-25T11:30:19Z</time></trkpt><trkpt lat="46.5834881924" lon="12.1711785346"><ele>2526.96</ele><time>2013-07-25T11:30:29Z</time></trkpt><trkpt lat="46.5834912099" lon="12.1711761039"><ele>2525.04</ele><time>2013-07-25T11:30:40Z</time></trkpt><trkpt lat="46.5834897850" lon="12.1711884253"><ele>2524.08</ele><time>2013-07-25T11:30:49Z</time></trkpt><trkpt lat="46.5834363084" lon="12.1712211985"><ele>2522.16</ele><time>2013-07-25T11:30:58Z</time></trkpt><trkpt lat="46.5834102407" lon="12.1711895149"><ele>2521.68</ele><time>2013-07-25T11:31:06Z</time></trkpt><trkpt lat="46.5834010206" lon="12.1711825579"><ele>2520.71</ele><time>2013-07-25T11:31:07Z</time></trkpt><trkpt lat="46.5833142679" lon="12.1711444203"><ele>2521.19</ele><time>2013-07-25T11:31:17Z</time></trkpt><trkpt lat="46.5832448658" lon="12.1711385529"><ele>2523.60</ele><time>2013-07-25T11:31:28Z</time></trkpt><trkpt lat="46.5832250845" lon="12.1711503714"><ele>2525.52</ele><time>2013-07-25T11:31:37Z</time></trkpt><trkpt lat="46.5831499826" lon="12.1711376309"><ele>2526.96</ele><time>2013-07-25T11:31:47Z</time></trkpt><trkpt lat="46.5831226576" lon="12.1709487028"><ele>2525.52</ele><time>2013-07-25T11:31:57Z</time></trkpt><trkpt lat="46.5831887070" lon="12.1708034445"><ele>2523.60</ele><time>2013-07-25T11:32:06Z</time></trkpt><trkpt lat="46.5831891261" lon="12.1707465313"><ele>2522.64</ele><time>2013-07-25T11:32:12Z</time></trkpt><trkpt lat="46.5832176246" lon="12.1707042865"><ele>2520.23</ele><time>2013-07-25T11:32:19Z</time></trkpt><trkpt lat="46.5832239110" lon="12.1706961561"><ele>2520.23</ele><time>2013-07-25T11:32:20Z</time></trkpt><trkpt lat="46.5832426026" lon="12.1706741117"><ele>2518.79</ele><time>2013-07-25T11:32:28Z</time></trkpt><trkpt lat="46.5832427703" lon="12.1706469543"><ele>2517.83</ele><time>2013-07-25T11:32:37Z</time></trkpt><trkpt lat="46.5832427703" lon="12.1706469543"><ele>2516.87</ele><time>2013-07-25T11:32:54Z</time></trkpt><trkpt lat="46.5832427703" lon="12.1706469543"><ele>2514.95</ele><time>2013-07-25T11:33:04Z</time></trkpt><trkpt lat="46.5832438599" lon="12.1706349682"><ele>2514.47</ele><time>2013-07-25T11:33:05Z</time></trkpt><trkpt lat="46.5832842607" lon="12.1705478802"><ele>2513.02</ele><time>2013-07-25T11:33:14Z</time></trkpt><trkpt lat="46.5833125077" lon="12.1705127601"><ele>2511.58</ele><time>2013-07-25T11:33:23Z</time></trkpt><trkpt lat="46.5833332110" lon="12.1704805735"><ele>2509.66</ele><time>2013-07-25T11:33:31Z</time></trkpt><trkpt lat="46.5833464544" lon="12.1703867801"><ele>2508.22</ele><time>2013-07-25T11:33:40Z</time></trkpt><trkpt lat="46.5833516512" lon="12.1702939924"><ele>2506.29</ele><time>2013-07-25T11:33:50Z</time></trkpt><trkpt lat="46.5833457001" lon="12.1702691820"><ele>2504.85</ele><time>2013-07-25T11:33:58Z</time></trkpt><trkpt lat="46.5833462030" lon="12.1701467223"><ele>2503.41</ele><time>2013-07-25T11:34:09Z</time></trkpt><trkpt lat="46.5833500586" lon="12.1701271925"><ele>2502.45</ele><time>2013-07-25T11:34:21Z</time></trkpt><trkpt lat="46.5833500586" lon="12.1701271925"><ele>2501.49</ele><time>2013-07-25T11:34:30Z</time></trkpt><trkpt lat="46.5833203029" lon="12.1700113546"><ele>2499.08</ele><time>2013-07-25T11:34:42Z</time></trkpt><trkpt lat="46.5833178721" lon="12.1699630748"><ele>2496.68</ele><time>2013-07-25T11:34:52Z</time></trkpt><trkpt lat="46.5832914691" lon="12.1699453890"><ele>2495.72</ele><time>2013-07-25T11:35:01Z</time></trkpt><trkpt lat="46.5832925588" lon="12.1698327363"><ele>2494.28</ele><time>2013-07-25T11:35:09Z</time></trkpt><trkpt lat="46.5833260026" lon="12.1697781701"><ele>2493.80</ele><time>2013-07-25T11:35:11Z</time></trkpt><trkpt lat="46.5833102446" lon="12.1697479114"><ele>2493.32</ele><time>2013-07-25T11:35:18Z</time></trkpt><trkpt lat="46.5833120048" lon="12.1697326563"><ele>2492.84</ele><time>2013-07-25T11:35:19Z</time></trkpt><trkpt lat="46.5833037067" lon="12.1696555428"><ele>2491.39</ele><time>2013-07-25T11:35:30Z</time></trkpt><trkpt lat="46.5833037067" lon="12.1696555428"><ele>2491.39</ele><time>2013-07-25T11:35:31Z</time></trkpt><trkpt lat="46.5833072271" lon="12.1696123760"><ele>2490.43</ele><time>2013-07-25T11:35:44Z</time></trkpt><trkpt lat="46.5833325405" lon="12.1695550438"><ele>2489.95</ele><time>2013-07-25T11:35:49Z</time></trkpt><trkpt lat="46.5834056307" lon="12.1695069317"><ele>2488.51</ele><time>2013-07-25T11:35:58Z</time></trkpt><trkpt lat="46.5834551677" lon="12.1694743261"><ele>2487.07</ele><time>2013-07-25T11:36:06Z</time></trkpt><trkpt lat="46.5834680758" lon="12.1694527008"><ele>2486.11</ele><time>2013-07-25T11:36:09Z</time></trkpt><trkpt lat="46.5834894497" lon="12.1694295667"><ele>2486.11</ele><time>2013-07-25T11:36:12Z</time></trkpt><trkpt lat="46.5835192055" lon="12.1693765093"><ele>2486.11</ele><time>2013-07-25T11:36:18Z</time></trkpt><trkpt lat="46.5835725982" lon="12.1693626791"><ele>2487.07</ele><time>2013-07-25T11:36:23Z</time></trkpt><trkpt lat="46.5836262424" lon="12.1693612542"><ele>2488.03</ele><time>2013-07-25T11:36:31Z</time></trkpt><trkpt lat="46.5836492088" lon="12.1693740785"><ele>2488.99</ele><time>2013-07-25T11:36:39Z</time></trkpt><trkpt lat="46.5836575069" lon="12.1693733241"><ele>2488.99</ele><time>2013-07-25T11:36:46Z</time></trkpt><trkpt lat="46.5836774558" lon="12.1693701390"><ele>2488.99</ele><time>2013-07-25T11:36:48Z</time></trkpt><trkpt lat="46.5837716684" lon="12.1693934407"><ele>2488.03</ele><time>2013-07-25T11:36:54Z</time></trkpt><trkpt lat="46.5838635340" lon="12.1693570632"><ele>2488.51</ele><time>2013-07-25T11:37:04Z</time></trkpt><trkpt lat="46.5838995762" lon="12.1693533752"><ele>2489.95</ele><time>2013-07-25T11:37:10Z</time></trkpt><trkpt lat="46.5839197766" lon="12.1693609189"><ele>2488.99</ele><time>2013-07-25T11:37:12Z</time></trkpt><trkpt lat="46.5840120614" lon="12.1693770960"><ele>2489.47</ele><time>2013-07-25T11:37:21Z</time></trkpt><trkpt lat="46.5840238798" lon="12.1693603322"><ele>2490.43</ele><time>2013-07-25T11:37:23Z</time></trkpt><trkpt lat="46.5840867441" lon="12.1693019103"><ele>2491.39</ele><time>2013-07-25T11:37:35Z</time></trkpt><trkpt lat="46.5841133986" lon="12.1693124715"><ele>2491.39</ele><time>2013-07-25T11:37:44Z</time></trkpt><trkpt lat="46.5841825493" lon="12.1693411376"><ele>2489.95</ele><time>2013-07-25T11:37:51Z</time></trkpt><trkpt lat="46.5842390433" lon="12.1693567280"><ele>2488.51</ele><time>2013-07-25T11:38:00Z</time></trkpt><trkpt lat="46.5842600819" lon="12.1693583205"><ele>2488.51</ele><time>2013-07-25T11:38:03Z</time></trkpt><trkpt lat="46.5842896700" lon="12.1693538781"><ele>2488.51</ele><time>2013-07-25T11:38:06Z</time></trkpt><trkpt lat="46.5843472537" lon="12.1693138964"><ele>2487.55</ele><time>2013-07-25T11:38:12Z</time></trkpt><trkpt lat="46.5844188351" lon="12.1693354379"><ele>2485.63</ele><time>2013-07-25T11:38:22Z</time></trkpt><trkpt lat="46.5844433103" lon="12.1693461668"><ele>2483.70</ele><time>2013-07-25T11:38:35Z</time></trkpt><trkpt lat="46.5844433103" lon="12.1693461668"><ele>2483.70</ele><time>2013-07-25T11:38:36Z</time></trkpt><trkpt lat="46.5844692942" lon="12.1693713125"><ele>2483.22</ele><time>2013-07-25T11:38:42Z</time></trkpt><trkpt lat="46.5845020674" lon="12.1693590749"><ele>2482.74</ele><time>2013-07-25T11:38:46Z</time></trkpt><trkpt lat="46.5845191665" lon="12.1693472564"><ele>2483.70</ele><time>2013-07-25T11:38:48Z</time></trkpt><trkpt lat="46.5845833719" lon="12.1693215240"><ele>2482.74</ele><time>2013-07-25T11:38:54Z</time></trkpt><trkpt lat="46.5846693702" lon="12.1692631859"><ele>2484.66</ele><time>2013-07-25T11:39:05Z</time></trkpt><trkpt lat="46.5847470704" lon="12.1692718193"><ele>2484.18</ele><time>2013-07-25T11:39:12Z</time></trkpt><trkpt lat="46.5847857110" lon="12.1693028323"><ele>2483.22</ele><time>2013-07-25T11:39:16Z</time></trkpt><trkpt lat="46.5848021396" lon="12.1692919359"><ele>2483.70</ele><time>2013-07-25T11:39:18Z</time></trkpt><trkpt lat="46.5848317277" lon="12.1692629345"><ele>2482.74</ele><time>2013-07-25T11:39:25Z</time></trkpt><trkpt lat="46.5848448873" lon="12.1692442428"><ele>2481.30</ele><time>2013-07-25T11:39:28Z</time></trkpt><trkpt lat="46.5848992858" lon="12.1691946220"><ele>2480.82</ele><time>2013-07-25T11:39:38Z</time></trkpt><trkpt lat="46.5849095117" lon="12.1691764332"><ele>2480.82</ele><time>2013-07-25T11:39:40Z</time></trkpt><trkpt lat="46.5849448834" lon="12.1691772714"><ele>2479.86</ele><time>2013-07-25T11:39:43Z</time></trkpt><trkpt lat="46.5849926602" lon="12.1690892614"><ele>2479.86</ele><time>2013-07-25T11:39:53Z</time></trkpt><trkpt lat="46.5850040596" lon="12.1690372098"><ele>2477.45</ele><time>2013-07-25T11:40:01Z</time></trkpt><trkpt lat="46.5850402694" lon="12.1689908579"><ele>2477.45</ele><time>2013-07-25T11:40:08Z</time></trkpt><trkpt lat="46.5850489866" lon="12.1689782850"><ele>2476.49</ele><time>2013-07-25T11:40:10Z</time></trkpt><trkpt lat="46.5851012059" lon="12.1688862517"><ele>2476.49</ele><time>2013-07-25T11:40:18Z</time></trkpt><trkpt lat="46.5851376671" lon="12.1688479465"><ele>2478.90</ele><time>2013-07-25T11:40:27Z</time></trkpt><trkpt lat="46.5851871204" lon="12.1688174363"><ele>2479.86</ele><time>2013-07-25T11:40:34Z</time></trkpt><trkpt lat="46.5852175467" lon="12.1688079648"><ele>2479.86</ele><time>2013-07-25T11:40:39Z</time></trkpt><trkpt lat="46.5852124337" lon="12.1687829867"><ele>2479.86</ele><time>2013-07-25T11:40:41Z</time></trkpt><trkpt lat="46.5851957537" lon="12.1687185299"><ele>2480.34</ele><time>2013-07-25T11:40:47Z</time></trkpt><trkpt lat="46.5851847734" lon="12.1686712559"><ele>2479.38</ele><time>2013-07-25T11:40:58Z</time></trkpt><trkpt lat="46.5851846896" lon="12.1686717588"><ele>2478.42</ele><time>2013-07-25T11:41:09Z</time></trkpt><trkpt lat="46.5851847734" lon="12.1686712559"><ele>2476.49</ele><time>2013-07-25T11:41:17Z</time></trkpt><trkpt lat="46.5851847734" lon="12.1686712559"><ele>2476.01</ele><time>2013-07-25T11:41:25Z</time></trkpt><trkpt lat="46.5853042994" lon="12.1685566753"><ele>2475.53</ele><time>2013-07-25T11:41:35Z</time></trkpt><trkpt lat="46.5853434429" lon="12.1685497183"><ele>2476.49</ele><time>2013-07-25T11:41:44Z</time></trkpt><trkpt lat="46.5853581112" lon="12.1685167775"><ele>2478.90</ele><time>2013-07-25T11:41:53Z</time></trkpt><trkpt lat="46.5853794850" lon="12.1684796456"><ele>2479.86</ele><time>2013-07-25T11:42:04Z</time></trkpt><trkpt lat="46.5854023676" lon="12.1684522368"><ele>2481.78</ele><time>2013-07-25T11:42:17Z</time></trkpt><trkpt lat="46.5854524914" lon="12.1684002690"><ele>2483.22</ele><time>2013-07-25T11:42:30Z</time></trkpt><trkpt lat="46.5854659863" lon="12.1683627181"><ele>2484.66</ele><time>2013-07-25T11:42:43Z</time></trkpt><trkpt lat="46.5854659863" lon="12.1683627181"><ele>2484.66</ele><time>2013-07-25T11:43:00Z</time></trkpt><trkpt lat="46.5855079796" lon="12.1683016140"><ele>2485.15</ele><time>2013-07-25T11:43:09Z</time></trkpt><trkpt lat="46.5855599474" lon="12.1682410128"><ele>2487.07</ele><time>2013-07-25T11:43:21Z</time></trkpt><trkpt lat="46.5855873562" lon="12.1681214031"><ele>2488.51</ele><time>2013-07-25T11:43:33Z</time></trkpt><trkpt lat="46.5856223088" lon="12.1680747159"><ele>2489.95</ele><time>2013-07-25T11:43:41Z</time></trkpt><trkpt lat="46.5856601112" lon="12.1681120154"><ele>2489.95</ele><time>2013-07-25T11:43:50Z</time></trkpt><trkpt lat="46.5856843349" lon="12.1681486443"><ele>2490.91</ele><time>2013-07-25T11:44:07Z</time></trkpt><trkpt lat="46.5857372247" lon="12.1681438666"><ele>2492.84</ele><time>2013-07-25T11:44:17Z</time></trkpt><trkpt lat="46.5857671481" lon="12.1681202296"><ele>2493.32</ele><time>2013-07-25T11:44:22Z</time></trkpt><trkpt lat="46.5858010110" lon="12.1680716146"><ele>2494.76</ele><time>2013-07-25T11:44:31Z</time></trkpt><trkpt lat="46.5858331975" lon="12.1680431161"><ele>2496.20</ele><time>2013-07-25T11:44:43Z</time></trkpt><trkpt lat="46.5858369693" lon="12.1680431161"><ele>2496.20</ele><time>2013-07-25T11:44:57Z</time></trkpt><trkpt lat="46.5858436748" lon="12.1680470556"><ele>2496.20</ele><time>2013-07-25T11:45:13Z</time></trkpt><trkpt lat="46.5858751908" lon="12.1680327225"><ele>2497.16</ele><time>2013-07-25T11:45:21Z</time></trkpt><trkpt lat="46.5858973190" lon="12.1679779887"><ele>2497.64</ele><time>2013-07-25T11:45:30Z</time></trkpt><trkpt lat="46.5858785436" lon="12.1679878794"><ele>2498.60</ele><time>2013-07-25T11:45:37Z</time></trkpt><trkpt lat="46.5859005041" lon="12.1679639071"><ele>2499.57</ele><time>2013-07-25T11:45:50Z</time></trkpt><trkpt lat="46.5859295893" lon="12.1679466404"><ele>2501.01</ele><time>2013-07-25T11:45:58Z</time></trkpt><trkpt lat="46.5859492868" lon="12.1679526754"><ele>2501.01</ele><time>2013-07-25T11:46:00Z</time></trkpt><trkpt lat="46.5859994106" lon="12.1679261047"><ele>2502.45</ele><time>2013-07-25T11:46:10Z</time></trkpt><trkpt lat="46.5860207006" lon="12.1678838599"><ele>2502.93</ele><time>2013-07-25T11:46:14Z</time></trkpt><trkpt lat="46.5860368777" lon="12.1678565349"><ele>2503.89</ele><time>2013-07-25T11:46:17Z</time></trkpt><trkpt lat="46.5860784519" lon="12.1678111888"><ele>2501.97</ele><time>2013-07-25T11:46:25Z</time></trkpt><trkpt lat="46.5860890131" lon="12.1678240132"><ele>2501.97</ele><time>2013-07-25T11:46:40Z</time></trkpt><trkpt lat="46.5861328505" lon="12.1678696945"><ele>2499.57</ele><time>2013-07-25T11:46:51Z</time></trkpt><trkpt lat="46.5861569066" lon="12.1679047309"><ele>2498.12</ele><time>2013-07-25T11:47:02Z</time></trkpt><trkpt lat="46.5861504525" lon="12.1678890567"><ele>2495.72</ele><time>2013-07-25T11:47:13Z</time></trkpt><trkpt lat="46.5861429088" lon="12.1678510029"><ele>2495.24</ele><time>2013-07-25T11:47:18Z</time></trkpt><trkpt lat="46.5861868300" lon="12.1677925810"><ele>2493.80</ele><time>2013-07-25T11:47:27Z</time></trkpt><trkpt lat="46.5862079524" lon="12.1678231750"><ele>2491.39</ele><time>2013-07-25T11:47:36Z</time></trkpt><trkpt lat="46.5862279013" lon="12.1678251866"><ele>2491.39</ele><time>2013-07-25T11:47:44Z</time></trkpt><trkpt lat="46.5862469282" lon="12.1678247675"><ele>2488.51</ele><time>2013-07-25T11:47:53Z</time></trkpt><trkpt lat="46.5862319246" lon="12.1677819360"><ele>2487.55</ele><time>2013-07-25T11:48:01Z</time></trkpt><trkpt lat="46.5862432402" lon="12.1676899027"><ele>2486.11</ele><time>2013-07-25T11:48:11Z</time></trkpt><trkpt lat="46.5862614289" lon="12.1677144617"><ele>2485.63</ele><time>2013-07-25T11:48:14Z</time></trkpt><trkpt lat="46.5862968005" lon="12.1677555330"><ele>2484.66</ele><time>2013-07-25T11:48:21Z</time></trkpt><trkpt lat="46.5863408893" lon="12.1677703690"><ele>2482.74</ele><time>2013-07-25T11:48:30Z</time></trkpt><trkpt lat="46.5863734111" lon="12.1678376757"><ele>2480.82</ele><time>2013-07-25T11:48:40Z</time></trkpt><trkpt lat="46.5863947012" lon="12.1678763162"><ele>2478.90</ele><time>2013-07-25T11:48:47Z</time></trkpt><trkpt lat="46.5864168294" lon="12.1679452993"><ele>2476.97</ele><time>2013-07-25T11:48:56Z</time></trkpt><trkpt lat="46.5864712279" lon="12.1680025477"><ele>2475.05</ele><time>2013-07-25T11:49:05Z</time></trkpt><trkpt lat="46.5865285601" lon="12.1680031344"><ele>2473.13</ele><time>2013-07-25T11:49:14Z</time></trkpt><trkpt lat="46.5865801089" lon="12.1680113487"><ele>2470.73</ele><time>2013-07-25T11:49:23Z</time></trkpt><trkpt lat="46.5866087750" lon="12.1680228319"><ele>2469.76</ele><time>2013-07-25T11:49:27Z</time></trkpt><trkpt lat="46.5866292268" lon="12.1680152044"><ele>2469.76</ele><time>2013-07-25T11:49:30Z</time></trkpt><trkpt lat="46.5866708010" lon="12.1680124383"><ele>2467.84</ele><time>2013-07-25T11:49:40Z</time></trkpt><trkpt lat="46.5866773389" lon="12.1680112649"><ele>2467.36</ele><time>2013-07-25T11:49:42Z</time></trkpt><trkpt lat="46.5866751596" lon="12.1679393481"><ele>2466.88</ele><time>2013-07-25T11:49:48Z</time></trkpt><trkpt lat="46.5867025685" lon="12.1678107698"><ele>2464.48</ele><time>2013-07-25T11:49:59Z</time></trkpt><trkpt lat="46.5867251158" lon="12.1677946765"><ele>2463.52</ele><time>2013-07-25T11:50:08Z</time></trkpt><trkpt lat="46.5867344197" lon="12.1677922457"><ele>2464.00</ele><time>2013-07-25T11:50:20Z</time></trkpt><trkpt lat="46.5867419634" lon="12.1677864622"><ele>2463.52</ele><time>2013-07-25T11:50:22Z</time></trkpt><trkpt lat="46.5867605712" lon="12.1677443851"><ele>2463.52</ele><time>2013-07-25T11:50:30Z</time></trkpt><trkpt lat="46.5867559612" lon="12.1677915752"><ele>2463.04</ele><time>2013-07-25T11:50:38Z</time></trkpt><trkpt lat="46.5869216714" lon="12.1677085105"><ele>2460.15</ele><time>2013-07-25T11:50:49Z</time></trkpt><trkpt lat="46.5869453922" lon="12.1676790901"><ele>2458.71</ele><time>2013-07-25T11:50:57Z</time></trkpt><trkpt lat="46.5869610664" lon="12.1676336601"><ele>2458.23</ele><time>2013-07-25T11:51:02Z</time></trkpt><trkpt lat="46.5869984496" lon="12.1676259488"><ele>2457.27</ele><time>2013-07-25T11:51:14Z</time></trkpt><trkpt lat="46.5870098490" lon="12.1676392760"><ele>2456.79</ele><time>2013-07-25T11:51:25Z</time></trkpt><trkpt lat="46.5870101843" lon="12.1676958539"><ele>2455.34</ele><time>2013-07-25T11:51:36Z</time></trkpt><trkpt lat="46.5870317258" lon="12.1676634997"><ele>2452.94</ele><time>2013-07-25T11:51:45Z</time></trkpt><trkpt lat="46.5870666783" lon="12.1677247714"><ele>2451.02</ele><time>2013-07-25T11:51:55Z</time></trkpt><trkpt lat="46.5870992839" lon="12.1677969396"><ele>2450.06</ele><time>2013-07-25T11:52:06Z</time></trkpt><trkpt lat="46.5871042293" lon="12.1677950956"><ele>2450.06</ele><time>2013-07-25T11:52:07Z</time></trkpt><trkpt lat="46.5871499106" lon="12.1677898150"><ele>2447.65</ele><time>2013-07-25T11:52:16Z</time></trkpt><trkpt lat="46.5871774871" lon="12.1677971911"><ele>2447.65</ele><time>2013-07-25T11:52:19Z</time></trkpt><trkpt lat="46.5872203186" lon="12.1678213309"><ele>2447.65</ele><time>2013-07-25T11:52:28Z</time></trkpt><trkpt lat="46.5872419439" lon="12.1678189840"><ele>2448.13</ele><time>2013-07-25T11:52:35Z</time></trkpt><trkpt lat="46.5872913133" lon="12.1677617356"><ele>2449.58</ele><time>2013-07-25T11:52:45Z</time></trkpt><trkpt lat="46.5873227455" lon="12.1677044872"><ele>2451.02</ele><time>2013-07-25T11:52:55Z</time></trkpt><trkpt lat="46.5873428620" lon="12.1676773299"><ele>2452.46</ele><time>2013-07-25T11:53:04Z</time></trkpt><trkpt lat="46.5873686783" lon="12.1676361747"><ele>2454.38</ele><time>2013-07-25T11:53:14Z</time></trkpt><trkpt lat="46.5874173772" lon="12.1676533576"><ele>2455.82</ele><time>2013-07-25T11:53:26Z</time></trkpt><trkpt lat="46.5874793194" lon="12.1676588897"><ele>2457.27</ele><time>2013-07-25T11:53:36Z</time></trkpt><trkpt lat="46.5874821693" lon="12.1676622424"><ele>2458.23</ele><time>2013-07-25T11:53:48Z</time></trkpt><trkpt lat="46.5874821693" lon="12.1676622424"><ele>2459.67</ele><time>2013-07-25T11:54:00Z</time></trkpt><trkpt lat="46.5875415970" lon="12.1676274575"><ele>2460.63</ele><time>2013-07-25T11:54:10Z</time></trkpt><trkpt lat="46.5875804890" lon="12.1676062513"><ele>2462.55</ele><time>2013-07-25T11:54:19Z</time></trkpt><trkpt lat="46.5875731967" lon="12.1676064190"><ele>2462.55</ele><time>2013-07-25T11:54:28Z</time></trkpt><trkpt lat="46.5875759628" lon="12.1675823629"><ele>2464.00</ele><time>2013-07-25T11:54:38Z</time></trkpt><trkpt lat="46.5875737835" lon="12.1675722208"><ele>2464.00</ele><time>2013-07-25T11:54:49Z</time></trkpt><trkpt lat="46.5875754599" lon="12.1675416268"><ele>2464.00</ele><time>2013-07-25T11:55:04Z</time></trkpt><trkpt lat="46.5875916369" lon="12.1675200853"><ele>2463.52</ele><time>2013-07-25T11:55:11Z</time></trkpt><trkpt lat="46.5875916369" lon="12.1675200853"><ele>2463.04</ele><time>2013-07-25T11:55:34Z</time></trkpt><trkpt lat="46.5875945706" lon="12.1675180737"><ele>2463.52</ele><time>2013-07-25T11:55:51Z</time></trkpt><trkpt lat="46.5875945706" lon="12.1675180737"><ele>2463.52</ele><time>2013-07-25T11:56:18Z</time></trkpt><trkpt lat="46.5875945706" lon="12.1675180737"><ele>2463.04</ele><time>2013-07-25T11:56:24Z</time></trkpt><trkpt lat="46.5876261704" lon="12.1674680337"><ele>2464.48</ele><time>2013-07-25T11:56:31Z</time></trkpt><trkpt lat="46.5876261704" lon="12.1674680337"><ele>2464.48</ele><time>2013-07-25T11:56:45Z</time></trkpt><trkpt lat="46.5876296069" lon="12.1674648486"><ele>2464.00</ele><time>2013-07-25T11:57:08Z</time></trkpt><trkpt lat="46.5876323730" lon="12.1674539521"><ele>2464.48</ele><time>2013-07-25T11:57:18Z</time></trkpt><trkpt lat="46.5876432694" lon="12.1674185805"><ele>2464.96</ele><time>2013-07-25T11:57:37Z</time></trkpt><trkpt lat="46.5876579378" lon="12.1673639305"><ele>2463.04</ele><time>2013-07-25T11:57:47Z</time></trkpt><trkpt lat="46.5876633022" lon="12.1673516929"><ele>2462.55</ele><time>2013-07-25T11:57:49Z</time></trkpt><trkpt lat="46.5876705106" lon="12.1673139744"><ele>2460.63</ele><time>2013-07-25T11:57:57Z</time></trkpt><trkpt lat="46.5876705106" lon="12.1673139744"><ele>2460.63</ele><time>2013-07-25T11:57:58Z</time></trkpt><trkpt lat="46.5876710974" lon="12.1672801115"><ele>2460.63</ele><time>2013-07-25T11:58:02Z</time></trkpt><trkpt lat="46.5876770485" lon="12.1672320832"><ele>2458.23</ele><time>2013-07-25T11:58:10Z</time></trkpt><trkpt lat="46.5876684990" lon="12.1671878267"><ele>2456.79</ele><time>2013-07-25T11:58:18Z</time></trkpt><trkpt lat="46.5877389908" lon="12.1671660338"><ele>2455.82</ele><time>2013-07-25T11:58:27Z</time></trkpt><trkpt lat="46.5877499711" lon="12.1672140621"><ele>2453.90</ele><time>2013-07-25T11:58:36Z</time></trkpt><trkpt lat="46.5877508931" lon="12.1671817917"><ele>2452.46</ele><time>2013-07-25T11:58:46Z</time></trkpt><trkpt lat="46.5877412539" lon="12.1671238728"><ele>2450.54</ele><time>2013-07-25T11:58:56Z</time></trkpt><trkpt lat="46.5877572633" lon="12.1670534648"><ele>2448.13</ele><time>2013-07-25T11:59:05Z</time></trkpt><trkpt lat="46.5878066327" lon="12.1670760959"><ele>2445.73</ele><time>2013-07-25T11:59:16Z</time></trkpt><trkpt lat="46.5878011845" lon="12.1670531295"><ele>2444.29</ele><time>2013-07-25T11:59:25Z</time></trkpt><trkpt lat="46.5877793916" lon="12.1669962164"><ele>2441.89</ele><time>2013-07-25T11:59:35Z</time></trkpt><trkpt lat="46.5877933893" lon="12.1669602580"><ele>2439.96</ele><time>2013-07-25T11:59:43Z</time></trkpt><trkpt lat="46.5878445189" lon="12.1669923607"><ele>2438.04</ele><time>2013-07-25T11:59:52Z</time></trkpt><trkpt lat="46.5878539905" lon="12.1669940371"><ele>2436.60</ele><time>2013-07-25T12:00:00Z</time></trkpt><trkpt lat="46.5878464468" lon="12.1669334359"><ele>2434.20</ele><time>2013-07-25T12:00:10Z</time></trkpt><trkpt lat="46.5878328681" lon="12.1669085417"><ele>2432.75</ele><time>2013-07-25T12:00:21Z</time></trkpt><trkpt lat="46.5878243186" lon="12.1668691467"><ele>2430.83</ele><time>2013-07-25T12:00:28Z</time></trkpt><trkpt lat="46.5878459439" lon="12.1668336075"><ele>2429.87</ele><time>2013-07-25T12:00:35Z</time></trkpt><trkpt lat="46.5878663957" lon="12.1668300871"><ele>2427.95</ele><time>2013-07-25T12:00:44Z</time></trkpt><trkpt lat="46.5879080538" lon="12.1668328531"><ele>2426.50</ele><time>2013-07-25T12:00:53Z</time></trkpt><trkpt lat="46.5879264101" lon="12.1668485273"><ele>2425.54</ele><time>2013-07-25T12:00:57Z</time></trkpt><trkpt lat="46.5879286733" lon="12.1668670513"><ele>2425.06</ele><time>2013-07-25T12:01:07Z</time></trkpt><trkpt lat="46.5879215486" lon="12.1668560710"><ele>2424.10</ele><time>2013-07-25T12:01:19Z</time></trkpt><trkpt lat="46.5879290085" lon="12.1668155026"><ele>2422.66</ele><time>2013-07-25T12:01:29Z</time></trkpt><trkpt lat="46.5879058745" lon="12.1667789575"><ele>2421.70</ele><time>2013-07-25T12:01:40Z</time></trkpt><trkpt lat="46.5878907871" lon="12.1667289175"><ele>2420.26</ele><time>2013-07-25T12:01:50Z</time></trkpt><trkpt lat="46.5879015997" lon="12.1667071246"><ele>2418.33</ele><time>2013-07-25T12:02:00Z</time></trkpt><trkpt lat="46.5878924634" lon="12.1666914504"><ele>2416.89</ele><time>2013-07-25T12:02:07Z</time></trkpt><trkpt lat="46.5878812317" lon="12.1666808054"><ele>2415.45</ele><time>2013-07-25T12:02:16Z</time></trkpt><trkpt lat="46.5879025217" lon="12.1666395664"><ele>2414.49</ele><time>2013-07-25T12:02:23Z</time></trkpt><trkpt lat="46.5879109874" lon="12.1666188631"><ele>2413.05</ele><time>2013-07-25T12:02:34Z</time></trkpt><trkpt lat="46.5879054554" lon="12.1666041948"><ele>2411.12</ele><time>2013-07-25T12:02:42Z</time></trkpt><trkpt lat="46.5878995042" lon="12.1665502992"><ele>2409.20</ele><time>2013-07-25T12:02:53Z</time></trkpt><trkpt lat="46.5878829919" lon="12.1665155981"><ele>2407.28</ele><time>2013-07-25T12:03:01Z</time></trkpt><trkpt lat="46.5878839139" lon="12.1664649714"><ele>2405.36</ele><time>2013-07-25T12:03:10Z</time></trkpt><trkpt lat="46.5878743585" lon="12.1664565895"><ele>2404.39</ele><time>2013-07-25T12:03:18Z</time></trkpt><trkpt lat="46.5878746100" lon="12.1664678212"><ele>2403.43</ele><time>2013-07-25T12:03:20Z</time></trkpt><trkpt lat="46.5878662281" lon="12.1664828248"><ele>2403.43</ele><time>2013-07-25T12:03:23Z</time></trkpt><trkpt lat="46.5878404118" lon="12.1665186994"><ele>2401.99</ele><time>2013-07-25T12:03:34Z</time></trkpt><trkpt lat="46.5878277551" lon="12.1665170230"><ele>2401.03</ele><time>2013-07-25T12:03:43Z</time></trkpt><trkpt lat="46.5878171939" lon="12.1665131673"><ele>2398.63</ele><time>2013-07-25T12:03:54Z</time></trkpt><trkpt lat="46.5878067166" lon="12.1665537357"><ele>2396.22</ele><time>2013-07-25T12:04:03Z</time></trkpt><trkpt lat="46.5877978317" lon="12.1665649675"><ele>2396.22</ele><time>2013-07-25T12:04:13Z</time></trkpt><trkpt lat="46.5877676569" lon="12.1665494610"><ele>2395.26</ele><time>2013-07-25T12:04:23Z</time></trkpt><trkpt lat="46.5877198800" lon="12.1664358024"><ele>2392.86</ele><time>2013-07-25T12:04:32Z</time></trkpt><trkpt lat="46.5877285972" lon="12.1664198767"><ele>2392.38</ele><time>2013-07-25T12:04:36Z</time></trkpt><trkpt lat="46.5876933932" lon="12.1663661487"><ele>2389.49</ele><time>2013-07-25T12:04:44Z</time></trkpt><trkpt lat="46.5876802336" lon="12.1663277596"><ele>2389.97</ele><time>2013-07-25T12:04:47Z</time></trkpt><trkpt lat="46.5876701754" lon="12.1662963275"><ele>2389.01</ele><time>2013-07-25T12:04:51Z</time></trkpt><trkpt lat="46.5876769647" lon="12.1662673261"><ele>2389.01</ele><time>2013-07-25T12:04:53Z</time></trkpt><trkpt lat="46.5877031162" lon="12.1661624685"><ele>2388.05</ele><time>2013-07-25T12:05:01Z</time></trkpt><trkpt lat="46.5877067205" lon="12.1661518235"><ele>2387.09</ele><time>2013-07-25T12:05:02Z</time></trkpt><trkpt lat="46.5877231490" lon="12.1661302820"><ele>2387.09</ele><time>2013-07-25T12:05:03Z</time></trkpt><trkpt lat="46.5878387354" lon="12.1660185512"><ele>2387.09</ele><time>2013-07-25T12:05:12Z</time></trkpt><trkpt lat="46.5879356302" lon="12.1659616381"><ele>2386.61</ele><time>2013-07-25T12:05:20Z</time></trkpt><trkpt lat="46.5880332794" lon="12.1660360694"><ele>2386.13</ele><time>2013-07-25T12:05:30Z</time></trkpt><trkpt lat="46.5880332794" lon="12.1660360694"><ele>2386.13</ele><time>2013-07-25T12:05:47Z</time></trkpt><trkpt lat="46.5880342014" lon="12.1660377458"><ele>2385.65</ele><time>2013-07-25T12:06:11Z</time></trkpt><trkpt lat="46.5880342014" lon="12.1660377458"><ele>2385.65</ele><time>2013-07-25T12:06:31Z</time></trkpt><trkpt lat="46.5880487021" lon="12.1660488937"><ele>2386.61</ele><time>2013-07-25T12:06:43Z</time></trkpt><trkpt lat="46.5880554914" lon="12.1660602931"><ele>2386.13</ele><time>2013-07-25T12:06:54Z</time></trkpt><trkpt lat="46.5880635381" lon="12.1660513245"><ele>2385.65</ele><time>2013-07-25T12:07:03Z</time></trkpt><trkpt lat="46.5880715847" lon="12.1660524141"><ele>2384.69</ele><time>2013-07-25T12:07:15Z</time></trkpt><trkpt lat="46.5880927071" lon="12.1660445351"><ele>2384.21</ele><time>2013-07-25T12:07:26Z</time></trkpt><trkpt lat="46.5880936291" lon="12.1660337225"><ele>2382.76</ele><time>2013-07-25T12:07:37Z</time></trkpt><trkpt lat="46.5880936291" lon="12.1660105884"><ele>2381.32</ele><time>2013-07-25T12:07:49Z</time></trkpt><trkpt lat="46.5880912822" lon="12.1660174616"><ele>2380.36</ele><time>2013-07-25T12:08:00Z</time></trkpt><trkpt lat="46.5880965628" lon="12.1660043858"><ele>2381.32</ele><time>2013-07-25T12:08:09Z</time></trkpt><trkpt lat="46.5880993288" lon="12.1659927350"><ele>2382.28</ele><time>2013-07-25T12:08:17Z</time></trkpt><trkpt lat="46.5881004184" lon="12.1659950819"><ele>2383.73</ele><time>2013-07-25T12:08:26Z</time></trkpt><trkpt lat="46.5880965628" lon="12.1659936570"><ele>2384.21</ele><time>2013-07-25T12:08:35Z</time></trkpt><trkpt lat="46.5880892705" lon="12.1659804974"><ele>2385.65</ele><time>2013-07-25T12:08:44Z</time></trkpt><trkpt lat="46.5880883485" lon="12.1659802459"><ele>2385.65</ele><time>2013-07-25T12:08:56Z</time></trkpt><trkpt lat="46.5880942158" lon="12.1659349836"><ele>2387.09</ele><time>2013-07-25T12:09:02Z</time></trkpt><trkpt lat="46.5881036874" lon="12.1659151185"><ele>2387.09</ele><time>2013-07-25T12:09:04Z</time></trkpt><trkpt lat="46.5881170146" lon="12.1658854466"><ele>2386.61</ele><time>2013-07-25T12:09:07Z</time></trkpt><trkpt lat="46.5881341975" lon="12.1658573672"><ele>2386.61</ele><time>2013-07-25T12:09:11Z</time></trkpt><trkpt lat="46.5881115664" lon="12.1658334788"><ele>2387.09</ele><time>2013-07-25T12:09:17Z</time></trkpt><trkpt lat="46.5881205350" lon="12.1657970175"><ele>2386.61</ele><time>2013-07-25T12:09:22Z</time></trkpt><trkpt lat="46.5882097185" lon="12.1657361649"><ele>2384.69</ele><time>2013-07-25T12:09:32Z</time></trkpt><trkpt lat="46.5882136580" lon="12.1657143719"><ele>2383.73</ele><time>2013-07-25T12:09:41Z</time></trkpt><trkpt lat="46.5882072877" lon="12.1657171380"><ele>2382.76</ele><time>2013-07-25T12:09:49Z</time></trkpt><trkpt lat="46.5882072877" lon="12.1657171380"><ele>2380.84</ele><time>2013-07-25T12:09:57Z</time></trkpt><trkpt lat="46.5882038511" lon="12.1656598058"><ele>2378.92</ele><time>2013-07-25T12:10:07Z</time></trkpt><trkpt lat="46.5881747659" lon="12.1655539423"><ele>2377.96</ele><time>2013-07-25T12:10:17Z</time></trkpt><trkpt lat="46.5881269053" lon="12.1655496676"><ele>2376.04</ele><time>2013-07-25T12:10:27Z</time></trkpt><trkpt lat="46.5881291684" lon="12.1655286290"><ele>2374.59</ele><time>2013-07-25T12:10:38Z</time></trkpt><trkpt lat="46.5881032683" lon="12.1655060817"><ele>2372.67</ele><time>2013-07-25T12:10:48Z</time></trkpt><trkpt lat="46.5881095547" lon="12.1654658485"><ele>2371.71</ele><time>2013-07-25T12:10:59Z</time></trkpt><trkpt lat="46.5881240554" lon="12.1654137969"><ele>2369.79</ele><time>2013-07-25T12:11:08Z</time></trkpt><trkpt lat="46.5880845767" lon="12.1653692890"><ele>2368.35</ele><time>2013-07-25T12:11:16Z</time></trkpt><trkpt lat="46.5881392267" lon="12.1653656010"><ele>2366.42</ele><time>2013-07-25T12:11:26Z</time></trkpt><trkpt lat="46.5881246421" lon="12.1653405391"><ele>2364.98</ele><time>2013-07-25T12:11:34Z</time></trkpt><trkpt lat="46.5881545655" lon="12.1653320733"><ele>2364.02</ele><time>2013-07-25T12:11:43Z</time></trkpt><trkpt lat="46.5881623607" lon="12.1653155610"><ele>2362.58</ele><time>2013-07-25T12:11:51Z</time></trkpt><trkpt lat="46.5881700721" lon="12.1653038263"><ele>2362.58</ele><time>2013-07-25T12:11:55Z</time></trkpt><trkpt lat="46.5881859977" lon="12.1652557142"><ele>2361.14</ele><time>2013-07-25T12:12:02Z</time></trkpt><trkpt lat="46.5881889313" lon="12.1652535349"><ele>2360.65</ele><time>2013-07-25T12:12:04Z</time></trkpt><trkpt lat="46.5882217046" lon="12.1652164869"><ele>2359.69</ele><time>2013-07-25T12:12:11Z</time></trkpt><trkpt lat="46.5882254764" lon="12.1652150620"><ele>2359.69</ele><time>2013-07-25T12:12:12Z</time></trkpt><trkpt lat="46.5882650390" lon="12.1651795227"><ele>2358.73</ele><time>2013-07-25T12:12:15Z</time></trkpt><trkpt lat="46.5882885922" lon="12.1651393734"><ele>2357.77</ele><time>2013-07-25T12:12:19Z</time></trkpt><trkpt lat="46.5883046016" lon="12.1651239507"><ele>2357.77</ele><time>2013-07-25T12:12:20Z</time></trkpt><trkpt lat="46.5883962996" lon="12.1650852263"><ele>2358.73</ele><time>2013-07-25T12:12:29Z</time></trkpt><trkpt lat="46.5884539671" lon="12.1650042571"><ele>2358.73</ele><time>2013-07-25T12:12:35Z</time></trkpt><trkpt lat="46.5885146521" lon="12.1649351064"><ele>2358.25</ele><time>2013-07-25T12:12:44Z</time></trkpt><trkpt lat="46.5886028297" lon="12.1648744214"><ele>2358.73</ele><time>2013-07-25T12:12:55Z</time></trkpt><trkpt lat="46.5886592399" lon="12.1647823881"><ele>2358.73</ele><time>2013-07-25T12:13:06Z</time></trkpt><trkpt lat="46.5887056757" lon="12.1647222899"><ele>2358.73</ele><time>2013-07-25T12:13:13Z</time></trkpt><trkpt lat="46.5887901653" lon="12.1646570787"><ele>2358.73</ele><time>2013-07-25T12:13:23Z</time></trkpt><trkpt lat="46.5889074281" lon="12.1646234673"><ele>2359.21</ele><time>2013-07-25T12:13:35Z</time></trkpt><trkpt lat="46.5889501758" lon="12.1645936277"><ele>2359.69</ele><time>2013-07-25T12:13:40Z</time></trkpt><trkpt lat="46.5890119504" lon="12.1645888500"><ele>2359.69</ele><time>2013-07-25T12:13:50Z</time></trkpt><trkpt lat="46.5890517645" lon="12.1646212041"><ele>2361.14</ele><time>2013-07-25T12:13:58Z</time></trkpt><trkpt lat="46.5890429635" lon="12.1646301728"><ele>2361.14</ele><time>2013-07-25T12:14:06Z</time></trkpt><trkpt lat="46.5890859626" lon="12.1645145025"><ele>2361.62</ele><time>2013-07-25T12:14:18Z</time></trkpt><trkpt lat="46.5890948474" lon="12.1644867584"><ele>2363.06</ele><time>2013-07-25T12:14:28Z</time></trkpt><trkpt lat="46.5890816879" lon="12.1644473635"><ele>2364.02</ele><time>2013-07-25T12:14:38Z</time></trkpt><trkpt lat="46.5890816879" lon="12.1644473635"><ele>2364.02</ele><time>2013-07-25T12:15:05Z</time></trkpt><trkpt lat="46.5891071688" lon="12.1644143388"><ele>2364.50</ele><time>2013-07-25T12:15:24Z</time></trkpt><trkpt lat="46.5891063306" lon="12.1643979102"><ele>2364.50</ele><time>2013-07-25T12:15:36Z</time></trkpt><trkpt lat="46.5891033970" lon="12.1643912047"><ele>2363.54</ele><time>2013-07-25T12:15:47Z</time></trkpt><trkpt lat="46.5890966915" lon="12.1644022688"><ele>2363.54</ele><time>2013-07-25T12:15:59Z</time></trkpt><trkpt lat="46.5890927520" lon="12.1644141711"><ele>2363.06</ele><time>2013-07-25T12:16:06Z</time></trkpt><trkpt lat="46.5890742280" lon="12.1643886063"><ele>2362.10</ele><time>2013-07-25T12:16:16Z</time></trkpt><trkpt lat="46.5890723001" lon="12.1643904503"><ele>2365.46</ele><time>2013-07-25T12:16:19Z</time></trkpt><trkpt lat="46.5890723001" lon="12.1643904503"><ele>2361.62</ele><time>2013-07-25T12:16:20Z</time></trkpt><trkpt lat="46.5890723001" lon="12.1643904503"><ele>2361.62</ele><time>2013-07-25T12:16:41Z</time></trkpt><trkpt lat="46.5890708752" lon="12.1643912885"><ele>2361.14</ele><time>2013-07-25T12:17:02Z</time></trkpt><trkpt lat="46.5890708752" lon="12.1643912885"><ele>2361.62</ele><time>2013-07-25T12:17:28Z</time></trkpt><trkpt lat="46.5890702046" lon="12.1643924620"><ele>2360.65</ele><time>2013-07-25T12:17:57Z</time></trkpt><trkpt lat="46.5890695341" lon="12.1643933002"><ele>2360.65</ele><time>2013-07-25T12:18:27Z</time></trkpt><trkpt lat="46.5890695341" lon="12.1643933002"><ele>2359.69</ele><time>2013-07-25T12:18:56Z</time></trkpt><trkpt lat="46.5890687797" lon="12.1643933840"><ele>2360.17</ele><time>2013-07-25T12:19:24Z</time></trkpt><trkpt lat="46.5890687797" lon="12.1643938869"><ele>2359.21</ele><time>2013-07-25T12:19:54Z</time></trkpt><trkpt lat="46.5890679415" lon="12.1643934678"><ele>2359.21</ele><time>2013-07-25T12:20:24Z</time></trkpt><trkpt lat="46.5890679415" lon="12.1643934678"><ele>2359.69</ele><time>2013-07-25T12:20:50Z</time></trkpt><trkpt lat="46.5890681092" lon="12.1643941384"><ele>2358.73</ele><time>2013-07-25T12:21:16Z</time></trkpt><trkpt lat="46.5890665166" lon="12.1643969882"><ele>2358.73</ele><time>2013-07-25T12:21:41Z</time></trkpt><trkpt lat="46.5890665166" lon="12.1643969882"><ele>2358.73</ele><time>2013-07-25T12:22:07Z</time></trkpt><trkpt lat="46.5890671872" lon="12.1643957309"><ele>2358.73</ele><time>2013-07-25T12:22:35Z</time></trkpt><trkpt lat="46.5890672710" lon="12.1643948928"><ele>2358.73</ele><time>2013-07-25T12:23:05Z</time></trkpt><trkpt lat="46.5890672710" lon="12.1643948928"><ele>2358.25</ele><time>2013-07-25T12:23:31Z</time></trkpt><trkpt lat="46.5890684444" lon="12.1643938869"><ele>2357.77</ele><time>2013-07-25T12:23:55Z</time></trkpt><trkpt lat="46.5890689474" lon="12.1643927973"><ele>2358.25</ele><time>2013-07-25T12:24:28Z</time></trkpt><trkpt lat="46.5890689474" lon="12.1643927973"><ele>2358.73</ele><time>2013-07-25T12:24:51Z</time></trkpt><trkpt lat="46.5890691150" lon="12.1643923782"><ele>2358.73</ele><time>2013-07-25T12:25:24Z</time></trkpt><trkpt lat="46.5890691150" lon="12.1643912885"><ele>2357.29</ele><time>2013-07-25T12:25:58Z</time></trkpt><trkpt lat="46.5890707914" lon="12.1643901151"><ele>2358.73</ele><time>2013-07-25T12:26:26Z</time></trkpt><trkpt lat="46.5890839510" lon="12.1643782966"><ele>2359.21</ele><time>2013-07-25T12:26:35Z</time></trkpt><trkpt lat="46.5891234297" lon="12.1643734351"><ele>2360.17</ele><time>2013-07-25T12:26:44Z</time></trkpt><trkpt lat="46.5891517606" lon="12.1643298492"><ele>2360.65</ele><time>2013-07-25T12:26:50Z</time></trkpt><trkpt lat="46.5891893953" lon="12.1642981656"><ele>2362.58</ele><time>2013-07-25T12:27:00Z</time></trkpt><trkpt lat="46.5892142896" lon="12.1642389894"><ele>2364.50</ele><time>2013-07-25T12:27:11Z</time></trkpt><trkpt lat="46.5892310534" lon="12.1641997620"><ele>2364.98</ele><time>2013-07-25T12:27:22Z</time></trkpt><trkpt lat="46.5892478172" lon="12.1641810704"><ele>2367.86</ele><time>2013-07-25T12:27:33Z</time></trkpt><trkpt lat="46.5892510861" lon="12.1641817410"><ele>2368.83</ele><time>2013-07-25T12:27:43Z</time></trkpt><trkpt lat="46.5892660897" lon="12.1641414240"><ele>2369.31</ele><time>2013-07-25T12:27:50Z</time></trkpt><trkpt lat="46.5892726276" lon="12.1640827507"><ele>2368.83</ele><time>2013-07-25T12:27:59Z</time></trkpt><trkpt lat="46.5892867930" lon="12.1640563477"><ele>2367.86</ele><time>2013-07-25T12:28:12Z</time></trkpt><trkpt lat="46.5893338993" lon="12.1640466247"><ele>2366.42</ele><time>2013-07-25T12:28:21Z</time></trkpt><trkpt lat="46.5893312171" lon="12.1640151087"><ele>2366.42</ele><time>2013-07-25T12:28:31Z</time></trkpt><trkpt lat="46.5893787425" lon="12.1639321279"><ele>2368.35</ele><time>2013-07-25T12:28:41Z</time></trkpt><trkpt lat="46.5894202329" lon="12.1639222372"><ele>2369.79</ele><time>2013-07-25T12:28:49Z</time></trkpt><trkpt lat="46.5894246753" lon="12.1639033780"><ele>2371.23</ele><time>2013-07-25T12:28:59Z</time></trkpt><trkpt lat="46.5894247591" lon="12.1638337243"><ele>2373.15</ele><time>2013-07-25T12:29:11Z</time></trkpt><trkpt lat="46.5894270223" lon="12.1637483966"><ele>2374.11</ele><time>2013-07-25T12:29:22Z</time></trkpt><trkpt lat="46.5894385055" lon="12.1636904776"><ele>2375.07</ele><time>2013-07-25T12:29:29Z</time></trkpt><trkpt lat="46.5894256812" lon="12.1636147052"><ele>2374.59</ele><time>2013-07-25T12:29:37Z</time></trkpt><trkpt lat="46.5894241724" lon="12.1635777410"><ele>2375.55</ele><time>2013-07-25T12:29:49Z</time></trkpt><trkpt lat="46.5894821752" lon="12.1635275334"><ele>2376.52</ele><time>2013-07-25T12:29:59Z</time></trkpt><trkpt lat="46.5895082429" lon="12.1635551937"><ele>2376.52</ele><time>2013-07-25T12:30:08Z</time></trkpt><trkpt lat="46.5895380825" lon="12.1635336522"><ele>2375.55</ele><time>2013-07-25T12:30:15Z</time></trkpt><trkpt lat="46.5895736217" lon="12.1634829417"><ele>2375.07</ele><time>2013-07-25T12:30:24Z</time></trkpt><trkpt lat="46.5895682573" lon="12.1634588856"><ele>2375.07</ele><time>2013-07-25T12:30:33Z</time></trkpt><trkpt lat="46.5895686764" lon="12.1634360868"><ele>2376.04</ele><time>2013-07-25T12:30:42Z</time></trkpt><trkpt lat="46.5896001924" lon="12.1633977816"><ele>2376.04</ele><time>2013-07-25T12:30:52Z</time></trkpt><trkpt lat="46.5896001924" lon="12.1633977816"><ele>2376.04</ele><time>2013-07-25T12:31:13Z</time></trkpt><trkpt lat="46.5896022879" lon="12.1633955184"><ele>2375.55</ele><time>2013-07-25T12:31:23Z</time></trkpt><trkpt lat="46.5896022879" lon="12.1633955184"><ele>2375.07</ele><time>2013-07-25T12:31:42Z</time></trkpt><trkpt lat="46.5896063950" lon="12.1633940935"><ele>2375.07</ele><time>2013-07-25T12:32:04Z</time></trkpt><trkpt lat="46.5896063950" lon="12.1633940935"><ele>2374.59</ele><time>2013-07-25T12:32:22Z</time></trkpt><trkpt lat="46.5896065626" lon="12.1633946802"><ele>2375.55</ele><time>2013-07-25T12:32:32Z</time></trkpt><trkpt lat="46.5896065626" lon="12.1633946802"><ele>2373.63</ele><time>2013-07-25T12:32:42Z</time></trkpt><trkpt lat="46.5896118432" lon="12.1633801796"><ele>2371.71</ele><time>2013-07-25T12:32:52Z</time></trkpt><trkpt lat="46.5896239132" lon="12.1633695345"><ele>2370.27</ele><time>2013-07-25T12:33:00Z</time></trkpt><trkpt lat="46.5896169562" lon="12.1633269545"><ele>2368.83</ele><time>2013-07-25T12:33:08Z</time></trkpt><trkpt lat="46.5896137711" lon="12.1633198299"><ele>2368.35</ele><time>2013-07-25T12:33:11Z</time></trkpt><trkpt lat="46.5896363184" lon="12.1632364299"><ele>2366.42</ele><time>2013-07-25T12:33:20Z</time></trkpt><trkpt lat="46.5896798205" lon="12.1632106137"><ele>2364.98</ele><time>2013-07-25T12:33:26Z</time></trkpt><trkpt lat="46.5897006914" lon="12.1632083505"><ele>2364.50</ele><time>2013-07-25T12:33:28Z</time></trkpt><trkpt lat="46.5897814929" lon="12.1631224360"><ele>2362.10</ele><time>2013-07-25T12:33:38Z</time></trkpt><trkpt lat="46.5898179542" lon="12.1630920935"><ele>2361.14</ele><time>2013-07-25T12:33:43Z</time></trkpt><trkpt lat="46.5898562595" lon="12.1630557161"><ele>2361.14</ele><time>2013-07-25T12:33:47Z</time></trkpt><trkpt lat="46.5898741968" lon="12.1630381141"><ele>2361.14</ele><time>2013-07-25T12:33:49Z</time></trkpt><trkpt lat="46.5899096522" lon="12.1629992221"><ele>2361.62</ele><time>2013-07-25T12:33:54Z</time></trkpt><trkpt lat="46.5899902023" lon="12.1629366931"><ele>2361.14</ele><time>2013-07-25T12:34:02Z</time></trkpt><trkpt lat="46.5900558326" lon="12.1628863178"><ele>2360.17</ele><time>2013-07-25T12:34:07Z</time></trkpt><trkpt lat="46.5901083872" lon="12.1628606692"><ele>2360.17</ele><time>2013-07-25T12:34:11Z</time></trkpt><trkpt lat="46.5901565831" lon="12.1628097910"><ele>2359.21</ele><time>2013-07-25T12:34:16Z</time></trkpt><trkpt lat="46.5901989955" lon="12.1627946198"><ele>2358.25</ele><time>2013-07-25T12:34:19Z</time></trkpt><trkpt lat="46.5903669689" lon="12.1626356989"><ele>2356.33</ele><time>2013-07-25T12:34:34Z</time></trkpt><trkpt lat="46.5904791187" lon="12.1625548135"><ele>2355.85</ele><time>2013-07-25T12:34:44Z</time></trkpt><trkpt lat="46.5904999897" lon="12.1625417378"><ele>2356.81</ele><time>2013-07-25T12:34:47Z</time></trkpt><trkpt lat="46.5905860718" lon="12.1624351200"><ele>2358.25</ele><time>2013-07-25T12:34:58Z</time></trkpt><trkpt lat="46.5906279813" lon="12.1623963956"><ele>2359.69</ele><time>2013-07-25T12:35:09Z</time></trkpt><trkpt lat="46.5906610899" lon="12.1623584256"><ele>2361.14</ele><time>2013-07-25T12:35:17Z</time></trkpt><trkpt lat="46.5907261334" lon="12.1623094752"><ele>2362.58</ele><time>2013-07-25T12:35:28Z</time></trkpt><trkpt lat="46.5907807834" lon="12.1622263268"><ele>2363.06</ele><time>2013-07-25T12:35:39Z</time></trkpt><trkpt lat="46.5908001456" lon="12.1621808130"><ele>2364.50</ele><time>2013-07-25T12:35:48Z</time></trkpt><trkpt lat="46.5908358525" lon="12.1621118300"><ele>2366.90</ele><time>2013-07-25T12:35:59Z</time></trkpt><trkpt lat="46.5908951964" lon="12.1620244905"><ele>2366.90</ele><time>2013-07-25T12:36:10Z</time></trkpt><trkpt lat="46.5909849666" lon="12.1619130950"><ele>2366.90</ele><time>2013-07-25T12:36:21Z</time></trkpt><trkpt lat="46.5910482500" lon="12.1618576907"><ele>2367.38</ele><time>2013-07-25T12:36:31Z</time></trkpt><trkpt lat="46.5911107790" lon="12.1617833432"><ele>2368.35</ele><time>2013-07-25T12:36:41Z</time></trkpt><trkpt lat="46.5911471564" lon="12.1616974287"><ele>2367.38</ele><time>2013-07-25T12:36:51Z</time></trkpt><trkpt lat="46.5911585558" lon="12.1616605483"><ele>2365.94</ele><time>2013-07-25T12:36:55Z</time></trkpt><trkpt lat="46.5911754873" lon="12.1615659166"><ele>2364.98</ele><time>2013-07-25T12:37:02Z</time></trkpt><trkpt lat="46.5912458114" lon="12.1614625677"><ele>2362.58</ele><time>2013-07-25T12:37:14Z</time></trkpt><trkpt lat="46.5913038142" lon="12.1613790002"><ele>2361.14</ele><time>2013-07-25T12:37:24Z</time></trkpt><trkpt lat="46.5912924148" lon="12.1612833627"><ele>2359.21</ele><time>2013-07-25T12:37:34Z</time></trkpt><trkpt lat="46.5912683588" lon="12.1612303890"><ele>2357.77</ele><time>2013-07-25T12:37:43Z</time></trkpt><trkpt lat="46.5912645869" lon="12.1612170618"><ele>2357.29</ele><time>2013-07-25T12:37:47Z</time></trkpt><trkpt lat="46.5912924148" lon="12.1611086000"><ele>2358.25</ele><time>2013-07-25T12:37:56Z</time></trkpt><trkpt lat="46.5912896488" lon="12.1610207576"><ele>2359.21</ele><time>2013-07-25T12:38:05Z</time></trkpt><trkpt lat="46.5912656765" lon="12.1610086877"><ele>2359.21</ele><time>2013-07-25T12:38:08Z</time></trkpt><trkpt lat="46.5911958553" lon="12.1609739866"><ele>2358.73</ele><time>2013-07-25T12:38:18Z</time></trkpt><trkpt lat="46.5911928378" lon="12.1609490924"><ele>2359.21</ele><time>2013-07-25T12:38:26Z</time></trkpt><trkpt lat="46.5912344120" lon="12.1609037463"><ele>2360.17</ele><time>2013-07-25T12:38:36Z</time></trkpt><trkpt lat="46.5912715439" lon="12.1609298140"><ele>2362.58</ele><time>2013-07-25T12:38:49Z</time></trkpt><trkpt lat="46.5912960190" lon="12.1609253716"><ele>2363.54</ele><time>2013-07-25T12:39:03Z</time></trkpt><trkpt lat="46.5913252719" lon="12.1609404590"><ele>2365.46</ele><time>2013-07-25T12:39:13Z</time></trkpt><trkpt lat="46.5913343243" lon="12.1609386150"><ele>2366.42</ele><time>2013-07-25T12:39:24Z</time></trkpt><trkpt lat="46.5913831908" lon="12.1609059256"><ele>2367.38</ele><time>2013-07-25T12:39:33Z</time></trkpt><trkpt lat="46.5914236754" lon="12.1608757507"><ele>2368.35</ele><time>2013-07-25T12:39:42Z</time></trkpt><trkpt lat="46.5914551076" lon="12.1608105395"><ele>2368.83</ele><time>2013-07-25T12:39:51Z</time></trkpt><trkpt lat="46.5914774872" lon="12.1607617568"><ele>2370.75</ele><time>2013-07-25T12:40:00Z</time></trkpt><trkpt lat="46.5914964303" lon="12.1607472561"><ele>2370.75</ele><time>2013-07-25T12:40:09Z</time></trkpt><trkpt lat="46.5915011242" lon="12.1607451607"><ele>2371.71</ele><time>2013-07-25T12:40:26Z</time></trkpt><trkpt lat="46.5915058181" lon="12.1607343480"><ele>2371.23</ele><time>2013-07-25T12:40:41Z</time></trkpt><trkpt lat="46.5915058181" lon="12.1607343480"><ele>2370.27</ele><time>2013-07-25T12:41:07Z</time></trkpt><trkpt lat="46.5915078297" lon="12.1607339289"><ele>2370.75</ele><time>2013-07-25T12:41:33Z</time></trkpt><trkpt lat="46.5915078297" lon="12.1607339289"><ele>2370.75</ele><time>2013-07-25T12:41:34Z</time></trkpt><trkpt lat="46.5915091708" lon="12.1607510280"><ele>2371.23</ele><time>2013-07-25T12:41:44Z</time></trkpt><trkpt lat="46.5915242583" lon="12.1607563924"><ele>2370.75</ele><time>2013-07-25T12:41:56Z</time></trkpt><trkpt lat="46.5915509127" lon="12.1607575659"><ele>2369.31</ele><time>2013-07-25T12:42:05Z</time></trkpt><trkpt lat="46.5915603843" lon="12.1607546322"><ele>2368.83</ele><time>2013-07-25T12:42:13Z</time></trkpt><trkpt lat="46.5915708616" lon="12.1607454959"><ele>2367.86</ele><time>2013-07-25T12:42:21Z</time></trkpt><trkpt lat="46.5915694367" lon="12.1607436519"><ele>2367.38</ele><time>2013-07-25T12:42:35Z</time></trkpt><trkpt lat="46.5915637370" lon="12.1607288159"><ele>2366.90</ele><time>2013-07-25T12:42:42Z</time></trkpt><trkpt lat="46.5915690176" lon="12.1607134771"><ele>2365.94</ele><time>2013-07-25T12:42:50Z</time></trkpt><trkpt lat="46.5915685147" lon="12.1607069392"><ele>2364.50</ele><time>2013-07-25T12:43:00Z</time></trkpt><trkpt lat="46.5915670898" lon="12.1606933605"><ele>2364.02</ele><time>2013-07-25T12:43:13Z</time></trkpt><trkpt lat="46.5915640723" lon="12.1606828831"><ele>2363.06</ele><time>2013-07-25T12:43:24Z</time></trkpt><trkpt lat="46.5915751364" lon="12.1606631856"><ele>2362.58</ele><time>2013-07-25T12:43:35Z</time></trkpt><trkpt lat="46.5915753879" lon="12.1606522053"><ele>2361.62</ele><time>2013-07-25T12:43:46Z</time></trkpt><trkpt lat="46.5915735438" lon="12.1606337652"><ele>2361.14</ele><time>2013-07-25T12:43:54Z</time></trkpt><trkpt lat="46.5915755555" lon="12.1606189292"><ele>2360.17</ele><time>2013-07-25T12:44:03Z</time></trkpt><trkpt lat="46.5915807523" lon="12.1606013272"><ele>2359.21</ele><time>2013-07-25T12:44:11Z</time></trkpt><trkpt lat="46.5915851109" lon="12.1605651174"><ele>2357.77</ele><time>2013-07-25T12:44:19Z</time></trkpt><trkpt lat="46.5915911458" lon="12.1605479345"><ele>2355.85</ele><time>2013-07-25T12:44:28Z</time></trkpt><trkpt lat="46.5916167945" lon="12.1605009958"><ele>2353.44</ele><time>2013-07-25T12:44:37Z</time></trkpt><trkpt lat="46.5916411020" lon="12.1604764368"><ele>2352.48</ele><time>2013-07-25T12:44:46Z</time></trkpt><trkpt lat="46.5916512441" lon="12.1604544763"><ele>2350.56</ele><time>2013-07-25T12:44:55Z</time></trkpt><trkpt lat="46.5916479751" lon="12.1604644507"><ele>2350.08</ele><time>2013-07-25T12:45:06Z</time></trkpt><trkpt lat="46.5916633140" lon="12.1604735870"><ele>2349.12</ele><time>2013-07-25T12:45:12Z</time></trkpt><trkpt lat="46.5916856937" lon="12.1604731679"><ele>2347.68</ele><time>2013-07-25T12:45:18Z</time></trkpt><trkpt lat="46.5917103365" lon="12.1604704857"><ele>2346.72</ele><time>2013-07-25T12:45:28Z</time></trkpt><trkpt lat="46.5917609632" lon="12.1604719944"><ele>2345.27</ele><time>2013-07-25T12:45:39Z</time></trkpt><trkpt lat="46.5917732846" lon="12.1604766883"><ele>2343.83</ele><time>2013-07-25T12:45:48Z</time></trkpt><trkpt lat="46.5917684231" lon="12.1604578290"><ele>2341.91</ele><time>2013-07-25T12:45:58Z</time></trkpt><trkpt lat="46.5917716920" lon="12.1604387183"><ele>2340.47</ele><time>2013-07-25T12:46:05Z</time></trkpt><trkpt lat="46.5917945746" lon="12.1604296658"><ele>2340.47</ele><time>2013-07-25T12:46:08Z</time></trkpt><trkpt lat="46.5918141883" lon="12.1604471840"><ele>2339.99</ele><time>2013-07-25T12:46:11Z</time></trkpt><trkpt lat="46.5918227378" lon="12.1605071984"><ele>2339.99</ele><time>2013-07-25T12:46:16Z</time></trkpt><trkpt lat="46.5918118414" lon="12.1605774388"><ele>2340.47</ele><time>2013-07-25T12:46:25Z</time></trkpt><trkpt lat="46.5918878652" lon="12.1605681349"><ele>2338.54</ele><time>2013-07-25T12:46:36Z</time></trkpt><trkpt lat="46.5919482149" lon="12.1605900954"><ele>2337.58</ele><time>2013-07-25T12:46:44Z</time></trkpt><trkpt lat="46.5919710137" lon="12.1606021654"><ele>2335.66</ele><time>2013-07-25T12:46:49Z</time></trkpt><trkpt lat="46.5920379851" lon="12.1606185939"><ele>2335.18</ele><time>2013-07-25T12:46:55Z</time></trkpt><trkpt lat="46.5920538269" lon="12.1606291551"><ele>2334.70</ele><time>2013-07-25T12:46:57Z</time></trkpt><trkpt lat="46.5920725185" lon="12.1606286522"><ele>2334.22</ele><time>2013-07-25T12:47:00Z</time></trkpt><trkpt lat="46.5921327844" lon="12.1605685540"><ele>2333.74</ele><time>2013-07-25T12:47:11Z</time></trkpt><trkpt lat="46.5921389870" lon="12.1605616808"><ele>2333.26</ele><time>2013-07-25T12:47:12Z</time></trkpt><trkpt lat="46.5921983309" lon="12.1605351940"><ele>2331.81</ele><time>2013-07-25T12:47:20Z</time></trkpt><trkpt lat="46.5921967383" lon="12.1605242975"><ele>2331.33</ele><time>2013-07-25T12:47:22Z</time></trkpt><trkpt lat="46.5922111552" lon="12.1604906861"><ele>2329.41</ele><time>2013-07-25T12:47:30Z</time></trkpt><trkpt lat="46.5922088921" lon="12.1604391374"><ele>2328.93</ele><time>2013-07-25T12:47:38Z</time></trkpt><trkpt lat="46.5922139212" lon="12.1604258940"><ele>2327.01</ele><time>2013-07-25T12:47:47Z</time></trkpt><trkpt lat="46.5922055393" lon="12.1604204457"><ele>2324.61</ele><time>2013-07-25T12:47:57Z</time></trkpt><trkpt lat="46.5922124963" lon="12.1604085434"><ele>2322.68</ele><time>2013-07-25T12:48:05Z</time></trkpt><trkpt lat="46.5922102332" lon="12.1603958867"><ele>2320.76</ele><time>2013-07-25T12:48:14Z</time></trkpt><trkpt lat="46.5922121610" lon="12.1603748482"><ele>2319.32</ele><time>2013-07-25T12:48:23Z</time></trkpt><trkpt lat="46.5921943076" lon="12.1603357885"><ele>2317.40</ele><time>2013-07-25T12:48:34Z</time></trkpt><trkpt lat="46.5921692457" lon="12.1602916159"><ele>2315.95</ele><time>2013-07-25T12:48:43Z</time></trkpt><trkpt lat="46.5921689942" lon="12.1602806356"><ele>2314.99</ele><time>2013-07-25T12:48:55Z</time></trkpt><trkpt lat="46.5921577625" lon="12.1602578368"><ele>2314.03</ele><time>2013-07-25T12:48:59Z</time></trkpt><trkpt lat="46.5921707544" lon="12.1602140833"><ele>2313.55</ele><time>2013-07-25T12:49:07Z</time></trkpt><trkpt lat="46.5921656415" lon="12.1601963136"><ele>2312.11</ele><time>2013-07-25T12:49:15Z</time></trkpt><trkpt lat="46.5921775438" lon="12.1601503808"><ele>2309.70</ele><time>2013-07-25T12:49:25Z</time></trkpt><trkpt lat="46.5921684913" lon="12.1601364668"><ele>2308.26</ele><time>2013-07-25T12:49:33Z</time></trkpt><trkpt lat="46.5921865124" lon="12.1601246484"><ele>2307.30</ele><time>2013-07-25T12:49:42Z</time></trkpt><trkpt lat="46.5921885241" lon="12.1601246484"><ele>2305.86</ele><time>2013-07-25T12:49:51Z</time></trkpt><trkpt lat="46.5921885241" lon="12.1601246484"><ele>2304.90</ele><time>2013-07-25T12:50:03Z</time></trkpt><trkpt lat="46.5921885241" lon="12.1601246484"><ele>2302.98</ele><time>2013-07-25T12:50:14Z</time></trkpt><trkpt lat="46.5921958163" lon="12.1600734349"><ele>2301.53</ele><time>2013-07-25T12:50:23Z</time></trkpt><trkpt lat="46.5921792202" lon="12.1599779651"><ele>2299.13</ele><time>2013-07-25T12:50:33Z</time></trkpt><trkpt lat="46.5921845846" lon="12.1599203814"><ele>2297.69</ele><time>2013-07-25T12:50:39Z</time></trkpt><trkpt lat="46.5921978280" lon="12.1597879473"><ele>2295.77</ele><time>2013-07-25T12:50:49Z</time></trkpt><trkpt lat="46.5922210459" lon="12.1597315371"><ele>2293.36</ele><time>2013-07-25T12:50:57Z</time></trkpt><trkpt lat="46.5922506340" lon="12.1596612129"><ele>2291.92</ele><time>2013-07-25T12:51:05Z</time></trkpt><trkpt lat="46.5922772884" lon="12.1595581155"><ele>2289.04</ele><time>2013-07-25T12:51:16Z</time></trkpt><trkpt lat="46.5922994167" lon="12.1595172957"><ele>2286.15</ele><time>2013-07-25T12:51:25Z</time></trkpt><trkpt lat="46.5922974050" lon="12.1595012862"><ele>2285.19</ele><time>2013-07-25T12:51:28Z</time></trkpt><trkpt lat="46.5922946390" lon="12.1594675072"><ele>2283.27</ele><time>2013-07-25T12:51:31Z</time></trkpt><trkpt lat="46.5923072957" lon="12.1593810897"><ele>2280.38</ele><time>2013-07-25T12:51:38Z</time></trkpt><trkpt lat="46.5923017636" lon="12.1593150403"><ele>2278.46</ele><time>2013-07-25T12:51:43Z</time></trkpt><trkpt lat="46.5922749415" lon="12.1592349093"><ele>2276.06</ele><time>2013-07-25T12:51:48Z</time></trkpt><trkpt lat="46.5922188666" lon="12.1591443010"><ele>2273.17</ele><time>2013-07-25T12:51:53Z</time></trkpt><trkpt lat="46.5922150109" lon="12.1591145452"><ele>2272.69</ele><time>2013-07-25T12:51:54Z</time></trkpt><trkpt lat="46.5922122449" lon="12.1590697020"><ele>2271.25</ele><time>2013-07-25T12:52:03Z</time></trkpt><trkpt lat="46.5922000911" lon="12.1590122022"><ele>2268.37</ele><time>2013-07-25T12:52:09Z</time></trkpt><trkpt lat="46.5921679884" lon="12.1589453984"><ele>2266.93</ele><time>2013-07-25T12:52:15Z</time></trkpt><trkpt lat="46.5921563376" lon="12.1588211786"><ele>2264.04</ele><time>2013-07-25T12:52:23Z</time></trkpt><trkpt lat="46.5921467822" lon="12.1587207634"><ele>2260.68</ele><time>2013-07-25T12:52:31Z</time></trkpt><trkpt lat="46.5922043659" lon="12.1586372796"><ele>2258.27</ele><time>2013-07-25T12:52:40Z</time></trkpt><trkpt lat="46.5922044497" lon="12.1585544664"><ele>2257.31</ele><time>2013-07-25T12:52:48Z</time></trkpt><trkpt lat="46.5921939723" lon="12.1585277282"><ele>2256.83</ele><time>2013-07-25T12:52:52Z</time></trkpt><trkpt lat="46.5921960678" lon="12.1584981401"><ele>2255.39</ele><time>2013-07-25T12:52:54Z</time></trkpt><trkpt lat="46.5922189504" lon="12.1584128123"><ele>2253.47</ele><time>2013-07-25T12:53:04Z</time></trkpt><trkpt lat="46.5922173578" lon="12.1583854035"><ele>2252.99</ele><time>2013-07-25T12:53:07Z</time></trkpt><trkpt lat="46.5921990015" lon="12.1582254767"><ele>2249.14</ele><time>2013-07-25T12:53:18Z</time></trkpt><trkpt lat="46.5921697486" lon="12.1581169311"><ele>2247.70</ele><time>2013-07-25T12:53:29Z</time></trkpt><trkpt lat="46.5921658929" lon="12.1580105647"><ele>2245.30</ele><time>2013-07-25T12:53:40Z</time></trkpt><trkpt lat="46.5921917930" lon="12.1579577588"><ele>2245.30</ele><time>2013-07-25T12:53:48Z</time></trkpt><trkpt lat="46.5922503825" lon="12.1578492969"><ele>2241.93</ele><time>2013-07-25T12:53:58Z</time></trkpt><trkpt lat="46.5922596864" lon="12.1578154340"><ele>2241.45</ele><time>2013-07-25T12:54:06Z</time></trkpt><trkpt lat="46.5922571719" lon="12.1578112431"><ele>2241.45</ele><time>2013-07-25T12:54:08Z</time></trkpt><trkpt lat="46.5922390670" lon="12.1577131748"><ele>2240.01</ele><time>2013-07-25T12:54:17Z</time></trkpt><trkpt lat="46.5924704913" lon="12.1579331998"><ele>2238.09</ele><time>2013-07-25T12:54:27Z</time></trkpt><trkpt lat="46.5926231258" lon="12.1578640491"><ele>2235.68</ele><time>2013-07-25T12:54:36Z</time></trkpt><trkpt lat="46.5926470980" lon="12.1578005143"><ele>2234.24</ele><time>2013-07-25T12:54:43Z</time></trkpt><trkpt lat="46.5926422365" lon="12.1577270050"><ele>2230.88</ele><time>2013-07-25T12:54:51Z</time></trkpt><trkpt lat="46.5926490258" lon="12.1577078942"><ele>2230.40</ele><time>2013-07-25T12:54:53Z</time></trkpt><trkpt lat="46.5926584974" lon="12.1576519869"><ele>2229.43</ele><time>2013-07-25T12:54:58Z</time></trkpt><trkpt lat="46.5926443320" lon="12.1575814113"><ele>2227.51</ele><time>2013-07-25T12:55:06Z</time></trkpt><trkpt lat="46.5926402248" lon="12.1575161163"><ele>2225.59</ele><time>2013-07-25T12:55:11Z</time></trkpt><trkpt lat="46.5926547255" lon="12.1574284416"><ele>2224.63</ele><time>2013-07-25T12:55:18Z</time></trkpt><trkpt lat="46.5926969703" lon="12.1573157050"><ele>2221.74</ele><time>2013-07-25T12:55:27Z</time></trkpt><trkpt lat="46.5927392151" lon="12.1572017111"><ele>2219.82</ele><time>2013-07-25T12:55:40Z</time></trkpt><trkpt lat="46.5927378740" lon="12.1572002023"><ele>2219.34</ele><time>2013-07-25T12:55:41Z</time></trkpt><trkpt lat="46.5927180927" lon="12.1571658365"><ele>2217.90</ele><time>2013-07-25T12:55:49Z</time></trkpt><trkpt lat="46.5926978085" lon="12.1571295429"><ele>2217.42</ele><time>2013-07-25T12:55:53Z</time></trkpt><trkpt lat="46.5926981438" lon="12.1569952648"><ele>2215.01</ele><time>2013-07-25T12:56:04Z</time></trkpt><trkpt lat="46.5926978085" lon="12.1569647547"><ele>2213.09</ele><time>2013-07-25T12:56:09Z</time></trkpt><trkpt lat="46.5926916059" lon="12.1569802612"><ele>2212.13</ele><time>2013-07-25T12:56:13Z</time></trkpt><trkpt lat="46.5926614311" lon="12.1569855418"><ele>2211.65</ele><time>2013-07-25T12:56:16Z</time></trkpt><trkpt lat="46.5926810447" lon="12.1568165626"><ele>2207.81</ele><time>2013-07-25T12:56:31Z</time></trkpt><trkpt lat="46.5927087050" lon="12.1567134652"><ele>2204.92</ele><time>2013-07-25T12:56:43Z</time></trkpt><trkpt lat="46.5927088726" lon="12.1567023173"><ele>2204.44</ele><time>2013-07-25T12:56:45Z</time></trkpt><trkpt lat="46.5926829726" lon="12.1566439793"><ele>2204.44</ele><time>2013-07-25T12:56:49Z</time></trkpt><trkpt lat="46.5926358663" lon="12.1566032432"><ele>2203.96</ele><time>2013-07-25T12:56:54Z</time></trkpt><trkpt lat="46.5926253889" lon="12.1565780137"><ele>2203.00</ele><time>2013-07-25T12:56:56Z</time></trkpt><trkpt lat="46.5926016681" lon="12.1564453281"><ele>2199.63</ele><time>2013-07-25T12:57:05Z</time></trkpt><trkpt lat="46.5925978962" lon="12.1562323440"><ele>2196.75</ele><time>2013-07-25T12:57:17Z</time></trkpt><trkpt lat="46.5925999079" lon="12.1561880037"><ele>2196.75</ele><time>2013-07-25T12:57:19Z</time></trkpt><trkpt lat="46.5926229581" lon="12.1560693998"><ele>2196.27</ele><time>2013-07-25T12:57:25Z</time></trkpt><trkpt lat="46.5926320944" lon="12.1559893526"><ele>2195.79</ele><time>2013-07-25T12:57:29Z</time></trkpt><trkpt lat="46.5927830525" lon="12.1558691561"><ele>2195.79</ele><time>2013-07-25T12:57:41Z</time></trkpt><trkpt lat="46.5929079428" lon="12.1557376441"><ele>2193.87</ele><time>2013-07-25T12:57:53Z</time></trkpt><trkpt lat="46.5929967910" lon="12.1555885300"><ele>2192.90</ele><time>2013-07-25T12:58:04Z</time></trkpt><trkpt lat="46.5930785146" lon="12.1554498095"><ele>2189.54</ele><time>2013-07-25T12:58:16Z</time></trkpt><trkpt lat="46.5931580588" lon="12.1553440299"><ele>2187.62</ele><time>2013-07-25T12:58:27Z</time></trkpt><trkpt lat="46.5932037402" lon="12.1552873682"><ele>2188.10</ele><time>2013-07-25T12:58:32Z</time></trkpt><trkpt lat="46.5932412073" lon="12.1552234981"><ele>2186.18</ele><time>2013-07-25T12:58:37Z</time></trkpt><trkpt lat="46.5932890680" lon="12.1551732905"><ele>2185.21</ele><time>2013-07-25T12:58:42Z</time></trkpt><trkpt lat="46.5933507588" lon="12.1550944168"><ele>2184.25</ele><time>2013-07-25T12:58:49Z</time></trkpt><trkpt lat="46.5933936741" lon="12.1550424490"><ele>2181.85</ele><time>2013-07-25T12:58:53Z</time></trkpt><trkpt lat="46.5934562869" lon="12.1549147088"><ele>2180.89</ele><time>2013-07-25T12:59:03Z</time></trkpt><trkpt lat="46.5934852045" lon="12.1548079234"><ele>2179.45</ele><time>2013-07-25T12:59:10Z</time></trkpt><trkpt lat="46.5934892278" lon="12.1547430474"><ele>2178.48</ele><time>2013-07-25T12:59:14Z</time></trkpt><trkpt lat="46.5935593843" lon="12.1545500122"><ele>2176.56</ele><time>2013-07-25T12:59:27Z</time></trkpt><trkpt lat="46.5935714543" lon="12.1544003114"><ele>2176.56</ele><time>2013-07-25T12:59:37Z</time></trkpt><trkpt lat="46.5935981926" lon="12.1542900894"><ele>2173.68</ele><time>2013-07-25T12:59:47Z</time></trkpt><trkpt lat="46.5935775731" lon="12.1542985551"><ele>2173.68</ele><time>2013-07-25T12:59:57Z</time></trkpt><trkpt lat="46.5935332328" lon="12.1543539595"><ele>2171.27</ele><time>2013-07-25T13:00:07Z</time></trkpt><trkpt lat="46.5934722964" lon="12.1544045862"><ele>2169.83</ele><time>2013-07-25T13:00:17Z</time></trkpt><trkpt lat="46.5934752300" lon="12.1543345973"><ele>2166.47</ele><time>2013-07-25T13:00:25Z</time></trkpt><trkpt lat="46.5934780799" lon="12.1543254610"><ele>2166.95</ele><time>2013-07-25T13:00:34Z</time></trkpt><trkpt lat="46.5934947599" lon="12.1542842221"><ele>2166.47</ele><time>2013-07-25T13:00:37Z</time></trkpt><trkpt lat="46.5935290419" lon="12.1541838069"><ele>2166.47</ele><time>2013-07-25T13:00:47Z</time></trkpt><trkpt lat="46.5935296286" lon="12.1541448310"><ele>2165.51</ele><time>2013-07-25T13:00:50Z</time></trkpt><trkpt lat="46.5935338195" lon="12.1541149914"><ele>2164.55</ele><time>2013-07-25T13:00:52Z</time></trkpt><trkpt lat="46.5934977774" lon="12.1540457569"><ele>2163.10</ele><time>2013-07-25T13:01:00Z</time></trkpt><trkpt lat="46.5934870485" lon="12.1540731657"><ele>2162.14</ele><time>2013-07-25T13:01:09Z</time></trkpt><trkpt lat="46.5934798401" lon="12.1541248821"><ele>2160.70</ele><time>2013-07-25T13:01:13Z</time></trkpt><trkpt lat="46.5934535209" lon="12.1541582420"><ele>2158.78</ele><time>2013-07-25T13:01:21Z</time></trkpt><trkpt lat="46.5934016369" lon="12.1540917736"><ele>2156.86</ele><time>2013-07-25T13:01:32Z</time></trkpt><trkpt lat="46.5933375992" lon="12.1540424041"><ele>2153.97</ele><time>2013-07-25T13:01:43Z</time></trkpt><trkpt lat="46.5932796802" lon="12.1540056076"><ele>2152.05</ele><time>2013-07-25T13:01:50Z</time></trkpt><trkpt lat="46.5932189953" lon="12.1539874189"><ele>2152.05</ele><time>2013-07-25T13:01:54Z</time></trkpt><trkpt lat="46.5931607410" lon="12.1539315954"><ele>2151.57</ele><time>2013-07-25T13:02:03Z</time></trkpt><trkpt lat="46.5931524429" lon="12.1538999956"><ele>2150.61</ele><time>2013-07-25T13:02:13Z</time></trkpt><trkpt lat="46.5931324940" lon="12.1538647916"><ele>2148.20</ele><time>2013-07-25T13:02:22Z</time></trkpt><trkpt lat="46.5931348410" lon="12.1538578346"><ele>2147.24</ele><time>2013-07-25T13:02:33Z</time></trkpt><trkpt lat="46.5931436419" lon="12.1538200323"><ele>2147.24</ele><time>2013-07-25T13:02:45Z</time></trkpt><trkpt lat="46.5931436419" lon="12.1538200323"><ele>2146.28</ele><time>2013-07-25T13:02:46Z</time></trkpt><trkpt lat="46.5931376908" lon="12.1538102254"><ele>2146.28</ele><time>2013-07-25T13:02:54Z</time></trkpt><trkpt lat="46.5931571368" lon="12.1537527256"><ele>2144.36</ele><time>2013-07-25T13:03:02Z</time></trkpt><trkpt lat="46.5931579750" lon="12.1537438408"><ele>2143.88</ele><time>2013-07-25T13:03:03Z</time></trkpt><trkpt lat="46.5931243636" lon="12.1536912024"><ele>2143.40</ele><time>2013-07-25T13:03:09Z</time></trkpt><trkpt lat="46.5930166561" lon="12.1536386479"><ele>2140.99</ele><time>2013-07-25T13:03:19Z</time></trkpt><trkpt lat="46.5929859784" lon="12.1536078025"><ele>2141.95</ele><time>2013-07-25T13:03:22Z</time></trkpt><trkpt lat="46.5929687116" lon="12.1535938885"><ele>2139.55</ele><time>2013-07-25T13:03:24Z</time></trkpt><trkpt lat="46.5929433983" lon="12.1535735205"><ele>2139.07</ele><time>2013-07-25T13:03:27Z</time></trkpt><trkpt lat="46.5928761754" lon="12.1534749493"><ele>2135.71</ele><time>2013-07-25T13:03:37Z</time></trkpt><trkpt lat="46.5928606689" lon="12.1534589399"><ele>2135.71</ele><time>2013-07-25T13:03:39Z</time></trkpt><trkpt lat="46.5928311646" lon="12.1534063853"><ele>2135.23</ele><time>2013-07-25T13:03:43Z</time></trkpt><trkpt lat="46.5928257164" lon="12.1533628833"><ele>2133.78</ele><time>2013-07-25T13:03:55Z</time></trkpt><trkpt lat="46.5928257164" lon="12.1533628833"><ele>2134.26</ele><time>2013-07-25T13:04:24Z</time></trkpt><trkpt lat="46.5928218607" lon="12.1533436049"><ele>2133.78</ele><time>2013-07-25T13:04:50Z</time></trkpt><trkpt lat="46.5928218607" lon="12.1533436049"><ele>2133.78</ele><time>2013-07-25T13:05:11Z</time></trkpt><trkpt lat="46.5928215254" lon="12.1533436049"><ele>2133.78</ele><time>2013-07-25T13:05:32Z</time></trkpt><trkpt lat="46.5928215254" lon="12.1533436049"><ele>2133.30</ele><time>2013-07-25T13:05:58Z</time></trkpt><trkpt lat="46.5928232856" lon="12.1533406712"><ele>2133.30</ele><time>2013-07-25T13:06:15Z</time></trkpt><trkpt lat="46.5928232856" lon="12.1533406712"><ele>2133.30</ele><time>2013-07-25T13:06:39Z</time></trkpt><trkpt lat="46.5928237885" lon="12.1533421800"><ele>2133.30</ele><time>2013-07-25T13:06:58Z</time></trkpt><trkpt lat="46.5928237885" lon="12.1533421800"><ele>2132.82</ele><time>2013-07-25T13:07:20Z</time></trkpt><trkpt lat="46.5928234532" lon="12.1533433534"><ele>2132.82</ele><time>2013-07-25T13:07:47Z</time></trkpt><trkpt lat="46.5928349365" lon="12.1533398330"><ele>2134.26</ele><time>2013-07-25T13:08:06Z</time></trkpt><trkpt lat="46.5928210225" lon="12.1533379052"><ele>2133.78</ele><time>2013-07-25T13:08:15Z</time></trkpt><trkpt lat="46.5928386245" lon="12.1533449460"><ele>2132.34</ele><time>2013-07-25T13:08:28Z</time></trkpt><trkpt lat="46.5928386245" lon="12.1533449460"><ele>2132.34</ele><time>2013-07-25T13:08:51Z</time></trkpt><trkpt lat="46.5928379539" lon="12.1533441078"><ele>2132.34</ele><time>2013-07-25T13:08:59Z</time></trkpt><trkpt lat="46.5928298235" lon="12.1533496398"><ele>2131.86</ele><time>2013-07-25T13:09:08Z</time></trkpt><trkpt lat="46.5928207710" lon="12.1533716843"><ele>2131.86</ele><time>2013-07-25T13:09:24Z</time></trkpt><trkpt lat="46.5928250458" lon="12.1534032840"><ele>2131.38</ele><time>2013-07-25T13:09:36Z</time></trkpt><trkpt lat="46.5928247944" lon="12.1534388233"><ele>2129.46</ele><time>2013-07-25T13:09:50Z</time></trkpt><trkpt lat="46.5928553883" lon="12.1534931380"><ele>2128.02</ele><time>2013-07-25T13:09:58Z</time></trkpt><trkpt lat="46.5928658657" lon="12.1535303537"><ele>2128.02</ele><time>2013-07-25T13:10:07Z</time></trkpt><trkpt lat="46.5928630996" lon="12.1535841655"><ele>2127.05</ele><time>2013-07-25T13:10:17Z</time></trkpt><trkpt lat="46.5928542148" lon="12.1536601894"><ele>2125.13</ele><time>2013-07-25T13:10:26Z</time></trkpt><trkpt lat="46.5928253811" lon="12.1536974050"><ele>2122.73</ele><time>2013-07-25T13:10:35Z</time></trkpt><trkpt lat="46.5927891713" lon="12.1536533162"><ele>2121.29</ele><time>2013-07-25T13:10:45Z</time></trkpt><trkpt lat="46.5927889198" lon="12.1537011769"><ele>2119.36</ele><time>2013-07-25T13:10:54Z</time></trkpt><trkpt lat="46.5927941166" lon="12.1537439246"><ele>2117.44</ele><time>2013-07-25T13:11:02Z</time></trkpt><trkpt lat="46.5928145684" lon="12.1538476087"><ele>2116.48</ele><time>2013-07-25T13:11:11Z</time></trkpt><trkpt lat="46.5927909315" lon="12.1538471058"><ele>2115.04</ele><time>2013-07-25T13:11:18Z</time></trkpt><trkpt lat="46.5927750058" lon="12.1538316831"><ele>2113.60</ele><time>2013-07-25T13:11:22Z</time></trkpt><trkpt lat="46.5926973894" lon="12.1537503786"><ele>2111.19</ele><time>2013-07-25T13:11:32Z</time></trkpt><trkpt lat="46.5926924441" lon="12.1537468582"><ele>2111.19</ele><time>2013-07-25T13:11:33Z</time></trkpt><trkpt lat="46.5926553961" lon="12.1536937170"><ele>2109.75</ele><time>2013-07-25T13:11:43Z</time></trkpt><trkpt lat="46.5926052723" lon="12.1536434256"><ele>2107.83</ele><time>2013-07-25T13:11:52Z</time></trkpt><trkpt lat="46.5925381333" lon="12.1536179446"><ele>2106.39</ele><time>2013-07-25T13:12:01Z</time></trkpt><trkpt lat="46.5924901050" lon="12.1534359735"><ele>2106.87</ele><time>2013-07-25T13:12:11Z</time></trkpt><trkpt lat="46.5925155859" lon="12.1533099096"><ele>2107.83</ele><time>2013-07-25T13:12:20Z</time></trkpt><trkpt lat="46.5925499517" lon="12.1532022022"><ele>2107.35</ele><time>2013-07-25T13:12:28Z</time></trkpt><trkpt lat="46.5926006623" lon="12.1530767251"><ele>2106.87</ele><time>2013-07-25T13:12:38Z</time></trkpt><trkpt lat="46.5926454216" lon="12.1529611386"><ele>2104.94</ele><time>2013-07-25T13:12:48Z</time></trkpt><trkpt lat="46.5927253850" lon="12.1528235916"><ele>2103.02</ele><time>2013-07-25T13:13:00Z</time></trkpt><trkpt lat="46.5927956253" lon="12.1528067440"><ele>2099.66</ele><time>2013-07-25T13:13:10Z</time></trkpt><trkpt lat="46.5928465035" lon="12.1527911536"><ele>2098.21</ele><time>2013-07-25T13:13:20Z</time></trkpt><trkpt lat="46.5929019079" lon="12.1527476516"><ele>2096.29</ele><time>2013-07-25T13:13:30Z</time></trkpt><trkpt lat="46.5929397102" lon="12.1526755672"><ele>2093.89</ele><time>2013-07-25T13:13:39Z</time></trkpt><trkpt lat="46.5929502714" lon="12.1526442189"><ele>2093.41</ele><time>2013-07-25T13:13:42Z</time></trkpt><trkpt lat="46.5929639339" lon="12.1526208334"><ele>2092.45</ele><time>2013-07-25T13:13:44Z</time></trkpt><trkpt lat="46.5929980483" lon="12.1525708772"><ele>2090.52</ele><time>2013-07-25T13:13:49Z</time></trkpt><trkpt lat="46.5930421371" lon="12.1524783410"><ele>2088.60</ele><time>2013-07-25T13:13:58Z</time></trkpt><trkpt lat="46.5930870641" lon="12.1524104476"><ele>2087.16</ele><time>2013-07-25T13:14:05Z</time></trkpt><trkpt lat="46.5931182448" lon="12.1523436438"><ele>2085.72</ele><time>2013-07-25T13:14:14Z</time></trkpt><trkpt lat="46.5931604058" lon="12.1522241179"><ele>2083.31</ele><time>2013-07-25T13:14:24Z</time></trkpt><trkpt lat="46.5931636747" lon="12.1522128023"><ele>2083.31</ele><time>2013-07-25T13:14:25Z</time></trkpt><trkpt lat="46.5931780078" lon="12.1521902550"><ele>2082.83</ele><time>2013-07-25T13:14:27Z</time></trkpt><trkpt lat="46.5932495054" lon="12.1520969644"><ele>2081.87</ele><time>2013-07-25T13:14:37Z</time></trkpt><trkpt lat="46.5932637546" lon="12.1520680469"><ele>2081.39</ele><time>2013-07-25T13:14:39Z</time></trkpt><trkpt lat="46.5932913311" lon="12.1520326752"><ele>2081.39</ele><time>2013-07-25T13:14:42Z</time></trkpt><trkpt lat="46.5933223441" lon="12.1520138998"><ele>2079.95</ele><time>2013-07-25T13:14:46Z</time></trkpt><trkpt lat="46.5933679417" lon="12.1519769356"><ele>2079.47</ele><time>2013-07-25T13:14:51Z</time></trkpt><trkpt lat="46.5933945961" lon="12.1519355290"><ele>2077.07</ele><time>2013-07-25T13:14:58Z</time></trkpt><trkpt lat="46.5933930036" lon="12.1519258898"><ele>2076.10</ele><time>2013-07-25T13:15:00Z</time></trkpt><trkpt lat="46.5934462287" lon="12.1518509556"><ele>2074.18</ele><time>2013-07-25T13:15:09Z</time></trkpt><trkpt lat="46.5934572928" lon="12.1518041845"><ele>2073.70</ele><time>2013-07-25T13:15:12Z</time></trkpt><trkpt lat="46.5934771579" lon="12.1517671365"><ele>2073.22</ele><time>2013-07-25T13:15:15Z</time></trkpt><trkpt lat="46.5935599711" lon="12.1516556572"><ele>2071.78</ele><time>2013-07-25T13:15:25Z</time></trkpt><trkpt lat="46.5935820155" lon="12.1516434196"><ele>2070.82</ele><time>2013-07-25T13:15:27Z</time></trkpt><trkpt lat="46.5936471429" lon="12.1515325271"><ele>2067.93</ele><time>2013-07-25T13:15:39Z</time></trkpt><trkpt lat="46.5936813410" lon="12.1515017655"><ele>2066.49</ele><time>2013-07-25T13:15:44Z</time></trkpt><trkpt lat="46.5937097557" lon="12.1514416672"><ele>2065.53</ele><time>2013-07-25T13:15:50Z</time></trkpt><trkpt lat="46.5937135275" lon="12.1514264960"><ele>2064.09</ele><time>2013-07-25T13:15:52Z</time></trkpt><trkpt lat="46.5937836003" lon="12.1513480414"><ele>2061.68</ele><time>2013-07-25T13:16:03Z</time></trkpt><trkpt lat="46.5938241687" lon="12.1512921341"><ele>2059.76</ele><time>2013-07-25T13:16:13Z</time></trkpt><trkpt lat="46.5938421059" lon="12.1511685848"><ele>2056.88</ele><time>2013-07-25T13:16:23Z</time></trkpt><trkpt lat="46.5938537568" lon="12.1510774735"><ele>2056.40</ele><time>2013-07-25T13:16:31Z</time></trkpt><trkpt lat="46.5938483924" lon="12.1510234941"><ele>2054.96</ele><time>2013-07-25T13:16:35Z</time></trkpt><trkpt lat="46.5938464645" lon="12.1509556845"><ele>2053.03</ele><time>2013-07-25T13:16:43Z</time></trkpt><trkpt lat="46.5938426089" lon="12.1509312093"><ele>2052.55</ele><time>2013-07-25T13:16:45Z</time></trkpt><trkpt lat="46.5938275214" lon="12.1508773975"><ele>2051.59</ele><time>2013-07-25T13:16:50Z</time></trkpt><trkpt lat="46.5938251745" lon="12.1508496534"><ele>2051.11</ele><time>2013-07-25T13:16:52Z</time></trkpt><trkpt lat="46.5938224085" lon="12.1508070733"><ele>2050.15</ele><time>2013-07-25T13:16:55Z</time></trkpt><trkpt lat="46.5937926527" lon="12.1507439576"><ele>2049.19</ele><time>2013-07-25T13:17:01Z</time></trkpt><trkpt lat="46.5938052256" lon="12.1506928280"><ele>2047.75</ele><time>2013-07-25T13:17:04Z</time></trkpt><trkpt lat="46.5937819239" lon="12.1505759005"><ele>2046.78</ele><time>2013-07-25T13:17:15Z</time></trkpt><trkpt lat="46.5937727876" lon="12.1505311411"><ele>2046.30</ele><time>2013-07-25T13:17:20Z</time></trkpt><trkpt lat="46.5937846899" lon="12.1504508425"><ele>2045.82</ele><time>2013-07-25T13:17:24Z</time></trkpt><trkpt lat="46.5937940776" lon="12.1503140498"><ele>2046.30</ele><time>2013-07-25T13:17:34Z</time></trkpt><trkpt lat="46.5937944967" lon="12.1503029857"><ele>2045.82</ele><time>2013-07-25T13:17:51Z</time></trkpt><trkpt lat="46.5938043874" lon="12.1502461564"><ele>2046.30</ele><time>2013-07-25T13:18:01Z</time></trkpt><trkpt lat="46.5938175470" lon="12.1502425522"><ele>2045.82</ele><time>2013-07-25T13:18:14Z</time></trkpt><trkpt lat="46.5938281082" lon="12.1501977928"><ele>2045.82</ele><time>2013-07-25T13:18:33Z</time></trkpt><trkpt lat="46.5938299522" lon="12.1501611639"><ele>2045.34</ele><time>2013-07-25T13:18:45Z</time></trkpt><trkpt lat="46.5938345622" lon="12.1501479205"><ele>2045.34</ele><time>2013-07-25T13:19:04Z</time></trkpt><trkpt lat="46.5938325506" lon="12.1501064301"><ele>2045.34</ele><time>2013-07-25T13:19:20Z</time></trkpt><trkpt lat="46.5938225761" lon="12.1500459965"><ele>2043.90</ele><time>2013-07-25T13:19:28Z</time></trkpt><trkpt lat="46.5938100871" lon="12.1500137262"><ele>2043.42</ele><time>2013-07-25T13:19:33Z</time></trkpt><trkpt lat="46.5938207321" lon="12.1498579904"><ele>2041.50</ele><time>2013-07-25T13:19:43Z</time></trkpt><trkpt lat="46.5938312095" lon="12.1498092916"><ele>2041.02</ele><time>2013-07-25T13:19:56Z</time></trkpt><trkpt lat="46.5938430279" lon="12.1497323457"><ele>2040.05</ele><time>2013-07-25T13:20:00Z</time></trkpt><trkpt lat="46.5938597079" lon="12.1495602652"><ele>2038.13</ele><time>2013-07-25T13:20:12Z</time></trkpt><trkpt lat="46.5938703530" lon="12.1495065372"><ele>2037.17</ele><time>2013-07-25T13:20:16Z</time></trkpt><trkpt lat="46.5939139389" lon="12.1492891945"><ele>2035.73</ele><time>2013-07-25T13:20:29Z</time></trkpt><trkpt lat="46.5939109214" lon="12.1492623724"><ele>2035.73</ele><time>2013-07-25T13:20:31Z</time></trkpt><trkpt lat="46.5938588697" lon="12.1491383202"><ele>2034.29</ele><time>2013-07-25T13:20:41Z</time></trkpt><trkpt lat="46.5938250907" lon="12.1490503941"><ele>2032.84</ele><time>2013-07-25T13:20:53Z</time></trkpt><trkpt lat="46.5938250907" lon="12.1490503941"><ele>2032.36</ele><time>2013-07-25T13:21:14Z</time></trkpt><trkpt lat="46.5938329697" lon="12.1490434371"><ele>2032.84</ele><time>2013-07-25T13:21:27Z</time></trkpt><trkpt lat="46.5938309580" lon="12.1490337141"><ele>2032.84</ele><time>2013-07-25T13:21:47Z</time></trkpt><trkpt lat="46.5938086621" lon="12.1489933971"><ele>2032.36</ele><time>2013-07-25T13:21:51Z</time></trkpt><trkpt lat="46.5937831812" lon="12.1489617135"><ele>2031.88</ele><time>2013-07-25T13:21:54Z</time></trkpt><trkpt lat="46.5937612206" lon="12.1489170380"><ele>2031.88</ele><time>2013-07-25T13:21:58Z</time></trkpt><trkpt lat="46.5937382542" lon="12.1488643158"><ele>2030.92</ele><time>2013-07-25T13:22:02Z</time></trkpt><trkpt lat="46.5937067382" lon="12.1486997791"><ele>2029.00</ele><time>2013-07-25T13:22:14Z</time></trkpt><trkpt lat="46.5937023796" lon="12.1485404391"><ele>2026.12</ele><time>2013-07-25T13:22:26Z</time></trkpt><trkpt lat="46.5936908126" lon="12.1484643314"><ele>2025.64</ele><time>2013-07-25T13:22:34Z</time></trkpt><trkpt lat="46.5936919022" lon="12.1484655887"><ele>2024.67</ele><time>2013-07-25T13:22:49Z</time></trkpt><trkpt lat="46.5936919022" lon="12.1484655887"><ele>2024.19</ele><time>2013-07-25T13:23:15Z</time></trkpt><trkpt lat="46.5936945844" lon="12.1484626550"><ele>2024.19</ele><time>2013-07-25T13:23:37Z</time></trkpt><trkpt lat="46.5936991945" lon="12.1484526806"><ele>2024.67</ele><time>2013-07-25T13:23:50Z</time></trkpt><trkpt lat="46.5936991945" lon="12.1484526806"><ele>2024.67</ele><time>2013-07-25T13:24:11Z</time></trkpt><trkpt lat="46.5936994459" lon="12.1484525967"><ele>2024.19</ele><time>2013-07-25T13:24:37Z</time></trkpt><trkpt lat="46.5937018767" lon="12.1484474838"><ele>2024.67</ele><time>2013-07-25T13:24:54Z</time></trkpt><trkpt lat="46.5937016252" lon="12.1484471485"><ele>2024.19</ele><time>2013-07-25T13:25:14Z</time></trkpt><trkpt lat="46.5937053133" lon="12.1484459750"><ele>2024.67</ele><time>2013-07-25T13:25:26Z</time></trkpt><trkpt lat="46.5937051456" lon="12.1484461427"><ele>2024.19</ele><time>2013-07-25T13:25:49Z</time></trkpt><trkpt lat="46.5937124379" lon="12.1484394372"><ele>2025.15</ele><time>2013-07-25T13:26:00Z</time></trkpt><trkpt lat="46.5937179700" lon="12.1484424546"><ele>2025.15</ele><time>2013-07-25T13:26:11Z</time></trkpt><trkpt lat="46.5937048104" lon="12.1483490802"><ele>2024.19</ele><time>2013-07-25T13:26:26Z</time></trkpt><trkpt lat="46.5937001165" lon="12.1483427938"><ele>2022.27</ele><time>2013-07-25T13:26:32Z</time></trkpt><trkpt lat="46.5936913993" lon="12.1483202465"><ele>2022.27</ele><time>2013-07-25T13:26:34Z</time></trkpt><trkpt lat="46.5936390962" lon="12.1482451446"><ele>2019.87</ele><time>2013-07-25T13:26:43Z</time></trkpt><trkpt lat="46.5936237574" lon="12.1482178196"><ele>2019.39</ele><time>2013-07-25T13:26:46Z</time></trkpt><trkpt lat="46.5935949236" lon="12.1481608227"><ele>2018.43</ele><time>2013-07-25T13:26:52Z</time></trkpt><trkpt lat="46.5935619827" lon="12.1481365990"><ele>2015.54</ele><time>2013-07-25T13:27:00Z</time></trkpt><trkpt lat="46.5935554449" lon="12.1481419634"><ele>2015.54</ele><time>2013-07-25T13:27:01Z</time></trkpt><trkpt lat="46.5935389325" lon="12.1482225973"><ele>2013.62</ele><time>2013-07-25T13:27:10Z</time></trkpt><trkpt lat="46.5935091767" lon="12.1482903231"><ele>2011.70</ele><time>2013-07-25T13:27:20Z</time></trkpt><trkpt lat="46.5934930835" lon="12.1482770797"><ele>2011.22</ele><time>2013-07-25T13:27:27Z</time></trkpt><trkpt lat="46.5934706200" lon="12.1483499184"><ele>2009.29</ele><time>2013-07-25T13:27:36Z</time></trkpt><trkpt lat="46.5934285428" lon="12.1484163869"><ele>2006.41</ele><time>2013-07-25T13:27:46Z</time></trkpt><trkpt lat="46.5933922492" lon="12.1485012956"><ele>2004.97</ele><time>2013-07-25T13:27:55Z</time></trkpt><trkpt lat="46.5933623258" lon="12.1485897247"><ele>2003.52</ele><time>2013-07-25T13:28:03Z</time></trkpt><trkpt lat="46.5933619067" lon="12.1485969331"><ele>2003.52</ele><time>2013-07-25T13:28:04Z</time></trkpt><trkpt lat="46.5933401976" lon="12.1486371662"><ele>2002.08</ele><time>2013-07-25T13:28:11Z</time></trkpt><trkpt lat="46.5932814404" lon="12.1486712806"><ele>2000.16</ele><time>2013-07-25T13:28:20Z</time></trkpt><trkpt lat="46.5932695381" lon="12.1486452129"><ele>1999.20</ele><time>2013-07-25T13:28:23Z</time></trkpt><trkpt lat="46.5931848809" lon="12.1485949215"><ele>1997.28</ele><time>2013-07-25T13:28:32Z</time></trkpt><trkpt lat="46.5931687038" lon="12.1485722065"><ele>1995.83</ele><time>2013-07-25T13:28:36Z</time></trkpt><trkpt lat="46.5931324940" lon="12.1484900638"><ele>1993.91</ele><time>2013-07-25T13:28:44Z</time></trkpt><trkpt lat="46.5931255370" lon="12.1484675165"><ele>1993.91</ele><time>2013-07-25T13:28:46Z</time></trkpt><trkpt lat="46.5931003075" lon="12.1484152135"><ele>1992.95</ele><time>2013-07-25T13:28:51Z</time></trkpt><trkpt lat="46.5930956975" lon="12.1483443864"><ele>1991.51</ele><time>2013-07-25T13:28:55Z</time></trkpt><trkpt lat="46.5930845495" lon="12.1483121160"><ele>1991.03</ele><time>2013-07-25T13:28:57Z</time></trkpt><trkpt lat="46.5930816997" lon="12.1482915804"><ele>1991.03</ele><time>2013-07-25T13:28:59Z</time></trkpt><trkpt lat="46.5930617508" lon="12.1482599806"><ele>1991.03</ele><time>2013-07-25T13:29:01Z</time></trkpt><trkpt lat="46.5930458251" lon="12.1482470725"><ele>1990.55</ele><time>2013-07-25T13:29:03Z</time></trkpt><trkpt lat="46.5930323303" lon="12.1482216753"><ele>1991.03</ele><time>2013-07-25T13:29:04Z</time></trkpt><trkpt lat="46.5930005629" lon="12.1480614971"><ele>1990.07</ele><time>2013-07-25T13:29:13Z</time></trkpt><trkpt lat="46.5929610003" lon="12.1479992196"><ele>1989.10</ele><time>2013-07-25T13:29:19Z</time></trkpt><trkpt lat="46.5929395426" lon="12.1479438152"><ele>1988.14</ele><time>2013-07-25T13:29:23Z</time></trkpt><trkpt lat="46.5929070208" lon="12.1478053462"><ele>1986.22</ele><time>2013-07-25T13:29:31Z</time></trkpt><trkpt lat="46.5929047577" lon="12.1478014905"><ele>1986.22</ele><time>2013-07-25T13:29:32Z</time></trkpt><trkpt lat="46.5928508621" lon="12.1476618480"><ele>1984.30</ele><time>2013-07-25T13:29:41Z</time></trkpt><trkpt lat="46.5928356070" lon="12.1476208605"><ele>1982.86</ele><time>2013-07-25T13:29:45Z</time></trkpt><trkpt lat="46.5927984752" lon="12.1475687250"><ele>1980.45</ele><time>2013-07-25T13:29:52Z</time></trkpt><trkpt lat="46.5927716531" lon="12.1475337725"><ele>1979.97</ele><time>2013-07-25T13:29:56Z</time></trkpt><trkpt lat="46.5927713178" lon="12.1475764364"><ele>1978.05</ele><time>2013-07-25T13:30:01Z</time></trkpt><trkpt lat="46.5927495249" lon="12.1476237103"><ele>1976.61</ele><time>2013-07-25T13:30:05Z</time></trkpt><trkpt lat="46.5927304141" lon="12.1476683021"><ele>1975.65</ele><time>2013-07-25T13:30:10Z</time></trkpt><trkpt lat="46.5927171707" lon="12.1476564836"><ele>1975.17</ele><time>2013-07-25T13:30:12Z</time></trkpt><trkpt lat="46.5926944558" lon="12.1476223692"><ele>1974.20</ele><time>2013-07-25T13:30:15Z</time></trkpt><trkpt lat="46.5926628560" lon="12.1476050187"><ele>1972.28</ele><time>2013-07-25T13:30:23Z</time></trkpt><trkpt lat="46.5926487744" lon="12.1476238780"><ele>1971.80</ele><time>2013-07-25T13:30:25Z</time></trkpt><trkpt lat="46.5926165879" lon="12.1476326790"><ele>1969.88</ele><time>2013-07-25T13:30:32Z</time></trkpt><trkpt lat="46.5925836470" lon="12.1475973912"><ele>1968.92</ele><time>2013-07-25T13:30:38Z</time></trkpt><trkpt lat="46.5925571602" lon="12.1476455033"><ele>1966.51</ele><time>2013-07-25T13:30:46Z</time></trkpt><trkpt lat="46.5925391391" lon="12.1476578247"><ele>1965.55</ele><time>2013-07-25T13:30:50Z</time></trkpt><trkpt lat="46.5925162565" lon="12.1476317570"><ele>1966.03</ele><time>2013-07-25T13:30:51Z</time></trkpt><trkpt lat="46.5924642887" lon="12.1475726645"><ele>1964.11</ele><time>2013-07-25T13:30:57Z</time></trkpt><trkpt lat="46.5924532246" lon="12.1476325113"><ele>1963.15</ele><time>2013-07-25T13:31:03Z</time></trkpt><trkpt lat="46.5924244747" lon="12.1477556415"><ele>1961.23</ele><time>2013-07-25T13:31:11Z</time></trkpt><trkpt lat="46.5924108122" lon="12.1478366107"><ele>1959.78</ele><time>2013-07-25T13:31:19Z</time></trkpt><trkpt lat="46.5923961438" lon="12.1478604153"><ele>1957.86</ele><time>2013-07-25T13:31:27Z</time></trkpt><trkpt lat="46.5923544858" lon="12.1478196792"><ele>1955.46</ele><time>2013-07-25T13:31:34Z</time></trkpt><trkpt lat="46.5923055355" lon="12.1477847267"><ele>1954.50</ele><time>2013-07-25T13:31:38Z</time></trkpt><trkpt lat="46.5922448505" lon="12.1477589104"><ele>1953.54</ele><time>2013-07-25T13:31:46Z</time></trkpt><trkpt lat="46.5921849199" lon="12.1476998180"><ele>1951.61</ele><time>2013-07-25T13:31:55Z</time></trkpt><trkpt lat="46.5921754483" lon="12.1476854011"><ele>1951.61</ele><time>2013-07-25T13:31:56Z</time></trkpt><trkpt lat="46.5921188705" lon="12.1476284042"><ele>1950.17</ele><time>2013-07-25T13:32:02Z</time></trkpt><trkpt lat="46.5921119135" lon="12.1476144902"><ele>1950.17</ele><time>2013-07-25T13:32:03Z</time></trkpt><trkpt lat="46.5921155177" lon="12.1475938708"><ele>1949.69</ele><time>2013-07-25T13:32:04Z</time></trkpt><trkpt lat="46.5920774639" lon="12.1475255582"><ele>1948.73</ele><time>2013-07-25T13:32:10Z</time></trkpt><trkpt lat="46.5920433495" lon="12.1474844031"><ele>1947.77</ele><time>2013-07-25T13:32:14Z</time></trkpt><trkpt lat="46.5920259152" lon="12.1473985724"><ele>1945.85</ele><time>2013-07-25T13:32:21Z</time></trkpt><trkpt lat="46.5920253284" lon="12.1474125702"><ele>1945.36</ele><time>2013-07-25T13:32:22Z</time></trkpt><trkpt lat="46.5919969138" lon="12.1475211158"><ele>1943.92</ele><time>2013-07-25T13:32:31Z</time></trkpt><trkpt lat="46.5920061339" lon="12.1476041805"><ele>1942.96</ele><time>2013-07-25T13:32:39Z</time></trkpt><trkpt lat="46.5919980872" lon="12.1476982255"><ele>1941.52</ele><time>2013-07-25T13:32:48Z</time></trkpt><trkpt lat="46.5919918846" lon="12.1477189288"><ele>1941.04</ele><time>2013-07-25T13:32:50Z</time></trkpt><trkpt lat="46.5919808205" lon="12.1477621794"><ele>1940.08</ele><time>2013-07-25T13:32:53Z</time></trkpt><trkpt lat="46.5919622127" lon="12.1478501055"><ele>1938.64</ele><time>2013-07-25T13:33:00Z</time></trkpt><trkpt lat="46.5919558425" lon="12.1478748322"><ele>1937.67</ele><time>2013-07-25T13:33:03Z</time></trkpt><trkpt lat="46.5919472091" lon="12.1479022410"><ele>1937.67</ele><time>2013-07-25T13:33:04Z</time></trkpt><trkpt lat="46.5919253323" lon="12.1479665302"><ele>1934.79</ele><time>2013-07-25T13:33:13Z</time></trkpt><trkpt lat="46.5919267572" lon="12.1479675360"><ele>1934.79</ele><time>2013-07-25T13:33:14Z</time></trkpt><trkpt lat="46.5919384919" lon="12.1479977947"><ele>1934.79</ele><time>2013-07-25T13:33:16Z</time></trkpt><trkpt lat="46.5919545852" lon="12.1481386106"><ele>1932.39</ele><time>2013-07-25T13:33:24Z</time></trkpt><trkpt lat="46.5919420961" lon="12.1481702942"><ele>1931.91</ele><time>2013-07-25T13:33:28Z</time></trkpt><trkpt lat="46.5919014439" lon="12.1482210886"><ele>1929.50</ele><time>2013-07-25T13:33:37Z</time></trkpt><trkpt lat="46.5918946546" lon="12.1482179873"><ele>1929.02</ele><time>2013-07-25T13:33:39Z</time></trkpt><trkpt lat="46.5918779746" lon="12.1482018102"><ele>1929.02</ele><time>2013-07-25T13:33:40Z</time></trkpt><trkpt lat="46.5918371547" lon="12.1481710486"><ele>1927.10</ele><time>2013-07-25T13:33:45Z</time></trkpt><trkpt lat="46.5918058902" lon="12.1481672768"><ele>1926.14</ele><time>2013-07-25T13:33:47Z</time></trkpt><trkpt lat="46.5917534195" lon="12.1481448971"><ele>1925.18</ele><time>2013-07-25T13:33:51Z</time></trkpt><trkpt lat="46.5916955844" lon="12.1480727289"><ele>1923.25</ele><time>2013-07-25T13:33:59Z</time></trkpt><trkpt lat="46.5916820057" lon="12.1480537858"><ele>1922.77</ele><time>2013-07-25T13:34:02Z</time></trkpt><trkpt lat="46.5916999429" lon="12.1480215155"><ele>1920.37</ele><time>2013-07-25T13:34:10Z</time></trkpt><trkpt lat="46.5916863643" lon="12.1480386145"><ele>1919.89</ele><time>2013-07-25T13:34:12Z</time></trkpt><trkpt lat="46.5916777309" lon="12.1480791830"><ele>1918.93</ele><time>2013-07-25T13:34:16Z</time></trkpt><trkpt lat="46.5916591231" lon="12.1481275465"><ele>1917.97</ele><time>2013-07-25T13:34:20Z</time></trkpt><trkpt lat="46.5916524176" lon="12.1481477469"><ele>1917.49</ele><time>2013-07-25T13:34:23Z</time></trkpt><trkpt lat="46.5916282777" lon="12.1481776703"><ele>1916.04</ele><time>2013-07-25T13:34:29Z</time></trkpt><trkpt lat="46.5916162916" lon="12.1481762454"><ele>1915.56</ele><time>2013-07-25T13:34:30Z</time></trkpt><trkpt lat="46.5915646590" lon="12.1481642593"><ele>1914.60</ele><time>2013-07-25T13:34:37Z</time></trkpt><trkpt lat="46.5914974362" lon="12.1481284685"><ele>1912.68</ele><time>2013-07-25T13:34:43Z</time></trkpt><trkpt lat="46.5914202388" lon="12.1480672807"><ele>1910.76</ele><time>2013-07-25T13:34:53Z</time></trkpt><trkpt lat="46.5913666785" lon="12.1479933523"><ele>1908.35</ele><time>2013-07-25T13:35:01Z</time></trkpt><trkpt lat="46.5913290437" lon="12.1479568910"><ele>1908.35</ele><time>2013-07-25T13:35:05Z</time></trkpt><trkpt lat="46.5912549477" lon="12.1478268038"><ele>1906.91</ele><time>2013-07-25T13:35:13Z</time></trkpt><trkpt lat="46.5912541933" lon="12.1478203498"><ele>1906.43</ele><time>2013-07-25T13:35:14Z</time></trkpt><trkpt lat="46.5912360046" lon="12.1477752551"><ele>1905.47</ele><time>2013-07-25T13:35:18Z</time></trkpt><trkpt lat="46.5912347473" lon="12.1477452479"><ele>1905.95</ele><time>2013-07-25T13:35:19Z</time></trkpt><trkpt lat="46.5912178997" lon="12.1476450004"><ele>1903.55</ele><time>2013-07-25T13:35:27Z</time></trkpt><trkpt lat="46.5912072547" lon="12.1476532146"><ele>1903.07</ele><time>2013-07-25T13:35:31Z</time></trkpt><trkpt lat="46.5912054945" lon="12.1476734150"><ele>1902.11</ele><time>2013-07-25T13:35:33Z</time></trkpt><trkpt lat="46.5912070870" lon="12.1477061044"><ele>1901.63</ele><time>2013-07-25T13:35:39Z</time></trkpt><trkpt lat="46.5912039857" lon="12.1477231197"><ele>1900.66</ele><time>2013-07-25T13:35:41Z</time></trkpt><trkpt lat="46.5912007168" lon="12.1477325913"><ele>1899.70</ele><time>2013-07-25T13:35:42Z</time></trkpt><trkpt lat="46.5911864676" lon="12.1478004009"><ele>1899.70</ele><time>2013-07-25T13:35:48Z</time></trkpt><trkpt lat="46.5911946818" lon="12.1478636004"><ele>1899.22</ele><time>2013-07-25T13:35:53Z</time></trkpt><trkpt lat="46.5911732242" lon="12.1479090303"><ele>1897.78</ele><time>2013-07-25T13:35:57Z</time></trkpt><trkpt lat="46.5911027323" lon="12.1478661150"><ele>1895.38</ele><time>2013-07-25T13:36:06Z</time></trkpt><trkpt lat="46.5910860524" lon="12.1477977186"><ele>1892.97</ele><time>2013-07-25T13:36:15Z</time></trkpt><trkpt lat="46.5910096094" lon="12.1477377880"><ele>1891.05</ele><time>2013-07-25T13:36:23Z</time></trkpt><trkpt lat="46.5909579769" lon="12.1476484369"><ele>1888.65</ele><time>2013-07-25T13:36:34Z</time></trkpt><trkpt lat="46.5909415483" lon="12.1476161666"><ele>1887.69</ele><time>2013-07-25T13:36:37Z</time></trkpt><trkpt lat="46.5909105353" lon="12.1475752629"><ele>1887.21</ele><time>2013-07-25T13:36:41Z</time></trkpt><trkpt lat="46.5908780973" lon="12.1475678030"><ele>1885.28</ele><time>2013-07-25T13:36:49Z</time></trkpt><trkpt lat="46.5908645187" lon="12.1475634445"><ele>1884.32</ele><time>2013-07-25T13:36:50Z</time></trkpt><trkpt lat="46.5908529516" lon="12.1477307472"><ele>1882.40</ele><time>2013-07-25T13:36:59Z</time></trkpt><trkpt lat="46.5908301529" lon="12.1478601638"><ele>1880.96</ele><time>2013-07-25T13:37:08Z</time></trkpt><trkpt lat="46.5908120479" lon="12.1479272190"><ele>1879.03</ele><time>2013-07-25T13:37:14Z</time></trkpt><trkpt lat="46.5907665342" lon="12.1479890775"><ele>1878.55</ele><time>2013-07-25T13:37:21Z</time></trkpt><trkpt lat="46.5907611698" lon="12.1481340844"><ele>1877.11</ele><time>2013-07-25T13:37:29Z</time></trkpt><trkpt lat="46.5907496866" lon="12.1482122876"><ele>1875.67</ele><time>2013-07-25T13:37:35Z</time></trkpt><trkpt lat="46.5907468367" lon="12.1482462343"><ele>1875.67</ele><time>2013-07-25T13:37:37Z</time></trkpt><trkpt lat="46.5906936117" lon="12.1483397763"><ele>1873.27</ele><time>2013-07-25T13:37:46Z</time></trkpt><trkpt lat="46.5906252991" lon="12.1483198274"><ele>1870.86</ele><time>2013-07-25T13:37:53Z</time></trkpt><trkpt lat="46.5906210244" lon="12.1483171452"><ele>1870.86</ele><time>2013-07-25T13:37:55Z</time></trkpt><trkpt lat="46.5905387979" lon="12.1482971963"><ele>1868.94</ele><time>2013-07-25T13:38:01Z</time></trkpt><trkpt lat="46.5904924460" lon="12.1482759062"><ele>1867.50</ele><time>2013-07-25T13:38:09Z</time></trkpt><trkpt lat="46.5904850699" lon="12.1482843719"><ele>1867.50</ele><time>2013-07-25T13:38:10Z</time></trkpt><trkpt lat="46.5903789550" lon="12.1483513433"><ele>1865.58</ele><time>2013-07-25T13:38:19Z</time></trkpt><trkpt lat="46.5902932920" lon="12.1484173927"><ele>1863.65</ele><time>2013-07-25T13:38:24Z</time></trkpt><trkpt lat="46.5901994985" lon="12.1485629864"><ele>1860.29</ele><time>2013-07-25T13:38:36Z</time></trkpt><trkpt lat="46.5901840758" lon="12.1486763936"><ele>1858.37</ele><time>2013-07-25T13:38:44Z</time></trkpt><trkpt lat="46.5901599359" lon="12.1487459633"><ele>1856.44</ele><time>2013-07-25T13:38:52Z</time></trkpt><trkpt lat="46.5901093092" lon="12.1487731207"><ele>1855.48</ele><time>2013-07-25T13:38:59Z</time></trkpt><trkpt lat="46.5900740214" lon="12.1487779822"><ele>1853.56</ele><time>2013-07-25T13:39:07Z</time></trkpt><trkpt lat="46.5900055412" lon="12.1486991085"><ele>1851.64</ele><time>2013-07-25T13:39:15Z</time></trkpt><trkpt lat="46.5899460297" lon="12.1486107633"><ele>1851.16</ele><time>2013-07-25T13:39:23Z</time></trkpt><trkpt lat="46.5899363905" lon="12.1485350747"><ele>1852.60</ele><time>2013-07-25T13:39:31Z</time></trkpt><trkpt lat="46.5899964049" lon="12.1484789997"><ele>1852.60</ele><time>2013-07-25T13:39:37Z</time></trkpt><trkpt lat="46.5900374763" lon="12.1484169737"><ele>1852.12</ele><time>2013-07-25T13:39:41Z</time></trkpt><trkpt lat="46.5900483727" lon="12.1483731363"><ele>1851.64</ele><time>2013-07-25T13:39:45Z</time></trkpt><trkpt lat="46.5900365543" lon="12.1483291313"><ele>1851.64</ele><time>2013-07-25T13:39:47Z</time></trkpt><trkpt lat="46.5900315251" lon="12.1481982060"><ele>1851.64</ele><time>2013-07-25T13:39:55Z</time></trkpt><trkpt lat="46.5900268313" lon="12.1481526922"><ele>1850.68</ele><time>2013-07-25T13:39:59Z</time></trkpt><trkpt lat="46.5900190361" lon="12.1480704658"><ele>1849.71</ele><time>2013-07-25T13:40:04Z</time></trkpt><trkpt lat="46.5899970755" lon="12.1479588188"><ele>1848.75</ele><time>2013-07-25T13:40:10Z</time></trkpt><trkpt lat="46.5899579320" lon="12.1477982216"><ele>1848.75</ele><time>2013-07-25T13:40:18Z</time></trkpt><trkpt lat="46.5899417549" lon="12.1476517059"><ele>1846.83</ele><time>2013-07-25T13:40:28Z</time></trkpt><trkpt lat="46.5899683256" lon="12.1475646179"><ele>1845.87</ele><time>2013-07-25T13:40:34Z</time></trkpt><trkpt lat="46.5899781324" lon="12.1475196909"><ele>1845.87</ele><time>2013-07-25T13:40:35Z</time></trkpt><trkpt lat="46.5900141746" lon="12.1474171802"><ele>1844.43</ele><time>2013-07-25T13:40:42Z</time></trkpt><trkpt lat="46.5900565032" lon="12.1473411564"><ele>1843.95</ele><time>2013-07-25T13:40:47Z</time></trkpt><trkpt lat="46.5901145898" lon="12.1472342033"><ele>1841.06</ele><time>2013-07-25T13:40:57Z</time></trkpt><trkpt lat="46.5901782084" lon="12.1471016016"><ele>1840.10</ele><time>2013-07-25T13:41:06Z</time></trkpt><trkpt lat="46.5902164299" lon="12.1470214706"><ele>1839.14</ele><time>2013-07-25T13:41:11Z</time></trkpt><trkpt lat="46.5902416594" lon="12.1469569299"><ele>1839.14</ele><time>2013-07-25T13:41:16Z</time></trkpt><trkpt lat="46.5902543999" lon="12.1469149366"><ele>1838.18</ele><time>2013-07-25T13:41:17Z</time></trkpt><trkpt lat="46.5903086308" lon="12.1468341351"><ele>1836.74</ele><time>2013-07-25T13:41:25Z</time></trkpt><trkpt lat="46.5903536417" lon="12.1467062272"><ele>1835.77</ele><time>2013-07-25T13:41:34Z</time></trkpt><trkpt lat="46.5904068667" lon="12.1466320474"><ele>1835.29</ele><time>2013-07-25T13:41:39Z</time></trkpt><trkpt lat="46.5904636122" lon="12.1465398464"><ele>1833.85</ele><time>2013-07-25T13:41:47Z</time></trkpt><trkpt lat="46.5905248839" lon="12.1464583743"><ele>1832.89</ele><time>2013-07-25T13:41:53Z</time></trkpt><trkpt lat="46.5905398875" lon="12.1464434545"><ele>1833.37</ele><time>2013-07-25T13:41:54Z</time></trkpt><trkpt lat="46.5906237066" lon="12.1462988667"><ele>1830.97</ele><time>2013-07-25T13:42:03Z</time></trkpt><trkpt lat="46.5906595811" lon="12.1462317277"><ele>1829.53</ele><time>2013-07-25T13:42:11Z</time></trkpt><trkpt lat="46.5906613413" lon="12.1462266147"><ele>1830.01</ele><time>2013-07-25T13:42:12Z</time></trkpt><trkpt lat="46.5907028317" lon="12.1461401973"><ele>1828.08</ele><time>2013-07-25T13:42:18Z</time></trkpt><trkpt lat="46.5907159075" lon="12.1460499242"><ele>1827.12</ele><time>2013-07-25T13:42:22Z</time></trkpt><trkpt lat="46.5907462500" lon="12.1459547896"><ele>1825.20</ele><time>2013-07-25T13:42:30Z</time></trkpt><trkpt lat="46.5908074379" lon="12.1457975451"><ele>1823.28</ele><time>2013-07-25T13:42:39Z</time></trkpt><trkpt lat="46.5908382833" lon="12.1457046736"><ele>1820.87</ele><time>2013-07-25T13:42:47Z</time></trkpt><trkpt lat="46.5908897482" lon="12.1456335951"><ele>1820.87</ele><time>2013-07-25T13:42:52Z</time></trkpt><trkpt lat="46.5909231920" lon="12.1455460880"><ele>1820.39</ele><time>2013-07-25T13:42:58Z</time></trkpt><trkpt lat="46.5910086036" lon="12.1454504505"><ele>1819.43</ele><time>2013-07-25T13:43:06Z</time></trkpt><trkpt lat="46.5910471603" lon="12.1453773603"><ele>1818.95</ele><time>2013-07-25T13:43:12Z</time></trkpt><trkpt lat="46.5910690371" lon="12.1453302540"><ele>1819.43</ele><time>2013-07-25T13:43:13Z</time></trkpt><trkpt lat="46.5911151376" lon="12.1452405676"><ele>1818.47</ele><time>2013-07-25T13:43:19Z</time></trkpt><trkpt lat="46.5911747329" lon="12.1451150067"><ele>1817.99</ele><time>2013-07-25T13:43:27Z</time></trkpt><trkpt lat="46.5912599768" lon="12.1449921280"><ele>1817.51</ele><time>2013-07-25T13:43:37Z</time></trkpt><trkpt lat="46.5913445503" lon="12.1448423434"><ele>1817.99</ele><time>2013-07-25T13:43:46Z</time></trkpt><trkpt lat="46.5913479030" lon="12.1448385715"><ele>1817.51</ele><time>2013-07-25T13:43:47Z</time></trkpt><trkpt lat="46.5913936682" lon="12.1447793115"><ele>1817.03</ele><time>2013-07-25T13:43:52Z</time></trkpt><trkpt lat="46.5914399363" lon="12.1446848474"><ele>1816.55</ele><time>2013-07-25T13:44:00Z</time></trkpt><trkpt lat="46.5914511681" lon="12.1446708497"><ele>1816.07</ele><time>2013-07-25T13:44:03Z</time></trkpt><trkpt lat="46.5914876293" lon="12.1446034592"><ele>1814.63</ele><time>2013-07-25T13:44:08Z</time></trkpt><trkpt lat="46.5915036388" lon="12.1445555985"><ele>1814.63</ele><time>2013-07-25T13:44:10Z</time></trkpt><trkpt lat="46.5915295389" lon="12.1445063967"><ele>1814.15</ele><time>2013-07-25T13:44:13Z</time></trkpt><trkpt lat="46.5915477276" lon="12.1444628946"><ele>1813.66</ele><time>2013-07-25T13:44:16Z</time></trkpt><trkpt lat="46.5915634856" lon="12.1444266010"><ele>1813.18</ele><time>2013-07-25T13:44:17Z</time></trkpt><trkpt lat="46.5915996116" lon="12.1442803368"><ele>1810.78</ele><time>2013-07-25T13:44:27Z</time></trkpt><trkpt lat="46.5916414373" lon="12.1441948414"><ele>1809.82</ele><time>2013-07-25T13:44:34Z</time></trkpt><trkpt lat="46.5917081572" lon="12.1440800093"><ele>1808.38</ele><time>2013-07-25T13:44:43Z</time></trkpt><trkpt lat="46.5917428583" lon="12.1439633332"><ele>1805.01</ele><time>2013-07-25T13:44:52Z</time></trkpt><trkpt lat="46.5917514917" lon="12.1438997984"><ele>1804.05</ele><time>2013-07-25T13:44:57Z</time></trkpt><trkpt lat="46.5917619690" lon="12.1438549552"><ele>1803.09</ele><time>2013-07-25T13:45:02Z</time></trkpt><trkpt lat="46.5917748772" lon="12.1438105311"><ele>1802.61</ele><time>2013-07-25T13:45:04Z</time></trkpt><trkpt lat="46.5918153618" lon="12.1437115408"><ele>1800.21</ele><time>2013-07-25T13:45:12Z</time></trkpt><trkpt lat="46.5918212291" lon="12.1436973754"><ele>1799.73</ele><time>2013-07-25T13:45:14Z</time></trkpt><trkpt lat="46.5918425191" lon="12.1436486766"><ele>1798.76</ele><time>2013-07-25T13:45:16Z</time></trkpt><trkpt lat="46.5919009410" lon="12.1435459144"><ele>1797.80</ele><time>2013-07-25T13:45:24Z</time></trkpt><trkpt lat="46.5919194650" lon="12.1435131412"><ele>1797.32</ele><time>2013-07-25T13:45:27Z</time></trkpt><trkpt lat="46.5919430181" lon="12.1434711479"><ele>1796.84</ele><time>2013-07-25T13:45:30Z</time></trkpt><trkpt lat="46.5919468738" lon="12.1433936153"><ele>1794.44</ele><time>2013-07-25T13:45:38Z</time></trkpt><trkpt lat="46.5919476282" lon="12.1433663741"><ele>1792.03</ele><time>2013-07-25T13:45:48Z</time></trkpt><trkpt lat="46.5918939840" lon="12.1433815453"><ele>1789.63</ele><time>2013-07-25T13:45:56Z</time></trkpt><trkpt lat="46.5918067284" lon="12.1433633566"><ele>1787.71</ele><time>2013-07-25T13:46:06Z</time></trkpt><trkpt lat="46.5917286091" lon="12.1433971357"><ele>1785.79</ele><time>2013-07-25T13:46:17Z</time></trkpt><trkpt lat="46.5916394256" lon="12.1433975548"><ele>1782.90</ele><time>2013-07-25T13:46:25Z</time></trkpt><trkpt lat="46.5915724542" lon="12.1434289031"><ele>1780.50</ele><time>2013-07-25T13:46:37Z</time></trkpt><trkpt lat="46.5914744698" lon="12.1435033344"><ele>1777.61</ele><time>2013-07-25T13:46:45Z</time></trkpt><trkpt lat="46.5913747251" lon="12.1435645223"><ele>1776.17</ele><time>2013-07-25T13:46:52Z</time></trkpt><trkpt lat="46.5912836976" lon="12.1435682103"><ele>1774.25</ele><time>2013-07-25T13:47:01Z</time></trkpt><trkpt lat="46.5912371781" lon="12.1435903385"><ele>1771.85</ele><time>2013-07-25T13:47:13Z</time></trkpt><trkpt lat="46.5911408700" lon="12.1436345112"><ele>1769.92</ele><time>2013-07-25T13:47:22Z</time></trkpt><trkpt lat="46.5910169855" lon="12.1436634287"><ele>1768.00</ele><time>2013-07-25T13:47:30Z</time></trkpt><trkpt lat="46.5909308195" lon="12.1436871495"><ele>1765.12</ele><time>2013-07-25T13:47:41Z</time></trkpt><trkpt lat="46.5909016505" lon="12.1436928492"><ele>1765.12</ele><time>2013-07-25T13:47:43Z</time></trkpt><trkpt lat="46.5907715634" lon="12.1437486727"><ele>1762.23</ele><time>2013-07-25T13:47:52Z</time></trkpt><trkpt lat="46.5906934440" lon="12.1437564678"><ele>1759.83</ele><time>2013-07-25T13:48:01Z</time></trkpt><trkpt lat="46.5906340163" lon="12.1437822003"><ele>1756.95</ele><time>2013-07-25T13:48:08Z</time></trkpt><trkpt lat="46.5905876644" lon="12.1437856369"><ele>1755.50</ele><time>2013-07-25T13:48:13Z</time></trkpt><trkpt lat="46.5905363671" lon="12.1437881514"><ele>1755.50</ele><time>2013-07-25T13:48:17Z</time></trkpt><trkpt lat="46.5903592575" lon="12.1438599844"><ele>1753.10</ele><time>2013-07-25T13:48:28Z</time></trkpt><trkpt lat="46.5902488679" lon="12.1438754909"><ele>1751.18</ele><time>2013-07-25T13:48:37Z</time></trkpt><trkpt lat="46.5902450122" lon="12.1438728925"><ele>1751.66</ele><time>2013-07-25T13:48:38Z</time></trkpt><trkpt lat="46.5901293419" lon="12.1439700387"><ele>1750.22</ele><time>2013-07-25T13:48:43Z</time></trkpt><trkpt lat="46.5900249034" lon="12.1439998783"><ele>1748.78</ele><time>2013-07-25T13:48:53Z</time></trkpt><trkpt lat="46.5900137555" lon="12.1440044884"><ele>1748.29</ele><time>2013-07-25T13:48:54Z</time></trkpt><trkpt lat="46.5899647214" lon="12.1440235991"><ele>1748.29</ele><time>2013-07-25T13:48:56Z</time></trkpt><trkpt lat="46.5898746997" lon="12.1440340765"><ele>1745.89</ele><time>2013-07-25T13:49:04Z</time></trkpt><trkpt lat="46.5898526553" lon="12.1440185700"><ele>1745.89</ele><time>2013-07-25T13:49:06Z</time></trkpt><trkpt lat="46.5897676628" lon="12.1439885627"><ele>1744.45</ele><time>2013-07-25T13:49:12Z</time></trkpt><trkpt lat="46.5897734463" lon="12.1438816097"><ele>1742.05</ele><time>2013-07-25T13:49:21Z</time></trkpt><trkpt lat="46.5897440258" lon="12.1438146383"><ele>1741.08</ele><time>2013-07-25T13:49:27Z</time></trkpt><trkpt lat="46.5897025354" lon="12.1437983774"><ele>1740.12</ele><time>2013-07-25T13:49:31Z</time></trkpt><trkpt lat="46.5896855202" lon="12.1437952761"><ele>1740.12</ele><time>2013-07-25T13:49:33Z</time></trkpt><trkpt lat="46.5896557644" lon="12.1437805239"><ele>1740.60</ele><time>2013-07-25T13:49:35Z</time></trkpt><trkpt lat="46.5895354841" lon="12.1437159833"><ele>1740.60</ele><time>2013-07-25T13:49:44Z</time></trkpt><trkpt lat="46.5895146970" lon="12.1437148098"><ele>1740.60</ele><time>2013-07-25T13:49:52Z</time></trkpt><trkpt lat="46.5895095840" lon="12.1437086910"><ele>1741.08</ele><time>2013-07-25T13:50:04Z</time></trkpt><trkpt lat="46.5895013697" lon="12.1437133010"><ele>1739.64</ele><time>2013-07-25T13:50:15Z</time></trkpt><trkpt lat="46.5894973464" lon="12.1437254548"><ele>1740.60</ele><time>2013-07-25T13:50:34Z</time></trkpt><trkpt lat="46.5894979332" lon="12.1437270474"><ele>1740.60</ele><time>2013-07-25T13:50:50Z</time></trkpt><trkpt lat="46.5894965082" lon="12.1437334176"><ele>1740.12</ele><time>2013-07-25T13:51:05Z</time></trkpt><trkpt lat="46.5894955862" lon="12.1437323280"><ele>1740.60</ele><time>2013-07-25T13:51:22Z</time></trkpt><trkpt lat="46.5894970950" lon="12.1437314898"><ele>1740.12</ele><time>2013-07-25T13:51:38Z</time></trkpt><trkpt lat="46.5894961730" lon="12.1437329147"><ele>1740.12</ele><time>2013-07-25T13:51:52Z</time></trkpt><trkpt lat="46.5886361059" lon="12.1436052583"><ele>1740.12</ele><time>2013-07-25T13:52:03Z</time></trkpt><trkpt lat="46.5885099582" lon="12.1436245367"><ele>1740.12</ele><time>2013-07-25T13:52:15Z</time></trkpt><trkpt lat="46.5885485150" lon="12.1436421387"><ele>1739.64</ele><time>2013-07-25T13:52:23Z</time></trkpt><trkpt lat="46.5885776840" lon="12.1436469164"><ele>1739.64</ele><time>2013-07-25T13:52:38Z</time></trkpt><trkpt lat="46.5885263029" lon="12.1438659355"><ele>1739.16</ele><time>2013-07-25T13:53:01Z</time></trkpt><trkpt lat="46.5885445755" lon="12.1438025683"><ele>1740.12</ele><time>2013-07-25T13:53:11Z</time></trkpt><trkpt lat="46.5885850601" lon="12.1437096130"><ele>1740.12</ele><time>2013-07-25T13:53:16Z</time></trkpt><trkpt lat="46.5885937773" lon="12.1436682064"><ele>1740.12</ele><time>2013-07-25T13:53:18Z</time></trkpt><trkpt lat="46.5886159055" lon="12.1436502691"><ele>1740.12</ele><time>2013-07-25T13:53:19Z</time></trkpt><trkpt lat="46.5886920970" lon="12.1435870696"><ele>1740.60</ele><time>2013-07-25T13:53:23Z</time></trkpt><trkpt lat="46.5887099504" lon="12.1435564756"><ele>1740.12</ele><time>2013-07-25T13:53:25Z</time></trkpt><trkpt lat="46.5887153987" lon="12.1435503569"><ele>1740.12</ele><time>2013-07-25T13:53:26Z</time></trkpt><trkpt lat="46.5887538716" lon="12.1435164940"><ele>1740.12</ele><time>2013-07-25T13:53:29Z</time></trkpt><trkpt lat="46.5887906682" lon="12.1434919350"><ele>1739.64</ele><time>2013-07-25T13:53:34Z</time></trkpt><trkpt lat="46.5888039954" lon="12.1434741654"><ele>1739.64</ele><time>2013-07-25T13:53:35Z</time></trkpt><trkpt lat="46.5888099466" lon="12.1434677113"><ele>1739.16</ele><time>2013-07-25T13:53:36Z</time></trkpt><trkpt lat="46.5888311528" lon="12.1434304118"><ele>1738.68</ele><time>2013-07-25T13:53:39Z</time></trkpt><trkpt lat="46.5888817795" lon="12.1433926094"><ele>1737.72</ele><time>2013-07-25T13:53:42Z</time></trkpt><trkpt lat="46.5890416224" lon="12.1432786155"><ele>1736.76</ele><time>2013-07-25T13:53:54Z</time></trkpt><trkpt lat="46.5891465638" lon="12.1432113089"><ele>1735.32</ele><time>2013-07-25T13:54:03Z</time></trkpt><trkpt lat="46.5891845338" lon="12.1431958023"><ele>1734.84</ele><time>2013-07-25T13:54:06Z</time></trkpt><trkpt lat="46.5892856196" lon="12.1431326028"><ele>1733.39</ele><time>2013-07-25T13:54:13Z</time></trkpt><trkpt lat="46.5893548541" lon="12.1430611890"><ele>1732.43</ele><time>2013-07-25T13:54:21Z</time></trkpt><trkpt lat="46.5893794969" lon="12.1430541482"><ele>1732.43</ele><time>2013-07-25T13:54:23Z</time></trkpt><trkpt lat="46.5894064028" lon="12.1430602670"><ele>1732.43</ele><time>2013-07-25T13:54:25Z</time></trkpt><trkpt lat="46.5894562751" lon="12.1430342831"><ele>1731.95</ele><time>2013-07-25T13:54:29Z</time></trkpt><trkpt lat="46.5896169562" lon="12.1429880988"><ele>1731.95</ele><time>2013-07-25T13:54:37Z</time></trkpt><trkpt lat="46.5897026192" lon="12.1429693233"><ele>1731.95</ele><time>2013-07-25T13:54:42Z</time></trkpt><trkpt lat="46.5897462890" lon="12.1429558285"><ele>1731.95</ele><time>2013-07-25T13:54:44Z</time></trkpt><trkpt lat="46.5898504760" lon="12.1428578440"><ele>1731.95</ele><time>2013-07-25T13:54:52Z</time></trkpt><trkpt lat="46.5898669884" lon="12.1428544912"><ele>1732.43</ele><time>2013-07-25T13:54:53Z</time></trkpt><trkpt lat="46.5899318643" lon="12.1427741926"><ele>1732.91</ele><time>2013-07-25T13:55:01Z</time></trkpt><trkpt lat="46.5899377316" lon="12.1427663974"><ele>1732.43</ele><time>2013-07-25T13:55:02Z</time></trkpt><trkpt lat="46.5899631288" lon="12.1427332889"><ele>1732.43</ele><time>2013-07-25T13:55:06Z</time></trkpt><trkpt lat="46.5899980813" lon="12.1426653955"><ele>1732.43</ele><time>2013-07-25T13:55:10Z</time></trkpt><trkpt lat="46.5901435073" lon="12.1425545029"><ele>1732.91</ele><time>2013-07-25T13:55:19Z</time></trkpt><trkpt lat="46.5901530627" lon="12.1425524913"><ele>1732.91</ele><time>2013-07-25T13:55:21Z</time></trkpt><trkpt lat="46.5901886020" lon="12.1425089054"><ele>1732.91</ele><time>2013-07-25T13:55:23Z</time></trkpt><trkpt lat="46.5903154202" lon="12.1424141899"><ele>1733.39</ele><time>2013-07-25T13:55:32Z</time></trkpt><trkpt lat="46.5903367102" lon="12.1423991863"><ele>1732.91</ele><time>2013-07-25T13:55:34Z</time></trkpt><trkpt lat="46.5904837288" lon="12.1423064824"><ele>1731.47</ele><time>2013-07-25T13:55:44Z</time></trkpt><trkpt lat="46.5906148218" lon="12.1422656626"><ele>1731.95</ele><time>2013-07-25T13:55:52Z</time></trkpt><trkpt lat="46.5906529594" lon="12.1422452945"><ele>1731.47</ele><time>2013-07-25T13:55:54Z</time></trkpt><trkpt lat="46.5908077732" lon="12.1421452146"><ele>1731.47</ele><time>2013-07-25T13:56:05Z</time></trkpt><trkpt lat="46.5908497665" lon="12.1421163809"><ele>1731.47</ele><time>2013-07-25T13:56:09Z</time></trkpt><trkpt lat="46.5910013951" lon="12.1420326456"><ele>1731.95</ele><time>2013-07-25T13:56:19Z</time></trkpt><trkpt lat="46.5910978708" lon="12.1419184841"><ele>1732.43</ele><time>2013-07-25T13:56:29Z</time></trkpt><trkpt lat="46.5911165625" lon="12.1418717131"><ele>1730.99</ele><time>2013-07-25T13:56:32Z</time></trkpt><trkpt lat="46.5911329072" lon="12.1418708749"><ele>1731.47</ele><time>2013-07-25T13:56:33Z</time></trkpt><trkpt lat="46.5911901556" lon="12.1417493373"><ele>1730.99</ele><time>2013-07-25T13:56:42Z</time></trkpt><trkpt lat="46.5912908223" lon="12.1416788455"><ele>1730.51</ele><time>2013-07-25T13:56:49Z</time></trkpt><trkpt lat="46.5912957676" lon="12.1416731458"><ele>1730.51</ele><time>2013-07-25T13:56:50Z</time></trkpt><trkpt lat="46.5913440473" lon="12.1415837947"><ele>1730.51</ele><time>2013-07-25T13:56:57Z</time></trkpt><trkpt lat="46.5913486574" lon="12.1415601578"><ele>1730.99</ele><time>2013-07-25T13:56:59Z</time></trkpt><trkpt lat="46.5913510043" lon="12.1415558830"><ele>1730.03</ele><time>2013-07-25T13:57:08Z</time></trkpt><trkpt lat="46.5913372580" lon="12.1415676177"><ele>1730.51</ele><time>2013-07-25T13:57:16Z</time></trkpt><trkpt lat="46.5913503338" lon="12.1415191703"><ele>1730.51</ele><time>2013-07-25T13:57:17Z</time></trkpt><trkpt lat="46.5913832746" lon="12.1414300706"><ele>1730.03</ele><time>2013-07-25T13:57:21Z</time></trkpt><trkpt lat="46.5914896410" lon="12.1412592474"><ele>1729.07</ele><time>2013-07-25T13:57:30Z</time></trkpt><trkpt lat="46.5915794112" lon="12.1411092114"><ele>1728.59</ele><time>2013-07-25T13:57:39Z</time></trkpt><trkpt lat="46.5916566085" lon="12.1410550643"><ele>1728.11</ele><time>2013-07-25T13:57:45Z</time></trkpt><trkpt lat="46.5917059779" lon="12.1410322655"><ele>1727.15</ele><time>2013-07-25T13:57:49Z</time></trkpt><trkpt lat="46.5917119291" lon="12.1410035156"><ele>1727.15</ele><time>2013-07-25T13:57:50Z</time></trkpt><trkpt lat="46.5917817503" lon="12.1408745181"><ele>1725.70</ele><time>2013-07-25T13:57:57Z</time></trkpt><trkpt lat="46.5918873623" lon="12.1407982428"><ele>1724.26</ele><time>2013-07-25T13:58:06Z</time></trkpt><trkpt lat="46.5919272602" lon="12.1407642122"><ele>1723.78</ele><time>2013-07-25T13:58:08Z</time></trkpt><trkpt lat="46.5919964947" lon="12.1406705864"><ele>1721.86</ele><time>2013-07-25T13:58:15Z</time></trkpt><trkpt lat="46.5920559224" lon="12.1405886952"><ele>1720.42</ele><time>2013-07-25T13:58:22Z</time></trkpt><trkpt lat="46.5921316948" lon="12.1404744498"><ele>1718.01</ele><time>2013-07-25T13:58:34Z</time></trkpt><trkpt lat="46.5921438485" lon="12.1404529084"><ele>1718.01</ele><time>2013-07-25T13:58:35Z</time></trkpt><trkpt lat="46.5921607800" lon="12.1404207218"><ele>1717.53</ele><time>2013-07-25T13:58:36Z</time></trkpt><trkpt lat="46.5921787173" lon="12.1403854340"><ele>1717.05</ele><time>2013-07-25T13:58:40Z</time></trkpt><trkpt lat="46.5922221355" lon="12.1403166186"><ele>1716.09</ele><time>2013-07-25T13:58:45Z</time></trkpt><trkpt lat="46.5922857542" lon="12.1402104199"><ele>1714.17</ele><time>2013-07-25T13:58:54Z</time></trkpt><trkpt lat="46.5923727583" lon="12.1401659120"><ele>1712.25</ele><time>2013-07-25T13:59:01Z</time></trkpt><trkpt lat="46.5924615227" lon="12.1400819253"><ele>1710.80</ele><time>2013-07-25T13:59:08Z</time></trkpt><trkpt lat="46.5924992412" lon="12.1400461346"><ele>1709.84</ele><time>2013-07-25T13:59:11Z</time></trkpt><trkpt lat="46.5926421527" lon="12.1399763972"><ele>1707.92</ele><time>2013-07-25T13:59:21Z</time></trkpt><trkpt lat="46.5926450025" lon="12.1399746370"><ele>1707.92</ele><time>2013-07-25T13:59:22Z</time></trkpt><trkpt lat="46.5926651191" lon="12.1399145387"><ele>1707.92</ele><time>2013-07-25T13:59:25Z</time></trkpt><trkpt lat="46.5926893428" lon="12.1398654208"><ele>1706.00</ele><time>2013-07-25T13:59:34Z</time></trkpt><trkpt lat="46.5927127283" lon="12.1398526803"><ele>1705.04</ele><time>2013-07-25T13:59:36Z</time></trkpt><trkpt lat="46.5927455854" lon="12.1398051549"><ele>1703.59</ele><time>2013-07-25T13:59:42Z</time></trkpt><trkpt lat="46.5927901771" lon="12.1397039853"><ele>1702.63</ele><time>2013-07-25T13:59:49Z</time></trkpt><trkpt lat="46.5927904285" lon="12.1396995429"><ele>1702.63</ele><time>2013-07-25T13:59:50Z</time></trkpt><trkpt lat="46.5928013250" lon="12.1396766603"><ele>1702.15</ele><time>2013-07-25T13:59:52Z</time></trkpt><trkpt lat="46.5928165801" lon="12.1396335773"><ele>1701.67</ele><time>2013-07-25T13:59:55Z</time></trkpt><trkpt lat="46.5928372834" lon="12.1395355929"><ele>1699.27</ele><time>2013-07-25T14:00:04Z</time></trkpt><trkpt lat="46.5928470902" lon="12.1395098604"><ele>1698.79</ele><time>2013-07-25T14:00:06Z</time></trkpt><trkpt lat="46.5928611718" lon="12.1394310705"><ele>1698.31</ele><time>2013-07-25T14:00:08Z</time></trkpt><trkpt lat="46.5928852279" lon="12.1393076051"><ele>1696.38</ele><time>2013-07-25T14:00:15Z</time></trkpt><trkpt lat="46.5929023270" lon="12.1392758377"><ele>1695.42</ele><time>2013-07-25T14:00:19Z</time></trkpt><trkpt lat="46.5929318313" lon="12.1392271388"><ele>1694.94</ele><time>2013-07-25T14:00:21Z</time></trkpt><trkpt lat="46.5929425601" lon="12.1391224489"><ele>1693.50</ele><time>2013-07-25T14:00:27Z</time></trkpt><trkpt lat="46.5929786023" lon="12.1390496101"><ele>1692.06</ele><time>2013-07-25T14:00:31Z</time></trkpt><trkpt lat="46.5929916780" lon="12.1389883384"><ele>1691.10</ele><time>2013-07-25T14:00:34Z</time></trkpt><trkpt lat="46.5931412950" lon="12.1388910245"><ele>1689.17</ele><time>2013-07-25T14:00:43Z</time></trkpt><trkpt lat="46.5932788420" lon="12.1388965566"><ele>1686.29</ele><time>2013-07-25T14:00:52Z</time></trkpt><trkpt lat="46.5933515131" lon="12.1388325188"><ele>1685.33</ele><time>2013-07-25T14:00:57Z</time></trkpt><trkpt lat="46.5944567509" lon="12.1387321036"><ele>1684.85</ele><time>2013-07-25T14:01:00Z</time></trkpt><trkpt lat="46.5948743373" lon="12.1386742685"><ele>1682.93</ele><time>2013-07-25T14:01:08Z</time></trkpt><trkpt lat="46.5949876606" lon="12.1387072094"><ele>1681.48</ele><time>2013-07-25T14:01:18Z</time></trkpt><trkpt lat="46.5950288996" lon="12.1387015935"><ele>1679.56</ele><time>2013-07-25T14:01:25Z</time></trkpt><trkpt lat="46.5950664505" lon="12.1387079637"><ele>1678.12</ele><time>2013-07-25T14:01:28Z</time></trkpt><trkpt lat="46.5951212682" lon="12.1387669723"><ele>1676.20</ele><time>2013-07-25T14:01:35Z</time></trkpt><trkpt lat="46.5951362718" lon="12.1387937944"><ele>1675.23</ele><time>2013-07-25T14:01:37Z</time></trkpt><trkpt lat="46.5952005610" lon="12.1389085427"><ele>1672.83</ele><time>2013-07-25T14:01:46Z</time></trkpt><trkpt lat="46.5952326637" lon="12.1389570739"><ele>1671.87</ele><time>2013-07-25T14:01:50Z</time></trkpt><trkpt lat="46.5952381119" lon="12.1389667969"><ele>1672.35</ele><time>2013-07-25T14:01:51Z</time></trkpt><trkpt lat="46.5952728968" lon="12.1390245482"><ele>1670.43</ele><time>2013-07-25T14:01:58Z</time></trkpt><trkpt lat="46.5954124555" lon="12.1390496101"><ele>1668.02</ele><time>2013-07-25T14:02:08Z</time></trkpt><trkpt lat="46.5955158044" lon="12.1390781924"><ele>1664.66</ele><time>2013-07-25T14:02:19Z</time></trkpt><trkpt lat="46.5956309717" lon="12.1391299088"><ele>1663.22</ele><time>2013-07-25T14:02:29Z</time></trkpt><trkpt lat="46.5957053192" lon="12.1391048469"><ele>1660.33</ele><time>2013-07-25T14:02:36Z</time></trkpt><trkpt lat="46.5958458837" lon="12.1391327586"><ele>1660.33</ele><time>2013-07-25T14:02:40Z</time></trkpt><trkpt lat="46.5959324688" lon="12.1391128097"><ele>1658.89</ele><time>2013-07-25T14:02:43Z</time></trkpt><trkpt lat="46.5961350594" lon="12.1391860675"><ele>1656.97</ele><time>2013-07-25T14:02:52Z</time></trkpt><trkpt lat="46.5962161962" lon="12.1392529551"><ele>1654.09</ele><time>2013-07-25T14:03:00Z</time></trkpt><trkpt lat="46.5962391626" lon="12.1392806992"><ele>1653.12</ele><time>2013-07-25T14:03:03Z</time></trkpt><trkpt lat="46.5962653980" lon="12.1393087786"><ele>1652.64</ele><time>2013-07-25T14:03:07Z</time></trkpt><trkpt lat="46.5963596106" lon="12.1393610816"><ele>1650.24</ele><time>2013-07-25T14:03:17Z</time></trkpt><trkpt lat="46.5963966586" lon="12.1393793542"><ele>1649.28</ele><time>2013-07-25T14:03:22Z</time></trkpt><trkpt lat="46.5964206308" lon="12.1393943578"><ele>1648.32</ele><time>2013-07-25T14:03:24Z</time></trkpt><trkpt lat="46.5965297632" lon="12.1394638438"><ele>1644.95</ele><time>2013-07-25T14:03:35Z</time></trkpt><trkpt lat="46.5965500474" lon="12.1394986287"><ele>1643.51</ele><time>2013-07-25T14:03:39Z</time></trkpt><trkpt lat="46.5966697410" lon="12.1395912487"><ele>1641.59</ele><time>2013-07-25T14:03:50Z</time></trkpt><trkpt lat="46.5967339464" lon="12.1396247763"><ele>1640.15</ele><time>2013-07-25T14:03:56Z</time></trkpt><trkpt lat="46.5968194418" lon="12.1396817733"><ele>1637.74</ele><time>2013-07-25T14:04:04Z</time></trkpt><trkpt lat="46.5968522988" lon="12.1397009678"><ele>1636.30</ele><time>2013-07-25T14:04:08Z</time></trkpt><trkpt lat="46.5969662089" lon="12.1397847030"><ele>1633.42</ele><time>2013-07-25T14:04:19Z</time></trkpt><trkpt lat="46.5970647801" lon="12.1398769040"><ele>1630.53</ele><time>2013-07-25T14:04:28Z</time></trkpt><trkpt lat="46.5970828850" lon="12.1398873813"><ele>1630.53</ele><time>2013-07-25T14:04:30Z</time></trkpt><trkpt lat="46.5971424803" lon="12.1399520896"><ele>1629.09</ele><time>2013-07-25T14:04:37Z</time></trkpt><trkpt lat="46.5972396266" lon="12.1400281973"><ele>1626.69</ele><time>2013-07-25T14:04:46Z</time></trkpt><trkpt lat="46.5973285586" lon="12.1400746331"><ele>1624.77</ele><time>2013-07-25T14:04:54Z</time></trkpt><trkpt lat="46.5974629205" lon="12.1401484776"><ele>1622.84</ele><time>2013-07-25T14:05:05Z</time></trkpt><trkpt lat="46.5975465719" lon="12.1401678398"><ele>1620.44</ele><time>2013-07-25T14:05:13Z</time></trkpt><trkpt lat="46.5976657625" lon="12.1402861085"><ele>1618.52</ele><time>2013-07-25T14:05:24Z</time></trkpt><trkpt lat="46.5976932552" lon="12.1402841806"><ele>1618.04</ele><time>2013-07-25T14:05:26Z</time></trkpt><trkpt lat="46.5977268666" lon="12.1403041296"><ele>1617.56</ele><time>2013-07-25T14:05:28Z</time></trkpt><trkpt lat="46.5978616476" lon="12.1403167862"><ele>1616.11</ele><time>2013-07-25T14:05:38Z</time></trkpt><trkpt lat="46.5978760645" lon="12.1403229889"><ele>1615.15</ele><time>2013-07-25T14:05:39Z</time></trkpt><trkpt lat="46.5979126934" lon="12.1403105836"><ele>1614.19</ele><time>2013-07-25T14:05:42Z</time></trkpt><trkpt lat="46.5980180539" lon="12.1403181273"><ele>1611.79</ele><time>2013-07-25T14:05:50Z</time></trkpt><trkpt lat="46.5981354844" lon="12.1403679159"><ele>1609.38</ele><time>2013-07-25T14:06:01Z</time></trkpt><trkpt lat="46.5981651563" lon="12.1403786447"><ele>1607.94</ele><time>2013-07-25T14:06:04Z</time></trkpt><trkpt lat="46.5982166212" lon="12.1404031198"><ele>1607.46</ele><time>2013-07-25T14:06:07Z</time></trkpt><trkpt lat="46.5982938185" lon="12.1404884476"><ele>1606.02</ele><time>2013-07-25T14:06:14Z</time></trkpt><trkpt lat="46.5983632207" lon="12.1405285969"><ele>1604.10</ele><time>2013-07-25T14:06:21Z</time></trkpt><trkpt lat="46.5983984247" lon="12.1405409183"><ele>1604.10</ele><time>2013-07-25T14:06:24Z</time></trkpt><trkpt lat="46.5984962415" lon="12.1405952331"><ele>1600.73</ele><time>2013-07-25T14:06:34Z</time></trkpt><trkpt lat="46.5985328704" lon="12.1406485420"><ele>1599.77</ele><time>2013-07-25T14:06:39Z</time></trkpt><trkpt lat="46.5986509714" lon="12.1407860890"><ele>1596.89</ele><time>2013-07-25T14:06:50Z</time></trkpt><trkpt lat="46.5987702459" lon="12.1409024298"><ele>1595.45</ele><time>2013-07-25T14:06:59Z</time></trkpt><trkpt lat="46.5988041088" lon="12.1409283299"><ele>1594.00</ele><time>2013-07-25T14:07:03Z</time></trkpt><trkpt lat="46.5988540649" lon="12.1410176810"><ele>1591.60</ele><time>2013-07-25T14:07:13Z</time></trkpt><trkpt lat="46.5989481099" lon="12.1411182638"><ele>1588.24</ele><time>2013-07-25T14:07:24Z</time></trkpt><trkpt lat="46.5989614371" lon="12.1411267295"><ele>1588.24</ele><time>2013-07-25T14:07:26Z</time></trkpt><trkpt lat="46.5990155004" lon="12.1412067767"><ele>1585.83</ele><time>2013-07-25T14:07:34Z</time></trkpt><trkpt lat="46.5990365390" lon="12.1412267257"><ele>1585.83</ele><time>2013-07-25T14:07:35Z</time></trkpt><trkpt lat="46.5991268121" lon="12.1413488500"><ele>1582.95</ele><time>2013-07-25T14:07:45Z</time></trkpt><trkpt lat="46.5991523769" lon="12.1413908433"><ele>1581.03</ele><time>2013-07-25T14:07:51Z</time></trkpt><trkpt lat="46.5991677996" lon="12.1414368600"><ele>1581.03</ele><time>2013-07-25T14:07:53Z</time></trkpt><trkpt lat="46.5992537141" lon="12.1415981278"><ele>1578.14</ele><time>2013-07-25T14:08:04Z</time></trkpt><trkpt lat="46.5993337613" lon="12.1417244431"><ele>1576.22</ele><time>2013-07-25T14:08:13Z</time></trkpt><trkpt lat="46.5993994754" lon="12.1418522671"><ele>1573.82</ele><time>2013-07-25T14:08:22Z</time></trkpt><trkpt lat="46.5994739905" lon="12.1419694461"><ele>1571.89</ele><time>2013-07-25T14:08:31Z</time></trkpt><trkpt lat="46.5995022375" lon="12.1419915743"><ele>1571.41</ele><time>2013-07-25T14:08:35Z</time></trkpt><trkpt lat="46.5995115414" lon="12.1420066617"><ele>1570.45</ele><time>2013-07-25T14:08:36Z</time></trkpt><trkpt lat="46.5995558817" lon="12.1420660894"><ele>1569.97</ele><time>2013-07-25T14:08:41Z</time></trkpt><trkpt lat="46.5996666905" lon="12.1421557758"><ele>1567.57</ele><time>2013-07-25T14:08:52Z</time></trkpt><trkpt lat="46.5997929219" lon="12.1422346495"><ele>1565.64</ele><time>2013-07-25T14:09:02Z</time></trkpt><trkpt lat="46.5998179000" lon="12.1422613878"><ele>1565.16</ele><time>2013-07-25T14:09:05Z</time></trkpt><trkpt lat="46.5998959355" lon="12.1422955021"><ele>1563.72</ele><time>2013-07-25T14:09:11Z</time></trkpt><trkpt lat="46.6000152100" lon="12.1423562709"><ele>1561.32</ele><time>2013-07-25T14:09:23Z</time></trkpt><trkpt lat="46.6000981070" lon="12.1423960850"><ele>1560.84</ele><time>2013-07-25T14:09:28Z</time></trkpt><trkpt lat="46.6001382563" lon="12.1424045507"><ele>1560.84</ele><time>2013-07-25T14:09:31Z</time></trkpt><trkpt lat="46.6001523379" lon="12.1424119268"><ele>1559.88</ele><time>2013-07-25T14:09:32Z</time></trkpt><trkpt lat="46.6002462991" lon="12.1425137669"><ele>1558.43</ele><time>2013-07-25T14:09:41Z</time></trkpt><trkpt lat="46.6004089918" lon="12.1426050458"><ele>1556.99</ele><time>2013-07-25T14:09:53Z</time></trkpt><trkpt lat="46.6004220676" lon="12.1426097397"><ele>1556.51</ele><time>2013-07-25T14:09:54Z</time></trkpt><trkpt lat="46.6004332993" lon="12.1426311973"><ele>1556.99</ele><time>2013-07-25T14:09:55Z</time></trkpt><trkpt lat="46.6005176213" lon="12.1427027788"><ele>1555.55</ele><time>2013-07-25T14:10:01Z</time></trkpt><trkpt lat="46.6005912144" lon="12.1427829936"><ele>1554.59</ele><time>2013-07-25T14:10:10Z</time></trkpt><trkpt lat="46.6006698366" lon="12.1429513860"><ele>1552.67</ele><time>2013-07-25T14:10:18Z</time></trkpt><trkpt lat="46.6006795596" lon="12.1429703292"><ele>1551.71</ele><time>2013-07-25T14:10:21Z</time></trkpt><trkpt lat="46.6007235646" lon="12.1430457663"><ele>1551.22</ele><time>2013-07-25T14:10:26Z</time></trkpt><trkpt lat="46.6007309407" lon="12.1430588420"><ele>1550.74</ele><time>2013-07-25T14:10:27Z</time></trkpt><trkpt lat="46.6008115746" lon="12.1431953833"><ele>1548.34</ele><time>2013-07-25T14:10:37Z</time></trkpt><trkpt lat="46.6008590162" lon="12.1432536375"><ele>1546.90</ele><time>2013-07-25T14:10:43Z</time></trkpt><trkpt lat="46.6008965671" lon="12.1434973832"><ele>1544.98</ele><time>2013-07-25T14:10:55Z</time></trkpt><trkpt lat="46.6009751055" lon="12.1435638517"><ele>1544.01</ele><time>2013-07-25T14:11:02Z</time></trkpt><trkpt lat="46.6010976490" lon="12.1436444856"><ele>1542.09</ele><time>2013-07-25T14:11:12Z</time></trkpt><trkpt lat="46.6012364533" lon="12.1437073499"><ele>1539.69</ele><time>2013-07-25T14:11:22Z</time></trkpt><trkpt lat="46.6013210267" lon="12.1437513549"><ele>1537.29</ele><time>2013-07-25T14:11:31Z</time></trkpt><trkpt lat="46.6014274769" lon="12.1438193321"><ele>1535.84</ele><time>2013-07-25T14:11:39Z</time></trkpt><trkpt lat="46.6014855634" lon="12.1438572183"><ele>1534.88</ele><time>2013-07-25T14:11:44Z</time></trkpt><trkpt lat="46.6016045865" lon="12.1439828631"><ele>1532.48</ele><time>2013-07-25T14:11:53Z</time></trkpt><trkpt lat="46.6016775090" lon="12.1439543646"><ele>1530.56</ele><time>2013-07-25T14:12:01Z</time></trkpt><trkpt lat="46.6016902495" lon="12.1439507604"><ele>1530.08</ele><time>2013-07-25T14:12:03Z</time></trkpt><trkpt lat="46.6017531976" lon="12.1439489163"><ele>1529.11</ele><time>2013-07-25T14:12:09Z</time></trkpt><trkpt lat="46.6018382739" lon="12.1439416241"><ele>1526.23</ele><time>2013-07-25T14:12:19Z</time></trkpt><trkpt lat="46.6018611565" lon="12.1439337451"><ele>1526.23</ele><time>2013-07-25T14:12:21Z</time></trkpt><trkpt lat="46.6019041557" lon="12.1439171489"><ele>1525.27</ele><time>2013-07-25T14:12:26Z</time></trkpt><trkpt lat="46.6019584704" lon="12.1438913327"><ele>1523.35</ele><time>2013-07-25T14:12:32Z</time></trkpt><trkpt lat="46.6019961890" lon="12.1437603235"><ele>1521.42</ele><time>2013-07-25T14:12:41Z</time></trkpt><trkpt lat="46.6020048223" lon="12.1437147260"><ele>1520.46</ele><time>2013-07-25T14:12:45Z</time></trkpt><trkpt lat="46.6019774135" lon="12.1435874887"><ele>1519.50</ele><time>2013-07-25T14:12:53Z</time></trkpt><trkpt lat="46.6019083466" lon="12.1434088703"><ele>1517.10</ele><time>2013-07-25T14:13:02Z</time></trkpt><trkpt lat="46.6019065864" lon="12.1434014942"><ele>1517.10</ele><time>2013-07-25T14:13:03Z</time></trkpt><trkpt lat="46.6019032337" lon="12.1433543880"><ele>1516.62</ele><time>2013-07-25T14:13:05Z</time></trkpt><trkpt lat="46.6019386891" lon="12.1432323474"><ele>1515.18</ele><time>2013-07-25T14:13:14Z</time></trkpt><trkpt lat="46.6019358393" lon="12.1432074532"><ele>1513.73</ele><time>2013-07-25T14:13:18Z</time></trkpt><trkpt lat="46.6020340752" lon="12.1429242287"><ele>1513.73</ele><time>2013-07-25T14:13:28Z</time></trkpt><trkpt lat="46.6021090932" lon="12.1427310258"><ele>1514.21</ele><time>2013-07-25T14:13:38Z</time></trkpt><trkpt lat="46.6021120269" lon="12.1427219734"><ele>1514.21</ele><time>2013-07-25T14:13:39Z</time></trkpt><trkpt lat="46.6021043155" lon="12.1426870208"><ele>1514.21</ele><time>2013-07-25T14:13:41Z</time></trkpt><trkpt lat="46.6021188162" lon="12.1426481288"><ele>1513.73</ele><time>2013-07-25T14:13:43Z</time></trkpt><trkpt lat="46.6021274496" lon="12.1426316164"><ele>1514.69</ele><time>2013-07-25T14:13:50Z</time></trkpt><trkpt lat="46.6022602189" lon="12.1425211430"><ele>1516.14</ele><time>2013-07-25T14:13:59Z</time></trkpt><trkpt lat="46.6022819281" lon="12.1424478013"><ele>1518.06</ele><time>2013-07-25T14:14:10Z</time></trkpt><trkpt lat="46.6023281123" lon="12.1424127650"><ele>1519.98</ele><time>2013-07-25T14:14:20Z</time></trkpt><trkpt lat="46.6023517493" lon="12.1423937380"><ele>1521.42</ele><time>2013-07-25T14:14:29Z</time></trkpt><trkpt lat="46.6023942456" lon="12.1423476376"><ele>1523.83</ele><time>2013-07-25T14:14:41Z</time></trkpt><trkpt lat="46.6025017854" lon="12.1422853600"><ele>1525.27</ele><time>2013-07-25T14:14:52Z</time></trkpt><trkpt lat="46.6026132647" lon="12.1422715299"><ele>1526.23</ele><time>2013-07-25T14:15:02Z</time></trkpt><trkpt lat="46.6026497260" lon="12.1423285268"><ele>1527.67</ele><time>2013-07-25T14:15:12Z</time></trkpt><trkpt lat="46.6026828345" lon="12.1423526667"><ele>1529.11</ele><time>2013-07-25T14:15:20Z</time></trkpt><trkpt lat="46.6027135961" lon="12.1423635632"><ele>1530.08</ele><time>2013-07-25T14:15:29Z</time></trkpt><trkpt lat="46.6027580202" lon="12.1424254216"><ele>1531.52</ele><time>2013-07-25T14:15:41Z</time></trkpt><trkpt lat="46.6028125025" lon="12.1424348932"><ele>1533.44</ele><time>2013-07-25T14:15:53Z</time></trkpt><trkpt lat="46.6028135922" lon="12.1424277686"><ele>1532.96</ele><time>2013-07-25T14:15:54Z</time></trkpt><trkpt lat="46.6028532386" lon="12.1423565224"><ele>1535.84</ele><time>2013-07-25T14:16:05Z</time></trkpt><trkpt lat="46.6028837487" lon="12.1423357353"><ele>1535.84</ele><time>2013-07-25T14:16:12Z</time></trkpt><trkpt lat="46.6029290948" lon="12.1422889642"><ele>1536.32</ele><time>2013-07-25T14:16:17Z</time></trkpt><trkpt lat="46.6029586829" lon="12.1422107611"><ele>1535.36</ele><time>2013-07-25T14:16:23Z</time></trkpt><trkpt lat="46.6029690765" lon="12.1421822626"><ele>1535.36</ele><time>2013-07-25T14:16:25Z</time></trkpt><trkpt lat="46.6029696632" lon="12.1420879662"><ele>1535.36</ele><time>2013-07-25T14:16:31Z</time></trkpt><trkpt lat="46.6029537376" lon="12.1419949271"><ele>1534.40</ele><time>2013-07-25T14:16:37Z</time></trkpt><trkpt lat="46.6029546596" lon="12.1419358347"><ele>1533.92</ele><time>2013-07-25T14:16:41Z</time></trkpt><trkpt lat="46.6029523965" lon="12.1418940928"><ele>1535.84</ele><time>2013-07-25T14:16:51Z</time></trkpt><trkpt lat="46.6029523965" lon="12.1418940928"><ele>1533.92</ele><time>2013-07-25T14:16:57Z</time></trkpt></trkseg></trk></gpx> 
